Date StartTime U_cm/s V_cm/s W_cm/s Ustd_cm/s Vstd_cm/s Wstd_cm/s Uvar_(cm/s)^2 Vvar_(cm/s)^2 Wvar_(cm/s)^2 KE_(m/s)^2 TurbulentKE_(m/s)^2 HorizWindSpeed_cm/s FrictionSpeec_cm/s DragCoef SpeedOfSound_m/s SonicTemperature_C Pressure_mb 
12/28/2013  00:00:00     -109.439      -38.396      -11.160       38.548       32.379       25.174     1485.969     1048.429      633.745        0.837        0.158      115.979       22.728        0.038      330.512       -2.068      864.625
12/28/2013  00:01:00     -107.354      -16.094       -6.055       40.996       39.446       21.382     1680.684     1556.008      457.198        0.776        0.185      108.554       19.716        0.033      330.499       -2.090      864.629
12/28/2013  00:02:00      -79.183      -23.742        1.851       31.114       26.158       23.431      968.106      684.239      548.996        0.452        0.110       82.666       19.042        0.053      330.508       -2.075      864.607
12/28/2013  00:03:00      -79.070      -24.435       -7.264       35.474       31.343       16.097     1258.388      982.402      259.115        0.470        0.125       82.760       12.065        0.021      330.527       -2.042      864.586
12/28/2013  00:04:00     -106.494      -50.996      -18.885       36.051       26.496       15.504     1299.699      702.044      240.361        0.827        0.112      118.075       16.707        0.020      330.559       -1.991      864.584
12/28/2013  00:05:00      -58.841      -25.886      -12.510       42.878       27.092       20.729     1838.485      733.974      429.691        0.365        0.150       64.284       18.418        0.082      330.616       -1.897      864.570
12/28/2013  00:06:00      -92.591      -32.976      -18.731       16.940       23.833       15.918      286.961      567.996      253.372        0.556        0.055       98.288        6.006        0.004      330.599       -1.926      864.551
12/28/2013  00:07:00     -141.731      -47.893      -17.633       41.508       26.508       22.549     1722.885      702.674      508.459        1.281        0.147      149.604       15.481        0.011      330.591       -1.938      864.553
12/28/2013  00:08:00     -159.658      -26.982      -11.120       55.222       32.951       30.072     3049.448     1085.738      904.302        1.569        0.252      161.922       31.855        0.039      330.541       -2.020      864.573
12/28/2013  00:09:00      -69.259       -4.511        3.626       56.604       34.187       27.232     3203.975     1168.782      741.560        0.497        0.256       69.406       22.504        0.105      330.507       -2.075      864.574
12/28/2013  00:10:00      -87.959       -8.826       -7.469       47.696       33.822       21.525     2274.913     1143.910      463.306        0.588        0.194       88.401       25.030        0.080      330.553       -2.000      864.567
12/28/2013  00:11:00      -61.099      -21.192       -5.452       22.583       23.408       17.619      509.978      547.957      310.445        0.279        0.068       64.669       10.217        0.025      330.582       -1.954      864.552
12/28/2013  00:12:00      -61.016      -29.902       -7.234       37.906       21.989       19.739     1436.841      483.535      389.624        0.349        0.116       67.950       16.685        0.060      330.638       -1.863      864.550
12/28/2013  00:13:00      -92.812      -22.326      -10.858       27.404       22.949       19.322      751.005      526.673      373.342        0.544        0.083       95.459       19.506        0.042      330.623       -1.884      864.546
12/28/2013  00:14:00      -60.113      -20.370       -4.615       20.009       21.438       15.577      400.354      459.603      242.651        0.258        0.055       63.471       14.020        0.049      330.662       -1.821      864.527
12/28/2013  00:15:00      -60.841      -16.513      -13.340       19.426       19.870       15.138      377.388      394.830      229.146        0.258        0.050       63.042       13.798        0.048      330.707       -1.747      864.504
12/28/2013  00:16:00      -65.243      -24.273      -16.896       15.258       25.197        9.324      232.797      634.901       86.943        0.304        0.048       69.612        7.531        0.012      330.766       -1.652      864.484
12/28/2013  00:17:00      -95.404      -18.257      -11.061       11.259       11.559       10.284      126.771      133.601      105.768        0.496        0.018       97.135        4.727        0.002      330.667       -1.812      864.480
12/28/2013  00:18:00      -89.210       -7.436      -14.524       18.283       11.429       10.234      334.262      130.621      104.735        0.440        0.028       89.520        6.947        0.006      330.603       -1.918      864.496
12/28/2013  00:19:00      -49.799        3.625       -1.766       21.428        9.125        9.096      459.153       83.260       82.741        0.156        0.031       49.931       10.720        0.046      330.671       -1.808      864.489
12/28/2013  00:20:00       -3.097        1.973        3.769        6.758        6.275        5.236       45.668       39.373       27.411        0.007        0.006        3.672        2.769        0.569      330.705       -1.752      864.479
12/28/2013  00:21:00       30.224       19.598        4.883        9.705        6.956        7.486       94.186       48.392       56.037        0.076        0.010       36.022        3.269        0.008      330.888       -1.449      864.466
12/28/2013  00:22:00       23.107       21.273       -3.981        6.797        4.989        7.211       46.205       24.891       51.992        0.056        0.006       31.408        3.272        0.011      330.868       -1.483      864.458
12/28/2013  00:23:00       10.134       27.923       -6.618        7.467        6.060        4.389       55.757       36.718       19.260        0.052        0.006       29.705        4.394        0.022      330.969       -1.318      864.459
12/28/2013  00:24:00      -33.281        5.177       -4.396       21.473       20.883        7.406      461.109      436.098       54.843        0.105        0.048       33.681       10.075        0.089      330.940       -1.366      864.459
12/28/2013  00:25:00      -44.568      -19.352       -7.711       11.754        6.622        8.118      138.164       43.845       65.896        0.133        0.012       48.589        6.632        0.019      330.603       -1.918      864.462
12/28/2013  00:26:00       -7.386       -6.055        3.341        9.334        8.884        6.861       87.122       78.931       47.074        0.016        0.011        9.551        3.043        0.101      330.695       -1.768      864.433
12/28/2013  00:27:00       14.569        8.677       -4.810        8.128        7.918        5.789       66.062       62.692       33.517        0.024        0.008       16.957        5.102        0.091      331.148       -1.025      864.395
12/28/2013  00:28:00        6.258        6.895       -2.847       11.026        6.774        4.149      121.563       45.890       17.215        0.014        0.009        9.312        3.726        0.160      331.258       -0.842      864.368
12/28/2013  00:29:00        0.157       -8.062        8.131       11.149       13.880        6.708      124.296      192.641       44.992        0.025        0.018        8.063        5.749        0.508      331.007       -1.255      864.354
12/28/2013  00:30:00       -4.632      -28.632        4.467        7.139       10.612       10.446       50.965      112.612      109.109        0.057        0.014       29.004        4.903        0.029      330.902       -1.428      864.335
12/28/2013  00:31:00      -11.028      -26.749        1.519        8.344       12.333        8.899       69.615      152.114       79.188        0.057        0.015       28.933        4.319        0.022      330.922       -1.394      864.328
12/28/2013  00:32:00       -3.992      -22.044        1.869        7.669        8.975        9.202       58.809       80.555       84.684        0.036        0.011       22.402        5.849        0.068      330.992       -1.279      864.318
12/28/2013  00:33:00      -30.146      -21.554       -6.091       15.462        8.377       10.272      239.072       70.176      105.517        0.091        0.021       37.059       10.983        0.088      331.021       -1.233      864.318
12/28/2013  00:34:00      -34.947      -31.545       -4.444        8.370        7.414        5.754       70.053       54.970       33.108        0.120        0.008       47.079        1.628        0.001      330.792       -1.608      864.336
12/28/2013  00:35:00      -59.945      -17.443       -4.939       14.772        9.426        6.167      218.226       88.854       38.028        0.213        0.017       62.431        7.012        0.013      330.828       -1.549      864.351
12/28/2013  00:36:00      -65.568       -8.137       -1.863       16.305        8.649        6.920      265.856       74.801       47.884        0.238        0.019       66.071        6.173        0.009      330.773       -1.639      864.365
12/28/2013  00:37:00      -65.477       -6.431      -12.077        7.601        8.791        7.373       57.770       77.280       54.363        0.233        0.009       65.792        3.359        0.003      330.713       -1.738      864.366
12/28/2013  00:38:00      -57.483       -7.605       -8.986        8.888        8.125        5.427       78.994       66.011       29.455        0.181        0.009       57.984        4.859        0.007      330.722       -1.725      864.366
12/28/2013  00:39:00      -83.875        1.480      -10.640       18.102        9.008       11.026      327.698       81.146      121.570        0.384        0.027       83.888       10.777        0.017      330.653       -1.835      864.392
12/28/2013  00:40:00      -77.109       23.392      -10.455       21.383       17.095        7.774      457.212      292.239       60.437        0.371        0.040       80.579        4.908        0.004      330.675       -1.800      864.439
12/28/2013  00:41:00      -53.237       12.883       -6.430       19.713       25.591       12.590      388.596      654.902      158.509        0.212        0.060       54.773       11.944        0.048      330.640       -1.857      864.478
12/28/2013  00:42:00      -69.398      -15.652      -14.280        8.754       12.286        8.128       76.635      150.935       66.067        0.278        0.015       71.141        5.624        0.006      330.512       -2.069      864.503
12/28/2013  00:43:00      -67.462      -10.914       -9.047       13.724       21.769       13.648      188.345      473.903      186.279        0.280        0.042       68.340        6.494        0.009      330.476       -2.126      864.536
12/28/2013  00:44:00      -63.746       -9.742      -12.659       12.153       18.564        9.673      147.691      344.608       93.565        0.245        0.029       64.486        6.684        0.011      330.490       -2.104      864.560
12/28/2013  00:45:00      -27.050       22.871       -4.266       22.384       21.490       11.712      501.052      461.805      137.165        0.119        0.055       35.423       13.744        0.151      330.905       -1.424      864.570
12/28/2013  00:46:00       17.949       12.321       14.227       15.119       11.283        9.081      228.582      127.308       82.465        0.056        0.022       21.771        8.891        0.167      331.040       -1.201      864.577
12/28/2013  00:47:00       16.181       -5.190        6.722       14.619       12.128       12.806      213.711      147.078      163.981        0.043        0.026       16.993       10.687        0.396      331.137       -1.042      864.577
12/28/2013  00:48:00        1.257       -2.241       11.604        7.414        6.693        8.295       54.972       44.802       68.815        0.015        0.008        2.569        5.217        4.124      331.039       -1.202      864.566
12/28/2013  00:49:00       -1.782        7.912       -0.760       18.918       19.059       11.310      357.873      363.236      127.906        0.046        0.042        8.110       12.117        2.232      331.019       -1.236      864.556
12/28/2013  00:50:00      -48.022        2.202       -8.339        6.546        8.307        9.436       42.845       69.000       89.038        0.129        0.010       48.073        4.773        0.010      330.679       -1.792      864.540
12/28/2013  00:51:00      -51.096       16.154       -4.728        8.341       10.932        7.641       69.574      119.519       58.384        0.157        0.012       53.589        3.818        0.005      331.030       -1.218      864.535
12/28/2013  00:52:00      -28.985       29.225       -8.000       19.049       19.128       10.986      362.851      365.899      120.701        0.130        0.042       41.161        9.200        0.050      331.158       -1.006      864.539
12/28/2013  00:53:00       -7.667       49.721       -3.486       23.466       24.335       11.760      550.642      592.193      138.294        0.191        0.064       50.309       10.690        0.045      331.433       -0.555      864.531
12/28/2013  00:54:00       12.784       41.152       -7.901       16.657       21.107       10.492      277.453      445.502      110.079        0.138        0.042       43.092        7.293        0.029      331.642       -0.211      864.528
12/28/2013  00:55:00       -5.875       22.482       -3.993       18.662       20.805       10.549      348.282      432.828      111.274        0.072        0.045       23.237       10.550        0.206      331.621       -0.246      864.539
12/28/2013  00:56:00      -66.111       -6.698      -11.587       10.167       17.204        6.208      103.361      295.992       38.544        0.249        0.022       66.450        5.982        0.008      331.059       -1.169      864.534
12/28/2013  00:57:00      -75.541      -25.921      -14.319       11.008        8.320        6.865      121.186       69.214       47.123        0.341        0.012       79.864        4.435        0.003      330.688       -1.778      864.521
12/28/2013  00:58:00      -39.228      -20.292       -6.588       22.146        6.501       10.854      490.432       42.269      117.802        0.132        0.033       44.166       11.939        0.073      331.092       -1.115      864.510
12/28/2013  00:59:00      -22.624      -13.299       -0.895       20.007        9.231        8.932      400.280       85.209       79.784        0.063        0.028       26.243        6.117        0.054      331.523       -0.406      864.516
12/28/2013  01:00:00      -33.014      -15.957       -6.959       14.654        9.377        5.216      214.745       87.936       27.205        0.086        0.016       36.668        5.538        0.023      331.286       -0.796      864.530
12/28/2013  01:01:00      -53.780      -30.096      -11.608       18.774       11.223        8.527      352.456      125.949       72.704        0.224        0.028       61.628        4.454        0.005      330.826       -1.553      864.535
12/28/2013  01:02:00       -4.477      -25.299      -15.215       18.455       14.670       11.723      340.603      215.201      137.423        0.079        0.035       25.692       13.669        0.283      331.027       -1.223      864.521
12/28/2013  01:03:00       38.096       10.934       -1.207       10.534        8.325        7.870      110.966       69.308       61.933        0.091        0.012       39.634        5.465        0.019      331.417       -0.581      864.495
12/28/2013  01:04:00       20.253        1.213       -4.352        8.284        6.496        6.075       68.631       42.192       36.902        0.029        0.007       20.289        4.720        0.054      331.464       -0.505      864.473
12/28/2013  01:05:00        1.703        7.804       -0.304        7.147        5.715        4.270       51.078       32.665       18.236        0.008        0.005        7.987        4.106        0.264      331.534       -0.390      864.453
12/28/2013  01:06:00      -49.426      -23.342       -6.988       28.058       12.207       10.935      787.242      149.015      119.573        0.205        0.053       54.661       15.732        0.083      331.040       -1.201      864.452
12/28/2013  01:07:00     -125.218      -23.025      -14.869       15.823       17.164       10.364      250.382      294.618      107.412        0.854        0.033      127.317        5.106        0.002      330.717       -1.730      864.461
12/28/2013  01:08:00     -123.879      -17.261      -13.637       20.285       22.652       13.827      411.484      513.105      191.185        0.847        0.056      125.076        5.805        0.002      330.590       -1.939      864.460
12/28/2013  01:09:00     -115.282      -11.084      -17.678       22.972       13.978       13.291      527.721      195.381      176.647        0.731        0.045      115.814        6.923        0.004      330.602       -1.920      864.448
12/28/2013  01:10:00      -61.504      -29.041       -7.763       19.109       18.245       11.286      365.155      332.886      127.363        0.276        0.041       68.015       10.424        0.023      330.703       -1.753      864.434
12/28/2013  01:11:00      -49.397      -24.994       -7.772       14.678       15.368        9.886      215.433      236.170       97.725        0.184        0.027       55.361        7.544        0.019      330.780       -1.627      864.425
12/28/2013  01:12:00      -75.368      -24.495       -9.852       12.944       10.561        8.202      167.543      111.538       67.280        0.336        0.017       79.248        2.483        0.001      330.808       -1.583      864.420
12/28/2013  01:13:00      -94.378      -10.592      -15.441       17.607       11.674        9.836      309.999      136.274       96.749        0.490        0.027       94.970        5.925        0.004      330.720       -1.727      864.410
12/28/2013  01:14:00      -73.155       -4.828      -13.291       20.253       11.220       10.236      410.174      125.895      104.776        0.310        0.032       73.314        8.228        0.013      330.779       -1.631      864.397
12/28/2013  01:15:00      -31.895      -27.320       -4.774       12.145       12.451        9.582      147.493      155.021       91.807        0.109        0.020       41.996        6.682        0.025      330.786       -1.621      864.394
12/28/2013  01:16:00      -64.645      -39.212      -10.096       24.559       16.096       13.552      603.151      259.079      183.660        0.343        0.052       75.608        8.796        0.014      330.797       -1.601      864.405
12/28/2013  01:17:00      -96.502      -48.962      -12.076       13.677       15.413        8.482      187.056      237.565       71.946        0.618        0.025      108.212        5.297        0.002      330.784       -1.621      864.421
12/28/2013  01:18:00      -76.810      -23.505      -18.458       11.276       20.475        9.542      127.151      419.242       91.058        0.372        0.032       80.327        7.427        0.009      330.754       -1.671      864.419
12/28/2013  01:19:00      -78.922      -17.416       -6.117       25.715       19.366       17.557      661.257      375.061      308.253        0.396        0.067       80.821       16.587        0.042      330.767       -1.650      864.437
12/28/2013  01:20:00     -119.516      -29.608      -17.396       25.201       19.187       13.260      635.084      368.123      175.829        0.832        0.059      123.129        9.965        0.007      330.736       -1.702      864.470
12/28/2013  01:21:00     -120.407       -7.604      -14.971       33.254       21.646       17.637     1105.799      468.531      311.080        0.833        0.094      120.646       18.143        0.023      330.673       -1.803      864.508
12/28/2013  01:22:00     -114.926      -29.786      -11.628       27.210       24.159       16.790      740.392      583.638      281.899        0.792        0.080      118.723       14.236        0.014      330.675       -1.800      864.535
12/28/2013  01:23:00      -44.486      -34.989        4.428       46.764       30.285       20.111     2186.888      917.158      404.461        0.337        0.175       56.597       24.908        0.194      330.735       -1.702      864.527
12/28/2013  01:24:00      -55.984      -15.632       -5.837       21.145       15.299       14.865      447.099      234.055      220.969        0.216        0.045       58.125       10.087        0.030      330.738       -1.698      864.505
12/28/2013  01:25:00      -58.199      -12.937      -11.280       18.713       14.657       10.224      350.195      214.837      104.530        0.218        0.033       59.619        7.000        0.014      330.737       -1.699      864.490
12/28/2013  01:26:00      -82.073      -27.730      -11.759       21.547       14.404       13.323      464.281      207.486      177.495        0.425        0.042       86.631        9.485        0.012      330.820       -1.563      864.493
12/28/2013  01:27:00      -73.329      -12.361      -10.224       20.585       16.219       13.089      423.754      263.064      171.320        0.325        0.043       74.364        9.502        0.016      330.772       -1.642      864.499
12/28/2013  01:28:00      -74.870      -17.903      -10.566       19.096       13.064        9.195      364.648      170.659       84.545        0.333        0.031       76.981        8.261        0.012      330.799       -1.599      864.499
12/28/2013  01:29:00      -64.649      -10.757      -11.288       18.462       22.043       15.577      340.853      485.876      242.646        0.275        0.053       65.538        8.913        0.018      330.825       -1.555      864.501
12/28/2013  01:30:00      -44.088       -3.313      -17.238       15.968       15.062       12.981      254.962      226.851      168.507        0.145        0.033       44.212       11.141        0.064      330.885       -1.454      864.490
12/28/2013  01:31:00      -52.837      -17.675      -16.950        9.585       11.139       12.635       91.881      124.070      159.645        0.188        0.019       55.715        6.165        0.012      330.910       -1.414      864.489
12/28/2013  01:32:00      -92.004      -19.837      -16.441       25.697       12.605        7.967      660.320      158.882       63.478        0.501        0.044       94.118        7.191        0.006      330.822       -1.559      864.501
12/28/2013  01:33:00     -101.612      -29.390      -17.645       19.469       13.669       10.447      379.027      186.836      109.139        0.609        0.034      105.777        8.245        0.006      330.759       -1.664      864.511
12/28/2013  01:34:00      -64.476      -25.402      -10.868       20.677       18.494       15.071      427.545      342.040      227.139        0.296        0.050       69.300       13.860        0.040      330.741       -1.691      864.500
12/28/2013  01:35:00      -87.258        8.302      -12.695       14.981       21.864       18.473      224.422      478.017      341.247        0.444        0.052       87.652        9.375        0.011      330.974       -1.310      864.494
12/28/2013  01:36:00      -60.120      -11.829      -10.125       18.704       15.744        9.763      349.826      247.881       95.312        0.227        0.035       61.272       10.327        0.028      330.934       -1.375      864.515
12/28/2013  01:37:00       -8.100       -3.043        5.608       15.713       10.504        9.839      246.899      110.330       96.801        0.028        0.023        8.653       10.499        1.472      330.964       -1.326      864.557
12/28/2013  01:38:00       24.074       18.676       17.084       14.714       10.189       12.830      216.495      103.819      164.615        0.085        0.024       30.469        5.618        0.034      331.023       -1.230      864.601
12/28/2013  01:39:00        5.050        7.841       16.547       24.048       21.229       18.196      578.285      450.664      331.084        0.086        0.068        9.326       13.494        2.093      330.972       -1.314      864.637
12/28/2013  01:40:00       -7.234        9.745       17.853        9.573       12.849       10.234       91.648      165.097      104.732        0.041        0.018       12.137        6.443        0.282      330.888       -1.451      864.668
12/28/2013  01:41:00      -27.394       -3.761        5.353       17.943        7.324        6.627      321.963       53.638       43.912        0.061        0.021       27.651        8.626        0.097      330.877       -1.469      864.671
12/28/2013  01:42:00      -20.685      -14.991       -4.666       10.518        7.957        6.582      110.632       63.319       43.323        0.045        0.011       25.546        4.341        0.029      330.911       -1.413      864.658
12/28/2013  01:43:00      -14.697      -22.318       -1.247        8.757        9.261        6.751       76.683       85.774       45.571        0.046        0.010       26.723        6.232        0.054      330.933       -1.375      864.648
12/28/2013  01:44:00       -8.786       -8.090        4.408       10.087       13.539        9.623      101.743      183.315       92.603        0.027        0.019       11.944       11.090        0.862      330.916       -1.404      864.641
12/28/2013  01:45:00       -6.353        1.977       -1.457        6.972        2.501        2.038       48.605        6.257        4.153        0.005        0.003        6.654        1.328        0.040      330.926       -1.389      864.638
12/28/2013  01:46:00        7.665        3.898        5.492        7.731        7.066        4.453       59.768       49.923       19.827        0.012        0.006        8.599        5.139        0.357      330.894       -1.441      864.635
12/28/2013  01:47:00       30.675       18.278       12.345       10.653        7.016        8.152      113.494       49.217       66.459        0.083        0.011       35.708        4.604        0.017      330.884       -1.458      864.648
12/28/2013  01:48:00        9.508        4.568        2.069       13.820       11.902        5.531      191.001      141.655       30.596        0.024        0.018       10.548        3.237        0.094      330.933       -1.378      864.660
12/28/2013  01:49:00       -5.095      -29.411        4.387       11.260       12.830       13.656      126.793      164.601      186.497        0.069        0.024       29.849        3.969        0.018      330.871       -1.479      864.678
12/28/2013  01:50:00       -6.532      -34.629       -2.370        8.143        8.836        8.600       66.305       78.074       73.957        0.073        0.011       35.240        4.754        0.018      330.819       -1.563      864.698
12/28/2013  01:51:00      -18.587      -11.119       -1.886       16.432        9.469        8.043      270.009       89.662       64.692        0.045        0.021       21.659        7.437        0.118      330.816       -1.570      864.713
12/28/2013  01:52:00      -54.177       -1.695       -8.414        6.093        4.839        4.705       37.130       23.420       22.138        0.155        0.004       54.203        2.256        0.002      330.693       -1.771      864.719
12/28/2013  01:53:00      -33.211        6.708       -5.998       11.474        6.968        3.461      131.648       48.557       11.980        0.069        0.010       33.882        3.921        0.013      330.686       -1.783      864.727
12/28/2013  01:54:00       -6.159        7.652       -0.634       11.646       10.282        7.106      135.636      105.723       50.498        0.019        0.015        9.822        7.849        0.639      330.894       -1.441      864.726
12/28/2013  01:55:00       41.366       20.413        9.240       20.037        7.747       10.605      401.480       60.014      112.468        0.139        0.029       46.128        9.911        0.046      330.907       -1.418      864.740
12/28/2013  01:56:00       19.541        5.908        4.833       20.855       11.017       10.674      434.925      121.375      113.930        0.056        0.034       20.414        5.176        0.064      330.839       -1.532      864.787
12/28/2013  01:57:00      -20.699       -7.372       -3.134       21.978       18.022        7.247      483.018      324.808       52.523        0.068        0.043       21.973        6.201        0.080      330.824       -1.556      864.824
12/28/2013  01:58:00      -22.490      -16.249       -1.780       10.578        8.251        7.260      111.901       68.078       52.707        0.050        0.012       27.746        6.295        0.051      330.642       -1.853      864.831
12/28/2013  01:59:00      -42.512       -1.935       -5.636       12.299        6.891        8.556      151.259       47.490       73.198        0.106        0.014       42.556        3.105        0.005      330.678       -1.796      864.824
12/28/2013  02:00:00       -7.388        6.729       10.195        8.601        8.995        9.461       73.975       80.911       89.515        0.022        0.012        9.993        5.515        0.305      330.647       -1.846      864.794
12/28/2013  02:01:00       -0.994       24.877        0.763       14.767       19.397        8.404      218.063      376.246       70.633        0.064        0.033       24.897        7.249        0.085      330.870       -1.481      864.783
12/28/2013  02:02:00      -34.762        0.908       -4.114       22.304       13.734        7.348      497.488      188.633       53.992        0.098        0.037       34.774        7.551        0.047      330.782       -1.624      864.803
12/28/2013  02:03:00      -55.307      -17.809       -8.432       10.722       11.483        6.986      114.954      131.864       48.803        0.187        0.015       58.103        3.621        0.004      330.579       -1.958      864.845
12/28/2013  02:04:00      -74.792       -3.310       -6.826       15.713       10.567        8.455      246.906      111.661       71.494        0.304        0.022       74.865        5.758        0.006      330.488       -2.106      864.891
12/28/2013  02:05:00      -70.493        3.903       -8.910       12.375        6.513        7.576      153.145       42.421       57.403        0.266        0.013       70.601        5.266        0.006      330.506       -2.077      864.887
12/28/2013  02:06:00      -34.467        6.147       -1.322       11.476        6.461        6.081      131.691       41.744       36.980        0.072        0.011       35.011        4.396        0.016      330.687       -1.782      864.863
12/28/2013  02:07:00      -33.923      -23.192       -3.482       14.147       15.129        4.623      200.142      228.884       21.369        0.108        0.023       41.093        4.293        0.011      330.719       -1.727      864.874
12/28/2013  02:08:00      -73.824      -19.478      -12.359       13.152       15.799        6.187      172.986      249.593       38.281        0.322        0.023       76.350        3.476        0.002      330.509       -2.071      864.886
12/28/2013  02:09:00      -61.499       -6.063       -9.510       20.660       12.435       11.762      426.815      154.641      138.348        0.231        0.036       61.798       10.812        0.031      330.450       -2.170      864.884
12/28/2013  02:10:00      -18.822        6.040       -1.646       10.770        6.907        7.018      115.998       47.711       49.254        0.030        0.011       19.767        6.442        0.106      330.366       -2.308      864.854
12/28/2013  02:11:00      -25.185        4.433       -1.602       10.097        4.685        5.224      101.949       21.949       27.285        0.040        0.008       25.572        4.120        0.026      330.654       -1.835      864.823
12/28/2013  02:12:00      -28.781       22.278       -2.547       14.316       12.235        8.644      204.957      149.698       74.724        0.088        0.021       36.396        4.274        0.014      330.673       -1.804      864.831
12/28/2013  02:13:00      -24.887        6.746       -0.502       16.437       13.165        8.158      270.184      173.328       66.550        0.059        0.026       25.785        7.045        0.075      330.569       -1.975      864.859
12/28/2013  02:14:00      -32.686       -9.314       -6.022        9.171        5.369        6.205       84.108       28.825       38.502        0.067        0.008       33.987        5.827        0.029      330.463       -2.148      864.898
12/28/2013  02:15:00      -40.856      -11.739       -5.757        8.827        6.267        5.887       77.919       39.271       34.658        0.100        0.008       42.509        4.173        0.010      330.377       -2.293      864.912
12/28/2013  02:16:00      -33.863       -2.170       -2.932        8.254        4.868        4.425       68.134       23.693       19.583        0.064        0.006       33.932        2.007        0.003      330.536       -2.028      864.910
12/28/2013  02:17:00      -43.100       -1.056       -7.996        4.909        5.309        4.490       24.095       28.187       20.158        0.100        0.004       43.113        3.321        0.006      330.438       -2.190      864.930
12/28/2013  02:18:00      -60.867      -13.735      -13.986       12.289       10.182        9.454      151.024      103.678       89.371        0.222        0.017       62.398        7.891        0.016      330.361       -2.314      864.954
12/28/2013  02:19:00      -81.060      -13.464      -11.923       16.576        7.814       10.140      274.767       61.066      102.825        0.367        0.022       82.170        8.799        0.011      330.258       -2.484      864.982
12/28/2013  02:20:00      -64.505       -6.856      -10.405       19.914       12.919       12.762      396.570      166.897      162.866        0.252        0.036       64.868       10.982        0.029      330.201       -2.577      864.981
12/28/2013  02:21:00      -62.979       -6.085       -6.536       20.790       10.102       10.822      432.241      102.057      117.117        0.235        0.033       63.272        9.757        0.024      330.188       -2.600      864.968
12/28/2013  02:22:00      -88.145      -32.037      -10.989       18.370       15.429       10.236      337.457      238.050      104.769        0.480        0.034       93.787        7.654        0.007      330.144       -2.672      864.980
12/28/2013  02:23:00     -112.006      -37.916      -15.465       21.637       17.727       15.421      468.141      314.256      237.821        0.762        0.051      118.249        8.866        0.006      330.082       -2.773      865.010
12/28/2013  02:24:00      -64.448      -36.185       -9.160       23.318       20.959       13.301      543.726      439.268      176.923        0.335        0.058       73.911       10.902        0.022      330.087       -2.766      864.997
12/28/2013  02:25:00      -72.930       -2.381       -2.143       20.462       17.157       13.480      418.699      294.353      181.719        0.311        0.045       72.969       11.993        0.027      330.135       -2.688      864.969
12/28/2013  02:26:00      -46.555      -15.502       -7.748       25.906       13.773       14.186      671.114      189.706      201.248        0.176        0.053       49.069       12.318        0.063      330.175       -2.620      864.972
12/28/2013  02:27:00      -41.836      -20.908        2.238       41.562       18.888       22.677     1727.414      356.745      514.241        0.239        0.130       46.770       28.101        0.361      330.159       -2.647      864.983
12/28/2013  02:28:00     -103.924      -47.463      -13.845       18.151       18.648       15.427      329.456      347.757      237.989        0.708        0.046      114.250        8.229        0.005      330.105       -2.736      864.984
12/28/2013  02:29:00     -136.605      -25.178      -11.740       18.837       14.244       14.880      354.832      202.890      221.423        1.011        0.039      138.906        9.463        0.005      330.120       -2.710      864.985
12/28/2013  02:30:00     -102.143      -47.409       -3.226       23.720       21.487       14.330      562.652      461.697      205.348        0.696        0.061      112.609       11.123        0.010      330.169       -2.630      864.981
12/28/2013  02:31:00     -108.312      -54.074      -11.458       16.399       16.984       12.838      268.929      288.451      164.805        0.775        0.036      121.060        6.080        0.003      330.135       -2.686      864.975
12/28/2013  02:32:00     -102.941      -41.401      -12.475       16.341       23.359       13.781      267.033      545.621      189.918        0.673        0.050      110.954        8.822        0.006      330.169       -2.630      864.961
12/28/2013  02:33:00      -68.631      -23.584       -5.928       20.561       16.483       10.384      422.739      271.679      107.821        0.305        0.040       72.570        7.826        0.012      330.093       -2.756      864.936
12/28/2013  02:34:00      -47.551      -22.526       -4.340       12.363        7.338        5.627      152.839       53.840       31.663        0.151        0.012       52.617        3.550        0.005      330.163       -2.641      864.906
12/28/2013  02:35:00      -75.096      -38.339       -6.468       27.857       11.165        8.287      775.986      124.647       68.675        0.406        0.048       84.316        7.506        0.008      330.341       -2.348      864.873
12/28/2013  02:36:00     -119.396      -35.684       -1.101       18.572       14.103       12.480      344.920      198.902      155.746        0.811        0.035      124.614        8.376        0.005      330.336       -2.356      864.862
12/28/2013  02:37:00     -100.139      -43.573       -1.615       19.592       14.704       12.866      383.863      216.201      165.527        0.635        0.038      109.208       12.457        0.013      330.251       -2.496      864.844
12/28/2013  02:38:00      -72.201      -13.615        2.680       20.223       15.588       10.913      408.973      242.999      119.084        0.309        0.039       73.473       11.732        0.025      330.204       -2.574      864.835
12/28/2013  02:39:00      -98.714      -20.578       -5.270       18.770       16.658       12.943      352.302      277.495      167.521        0.550        0.040      100.837       10.795        0.011      330.132       -2.691      864.858
12/28/2013  02:40:00     -108.772      -18.835      -10.871       11.615       14.624       13.727      134.915      213.869      188.423        0.642        0.027      110.391        8.522        0.006      330.081       -2.773      864.875
12/28/2013  02:41:00      -91.104      -11.400       -2.631       28.742       13.587       14.453      826.129      184.594      208.881        0.483        0.061       91.815       15.885        0.030      330.005       -2.900      864.878
12/28/2013  02:42:00      -86.114      -21.649       -2.140       23.124       18.187       13.243      534.724      330.769      175.365        0.446        0.052       88.794       12.323        0.019      330.028       -2.862      864.879
12/28/2013  02:43:00     -112.560      -35.003       -4.079       17.264       18.098       12.276      298.058      327.533      150.697        0.734        0.039      117.877        8.366        0.005      330.111       -2.725      864.882
12/28/2013  02:44:00     -130.046      -52.023       -0.986       23.616       26.502       15.698      557.727      702.339      246.429        1.056        0.075      140.066       12.113        0.007      330.021       -2.872      864.910
12/28/2013  02:45:00     -142.423      -48.919       -4.505       37.761       29.694       20.047     1425.930      881.726      401.864        1.270        0.135      150.591       19.676        0.017      329.942       -3.003      864.949
12/28/2013  02:46:00     -130.372      -17.223      -10.301       18.812       22.266       15.648      353.878      495.755      244.866        0.925        0.055      131.505       11.542        0.008      329.857       -3.142      864.983
12/28/2013  02:47:00     -100.011      -10.183       -7.540       36.384       25.324       20.447     1323.807      641.283      418.088        0.627        0.119      100.528       17.648        0.031      329.882       -3.099      864.981
12/28/2013  02:48:00      -95.430      -34.570       -3.244       37.408       30.517       18.225     1399.354      931.298      332.136        0.649        0.133      101.499       16.809        0.027      329.893       -3.082      864.970
12/28/2013  02:49:00      -91.492      -32.073       -3.333       41.816       32.663       24.712     1748.588     1066.903      610.665        0.642        0.171       96.951       24.728        0.065      329.851       -3.151      864.965
12/28/2013  02:50:00     -114.570      -23.452       -9.674       27.563       23.559       14.758      759.718      555.040      217.802        0.765        0.077      116.945       10.562        0.008      329.839       -3.171      864.982
12/28/2013  02:51:00      -93.597      -12.976       -1.349       41.317       36.650       24.927     1707.065     1343.192      621.332        0.630        0.184       94.492       26.633        0.079      329.766       -3.290      864.994
12/28/2013  02:52:00      -99.748      -25.713       -3.945       39.976       34.361       22.278     1598.107     1180.659      496.314        0.695        0.164      103.009       23.377        0.052      329.815       -3.210      864.987
12/28/2013  02:53:00     -105.158      -16.150       -7.667       39.285       30.049       19.715     1543.313      902.948      388.681        0.711        0.142      106.391       14.781        0.019      329.893       -3.083      864.966
12/28/2013  02:54:00      -90.571      -50.768       -1.353       25.251       29.288       17.711      637.605      857.787      313.680        0.630        0.090      103.829       13.341        0.017      329.918       -3.041      864.957
12/28/2013  02:55:00     -100.130      -33.553       -2.936       35.089       33.363       21.343     1231.260     1113.086      455.532        0.698        0.140      105.602       20.661        0.038      329.883       -3.099      864.964
12/28/2013  02:56:00     -129.252      -34.266       -4.326       40.670       35.974       19.525     1654.008     1294.150      381.231        1.061        0.166      133.717       17.873        0.018      329.893       -3.082      864.984
12/28/2013  02:57:00     -160.131      -14.501      -15.618       56.253       32.209       23.406     3164.445     1037.405      547.846        1.542        0.237      160.786       25.009        0.024      329.871       -3.119      864.991
12/28/2013  02:58:00     -158.787        3.287      -14.366       42.115       40.736       19.386     1773.662     1659.457      375.822        1.462        0.190      158.821       18.266        0.013      329.934       -3.015      864.990
12/28/2013  02:59:00     -137.849       -7.350       -7.603       45.586       36.900       24.563     2078.099     1361.596      603.346        1.158        0.202      138.045       23.957        0.030      329.876       -3.110      864.985
12/28/2013  03:00:00     -171.211       12.221      -13.090       32.389       31.878       17.257     1049.037     1016.237      297.814        1.600        0.118      171.647       14.300        0.007      329.923       -3.033      864.984
12/28/2013  03:01:00     -150.459       36.742       -7.372       37.113       28.221       21.067     1377.392      796.407      443.799        1.333        0.131      154.881       14.101        0.008      329.956       -2.980      864.973
12/28/2013  03:02:00     -150.348       39.025       -0.953       46.113       30.723       25.424     2126.453      943.885      646.390        1.392        0.186      155.331       20.664        0.018      330.068       -2.795      864.972
12/28/2013  03:03:00     -156.099       45.078      -12.934       55.365       26.905       20.781     3065.260      723.900      431.830        1.539        0.211      162.478       20.921        0.017      330.171       -2.629      864.973
12/28/2013  03:04:00     -129.046       -8.769      -14.104       36.181       29.551       21.224     1309.077      873.274      450.478        0.978        0.132      129.344       18.599        0.021      330.030       -2.859      864.979
12/28/2013  03:05:00     -142.669        8.025      -16.150       47.929       34.723       25.205     2297.197     1205.695      635.274        1.241        0.207      142.894       21.762        0.023      330.031       -2.857      864.987
12/28/2013  03:06:00     -178.531       20.994      -15.631       57.541       29.961       19.582     3310.928      897.686      383.446        1.857        0.230      179.761       18.867        0.011      330.067       -2.798      864.979
12/28/2013  03:07:00     -173.829        4.785      -13.399       49.422       38.624       26.357     2442.538     1491.820      694.694        1.752        0.231      173.895       26.897        0.024      330.093       -2.755      864.961
12/28/2013  03:08:00     -113.083        1.906       -8.699       35.441       34.676       22.729     1256.099     1202.421      516.615        0.792        0.149      113.099       19.365        0.029      329.985       -2.930      864.939
12/28/2013  03:09:00      -88.724      -19.008       -8.945       34.095       39.629       22.575     1162.481     1570.418      509.653        0.578        0.162       90.738       18.004        0.039      329.926       -3.031      864.925
12/28/2013  03:10:00     -105.023        1.895      -10.229       41.208       34.956       21.704     1698.081     1221.948      471.057        0.726        0.170      105.041       18.686        0.032      329.993       -2.917      864.927
12/28/2013  03:11:00     -125.595        1.626      -11.360       49.559       26.719       22.174     2456.133      713.892      491.702        0.978        0.183      125.605       23.160        0.034      330.018       -2.877      864.938
12/28/2013  03:12:00     -148.015      -24.878      -18.249       27.980       36.678       21.380      782.892     1345.254      457.106        1.272        0.129      150.091       15.928        0.011      330.002       -2.903      864.932
12/28/2013  03:13:00     -147.729       -7.278      -14.513       61.244       37.384       25.564     3750.826     1397.595      653.505        1.394        0.290      147.908       29.639        0.040      329.869       -3.121      864.927
12/28/2013  03:14:00     -190.701       31.405      -14.427       32.881       26.685       18.441     1081.161      712.079      340.058        1.985        0.107      193.269       14.347        0.006      329.896       -3.079      864.927
12/28/2013  03:15:00     -118.656        6.690       -9.665       35.054       24.893       21.375     1228.798      619.679      456.882        0.826        0.115      118.844       15.505        0.017      329.814       -3.211      864.911
12/28/2013  03:16:00     -165.264       35.737      -12.415       29.811       34.103       19.765      888.720     1162.999      390.641        1.559        0.122      169.084       12.069        0.005      329.941       -3.004      864.892
12/28/2013  03:17:00     -174.296       36.134      -12.008       22.106       22.519       15.850      488.682      507.127      251.216        1.654        0.062      178.003       12.019        0.005      329.892       -3.084      864.893
12/28/2013  03:18:00     -167.571       44.960       -3.590       45.325       30.258       18.598     2054.356      915.572      345.873        1.671        0.166      173.498       19.008        0.012      329.927       -3.026      864.885
12/28/2013  03:19:00     -135.574       15.537       -9.836       28.446       35.134       17.568      809.171     1234.421      308.625        1.053        0.118      136.462       11.991        0.008      329.962       -2.968      864.871
12/28/2013  03:20:00     -136.999       18.901       -8.081       60.339       30.204       20.757     3640.768      912.258      430.869        1.209        0.249      138.296       27.856        0.041      329.972       -2.952      864.854
12/28/2013  03:21:00     -158.353        1.391      -17.639       42.738       28.925       20.906     1826.571      836.653      437.067        1.424        0.155      158.360       19.257        0.015      329.980       -2.940      864.831
12/28/2013  03:22:00     -109.469       -1.789       -6.168       27.067       26.429       20.839      732.647      698.490      434.281        0.694        0.093      109.483       15.636        0.020      329.888       -3.091      864.810
12/28/2013  03:23:00     -110.036        3.627       -7.716       46.520       23.320       21.376     2164.127      543.821      456.950        0.767        0.158      110.096       20.335        0.034      329.904       -3.065      864.827
12/28/2013  03:24:00     -116.583       -5.390       -9.624       44.195       28.251       19.296     1953.227      798.133      372.329        0.842        0.156      116.707       19.822        0.029      329.827       -3.191      864.858
12/28/2013  03:25:00      -91.980      -19.157       -3.001       35.244       25.777       18.825     1242.117      664.451      354.388        0.555        0.113       93.954       21.120        0.051      329.841       -3.167      864.877
12/28/2013  03:26:00      -50.620      -32.575       -1.398       37.916       20.482       17.754     1437.621      419.531      315.205        0.290        0.109       60.196       16.927        0.079      329.864       -3.130      864.890
12/28/2013  03:27:00     -101.894      -29.717       -5.379       37.012       29.319       14.799     1369.889      859.618      219.004        0.687        0.122      106.139       17.532        0.027      329.829       -3.189      864.925
12/28/2013  03:28:00     -113.543      -24.551      -11.181       23.506       20.873       15.846      552.513      435.695      251.083        0.743        0.062      116.167       12.993        0.013      329.884       -3.099      864.954
12/28/2013  03:29:00     -116.275      -36.489      -12.704       22.587       22.623       13.084      510.165      511.786      171.197        0.810        0.060      121.866       11.092        0.008      329.881       -3.102      864.997
12/28/2013  03:30:00     -115.267      -47.076      -14.914       29.323       29.714       13.876      859.817      882.896      192.552        0.883        0.097      124.509       10.571        0.007      329.845       -3.160      865.029
12/28/2013  03:31:00      -67.893      -42.898      -10.727       28.219       21.753       15.120      796.299      473.203      228.620        0.403        0.075       80.310        4.973        0.004      329.900       -3.071      865.023
12/28/2013  03:32:00      -67.759      -39.177       -3.260       40.202       20.585       16.124     1616.201      423.736      259.988        0.422        0.115       78.269       20.645        0.070      329.909       -3.057      864.976
12/28/2013  03:33:00      -95.240      -41.138       -7.302       15.968       13.145       13.222      254.966      172.791      174.814        0.571        0.030      103.744       10.518        0.010      329.927       -3.027      864.927
12/28/2013  03:34:00      -95.878      -39.743       -9.986       15.855       13.253       12.592      251.367      175.649      158.555        0.573        0.029      103.788        7.362        0.005      330.005       -2.899      864.900
12/28/2013  03:35:00      -90.405      -37.889       -7.285       14.911       12.628        8.904      222.351      159.468       79.286        0.506        0.023       98.024        6.431        0.004      330.024       -2.868      864.896
12/28/2013  03:36:00      -88.986      -32.937      -12.824       14.627       16.802        8.932      213.939      282.321       79.774        0.487        0.029       94.886        6.064        0.004      330.002       -2.904      864.895
12/28/2013  03:37:00      -73.412      -43.175       -9.932       18.534       16.215        9.870      343.515      262.929       97.408        0.403        0.035       85.167        5.531        0.004      329.989       -2.924      864.890
12/28/2013  03:38:00      -71.256      -43.076       -8.017       11.965       15.741        9.503      143.151      247.794       90.315        0.374        0.024       83.264        5.394        0.004      329.943       -3.001      864.915
12/28/2013  03:39:00      -82.787      -14.741       -6.765       26.214       16.948       12.488      687.193      287.234      155.945        0.412        0.057       84.089       11.093        0.017      329.899       -3.073      864.963
12/28/2013  03:40:00      -85.222      -22.058      -10.005       16.992       17.587       14.088      288.715      309.295      198.485        0.432        0.040       88.030        9.932        0.013      329.835       -3.177      864.990
12/28/2013  03:41:00      -90.687      -25.279       -8.964       18.095       17.825       14.996      327.445      317.735      224.871        0.491        0.044       94.145        9.911        0.011      329.831       -3.184      864.991
12/28/2013  03:42:00      -97.213      -27.039       -7.705       14.109       12.074       11.779      199.051      145.785      138.750        0.536        0.024      100.904        3.935        0.002      329.887       -3.093      864.975
12/28/2013  03:43:00      -95.965      -27.078       -2.987       28.339       23.651       19.117      803.098      559.351      365.449        0.584        0.086       99.712       17.709        0.032      329.790       -3.252      864.957
12/28/2013  03:44:00      -96.596      -36.148       -3.760       14.835       22.249        8.816      220.089      495.029       77.725        0.572        0.040      103.138        5.482        0.003      329.775       -3.274      864.943
12/28/2013  03:45:00      -96.721      -20.184       -6.508       20.879       17.502       12.705      435.921      306.308      161.408        0.535        0.045       98.804        9.375        0.009      329.794       -3.245      864.961
12/28/2013  03:46:00     -133.979      -56.676       -6.542       20.003       24.730       15.164      400.111      611.580      229.940        1.122        0.062      145.474       11.298        0.006      329.704       -3.392      864.985
12/28/2013  03:47:00     -135.513      -65.749       -3.740       18.754       17.375       13.977      351.710      301.876      195.347        1.177        0.042      150.621       12.112        0.006      329.722       -3.362      864.959
12/28/2013  03:48:00     -133.706      -43.872       -6.150       26.412       22.911       18.273      697.611      524.913      333.908        1.070        0.078      140.720       15.140        0.012      329.744       -3.326      864.945
12/28/2013  03:49:00      -74.512      -41.233        2.600       43.063       26.109       16.489     1854.384      681.660      271.899        0.503        0.140       85.160       18.288        0.046      329.816       -3.209      864.950
12/28/2013  03:50:00     -113.632      -46.140       -3.194       32.378       27.201       13.374     1048.355      739.886      178.868        0.851        0.098      122.642       14.287        0.014      329.886       -3.094      864.948
12/28/2013  03:51:00     -123.792      -38.391       -4.158       31.413       19.760       17.051      986.753      390.453      290.738        0.924        0.083      129.608       18.319        0.020      329.894       -3.082      864.954
12/28/2013  03:52:00     -106.008      -18.523       -5.650       21.259       22.659       16.933      451.948      513.429      286.716        0.643        0.063      107.614        9.215        0.007      329.758       -3.302      864.965
12/28/2013  03:53:00     -132.787      -23.227      -10.125       20.367       16.560       15.379      414.830      274.238      236.508        0.960        0.046      134.803        9.615        0.005      329.696       -3.405      864.955
12/28/2013  03:54:00     -122.734      -50.860       -4.756       24.563       19.529       13.811      603.356      381.364      190.754        0.942        0.059      132.855       12.988        0.010      329.784       -3.262      864.925
12/28/2013  03:55:00     -124.214      -59.310       -0.029       23.626       28.129       17.728      558.175      791.219      314.272        1.030        0.083      137.647       14.260        0.011      329.835       -3.178      864.905
12/28/2013  03:56:00      -68.668      -51.979        2.619       31.310       33.310       21.449      980.313     1109.575      460.047        0.499        0.127       86.123       13.402        0.024      329.854       -3.146      864.899
12/28/2013  03:57:00      -75.982      -41.436       -5.173       22.815       16.840       14.174      520.525      283.588      200.908        0.426        0.050       86.546       13.152        0.023      329.983       -2.936      864.885
12/28/2013  03:58:00     -117.782      -37.092      -14.701       19.404       22.271       14.447      376.524      495.982      208.704        0.827        0.054      123.485       11.523        0.009      329.839       -3.171      864.894
12/28/2013  03:59:00      -93.910      -24.268      -15.799       25.463       12.499       14.253      648.380      156.216      203.143        0.533        0.050       96.995       14.403        0.022      329.721       -3.363      864.934
12/28/2013  04:00:00       -6.780      -23.932       -2.880       16.184       11.105        8.083      261.915      123.316       65.328        0.054        0.023       24.874        3.249        0.017      329.866       -3.127      864.942
12/28/2013  04:01:00      -34.022       23.111       -4.823       13.590       21.197        7.982      184.699      449.320       63.709        0.121        0.035       41.130        9.806        0.057      329.793       -3.248      864.957
12/28/2013  04:02:00      -97.590       22.734       -9.131       37.500       23.399       18.786     1406.235      547.496      352.904        0.621        0.115      100.203       14.727        0.022      329.784       -3.261      865.004
12/28/2013  04:03:00      -51.784       -7.148       -5.358       23.929       20.660       13.598      572.601      426.850      184.907        0.197        0.059       52.275       12.251        0.055      329.698       -3.401      865.006
12/28/2013  04:04:00      -49.563       -8.053       -2.103       13.135       20.206       13.895      172.530      408.291      193.060        0.165        0.039       50.213       12.666        0.064      329.748       -3.320      864.975
12/28/2013  04:05:00      -51.134      -37.112       -4.115       17.732       12.760        8.399      314.416      162.806       70.548        0.228        0.027       63.182        3.729        0.003      329.967       -2.962      864.953
12/28/2013  04:06:00      -62.204      -29.916       -4.967       24.147       14.078       11.718      583.067      198.189      137.306        0.285        0.046       69.024        7.437        0.012      329.792       -3.246      864.907
12/28/2013  04:07:00      -37.460      -18.489       -1.661        9.015        7.947        6.889       81.266       63.162       47.460        0.097        0.010       41.774        5.747        0.019      329.847       -3.157      864.881
12/28/2013  04:08:00      -43.786      -16.068       -4.023        7.216        6.400        4.275       52.070       40.958       18.277        0.115        0.006       46.641        3.447        0.005      330.029       -2.861      864.886
12/28/2013  04:09:00      -45.495      -17.143       -8.209        9.256        8.027        7.642       85.676       64.426       58.402        0.132        0.010       48.618        5.364        0.012      329.906       -3.061      864.904
12/28/2013  04:10:00      -60.317       -0.633       -7.426       14.850        9.158        8.882      220.523       83.869       78.887        0.204        0.019       60.320        4.442        0.005      329.812       -3.215      864.960
12/28/2013  04:11:00      -59.434       -6.170       -7.202       13.288       12.507       11.296      176.584      156.432      127.596        0.204        0.023       59.753        9.647        0.026      329.719       -3.368      864.996
12/28/2013  04:12:00      -52.630      -13.189       -6.587        8.474        9.525        5.799       71.806       90.732       33.627        0.159        0.010       54.257        2.259        0.002      329.778       -3.271      864.981
12/28/2013  04:13:00      -59.142      -25.700       -8.538        7.071        7.111        5.188       50.002       50.571       26.920        0.218        0.006       64.485        1.878        0.001      329.789       -3.254      864.981
12/28/2013  04:14:00        2.137       -2.572       10.347       37.612       18.396       12.336     1414.665      338.419      152.168        0.101        0.095        3.344       19.424       33.739      329.805       -3.227      864.972
12/28/2013  04:15:00       65.106       38.273        2.319       29.943       17.962       20.185      896.594      322.622      407.446        0.367        0.081       75.522       10.570        0.020      329.890       -3.088      864.965
12/28/2013  04:16:00       29.302       34.253       -1.333       30.728       40.179       22.066      944.195     1614.376      486.922        0.254        0.152       45.076       21.492        0.227      329.700       -3.399      864.983
12/28/2013  04:17:00       50.209       27.198        4.758       26.535       23.811       20.044      704.110      566.964      401.749        0.248        0.084       57.102       13.894        0.059      329.516       -3.698      864.964
12/28/2013  04:18:00       17.349       42.993       -2.333       22.361       27.214       18.614      500.011      740.596      346.481        0.187        0.079       46.361       16.066        0.120      329.566       -3.617      864.943
12/28/2013  04:19:00       22.693       55.927       -9.997       12.823       16.534        8.137      164.417      273.378       66.205        0.212        0.025       60.356        6.503        0.012      329.647       -3.485      864.908
12/28/2013  04:20:00        9.128       12.174        0.237        8.753        9.334        9.362       76.608       87.118       87.639        0.024        0.013       15.216        8.310        0.298      329.664       -3.458      864.860
12/28/2013  04:21:00      -16.652       -1.148        5.394       16.096        7.754        7.146      259.065       60.130       51.064        0.034        0.019       16.691        8.038        0.232      329.706       -3.389      864.846
12/28/2013  04:22:00      -74.874        2.353       -8.425       18.472       10.203        9.550      341.218      104.101       91.211        0.311        0.027       74.911       10.419        0.019      329.639       -3.497      864.867
12/28/2013  04:23:00      -65.645       -6.387       -3.329       23.390       18.014       12.908      547.105      324.490      166.623        0.270        0.052       65.955       12.233        0.034      329.488       -3.745      864.910
12/28/2013  04:24:00      -90.113       -5.027       -9.665       20.620       14.305       12.847      425.196      204.623      165.041        0.452        0.040       90.253        8.862        0.010      329.505       -3.717      864.949
12/28/2013  04:25:00      -65.893       -5.037      -11.361       26.313       16.604       16.566      692.364      275.684      274.433        0.287        0.062       66.086       13.359        0.041      329.436       -3.829      864.997
12/28/2013  04:26:00      -33.440       12.649       -8.916       21.335       21.044        8.829      455.183      442.830       77.954        0.117        0.049       35.752        5.342        0.022      329.428       -3.844      865.029
12/28/2013  04:27:00        1.537       40.105       -8.936       21.589       27.141       12.712      466.099      736.636      161.590        0.153        0.068       40.135       15.168        0.143      329.736       -3.340      865.018
12/28/2013  04:28:00       35.840       33.765        1.301       16.217       10.924       13.732      262.978      119.334      188.579        0.150        0.029       49.240       10.302        0.044      329.643       -3.491      864.996
12/28/2013  04:29:00       34.147       30.488        1.859       12.967       14.062        6.563      168.154      197.748       43.075        0.125        0.020       45.777        3.447        0.006      329.777       -3.271      864.993
12/28/2013  04:30:00       14.792       36.084       -2.904       11.395       10.811        5.673      129.856      116.872       32.187        0.090        0.014       38.998        5.763        0.022      329.857       -3.142      865.036
12/28/2013  04:31:00       11.808       38.742       -4.933        9.110       18.118        6.574       82.994      328.253       43.215        0.106        0.023       40.502        8.700        0.046      329.872       -3.117      865.061
12/28/2013  04:32:00        9.267       57.095       -4.191       16.508       17.561       10.487      272.505      308.390      109.975        0.203        0.035       57.843       10.004        0.030      329.809       -3.218      865.057
12/28/2013  04:33:00       40.998       30.967       -0.936       17.444       14.069       12.443      304.300      197.930      154.829        0.165        0.033       51.379        8.579        0.028      329.813       -3.214      865.013
12/28/2013  04:34:00       37.555       17.156       -2.401        9.942        7.836       11.428       98.844       61.398      130.596        0.100        0.015       41.288        6.615        0.026      329.817       -3.205      864.972
12/28/2013  04:35:00        3.156        3.907       -6.394        5.380        4.821        4.917       28.946       23.246       24.173        0.007        0.004        5.022        3.105        0.382      329.827       -3.190      864.936
12/28/2013  04:36:00        5.747       14.283       -1.677       10.216       19.789        8.188      104.369      391.618       67.050        0.040        0.028       15.396        5.243        0.116      329.890       -3.089      864.923
12/28/2013  04:37:00       15.516       41.313       -0.273        8.901        9.296        6.241       79.222       86.420       38.954        0.108        0.010       44.131        5.136        0.014      329.921       -3.037      864.935
12/28/2013  04:38:00       27.619       42.869       -6.261       10.313       10.289        9.227      106.358      105.871       85.133        0.147        0.015       50.996        6.636        0.017      329.844       -3.165      864.955
12/28/2013  04:39:00       17.993       49.109       -8.907       10.494       11.050        6.857      110.117      122.102       47.023        0.155        0.014       52.301        4.448        0.007      329.822       -3.199      864.970
12/28/2013  04:40:00        7.926       51.779       -9.820       18.728       15.248        5.855      350.741      232.494       34.281        0.173        0.031       52.382        8.064        0.024      329.902       -3.068      864.974
12/28/2013  04:41:00       10.503       61.508       -2.467       20.816       26.926       12.212      433.294      725.034      149.124        0.260        0.065       62.398       11.511        0.034      329.936       -3.012      864.967
12/28/2013  04:42:00       14.033       44.376        4.854       18.489       25.667       15.994      341.830      658.775      255.810        0.172        0.063       46.542       14.722        0.100      329.922       -3.035      864.975
12/28/2013  04:43:00       30.547       85.798      -15.102       20.282       22.988       14.073      411.365      528.425      198.043        0.483        0.057       91.074        6.057        0.004      329.818       -3.204      864.966
12/28/2013  04:44:00       35.007       51.128       -3.342       25.792       26.846       15.823      665.239      720.699      250.366        0.274        0.082       61.965       14.117        0.052      329.841       -3.168      864.930
12/28/2013  04:45:00       45.934       39.964       10.020       14.891        8.164       13.655      221.755       66.649      186.461        0.214        0.024       60.886       10.010        0.027      329.799       -3.237      864.916
12/28/2013  04:46:00       39.364       30.666        5.655       17.791       18.843       12.023      316.506      355.070      144.563        0.167        0.041       49.899        5.760        0.013      329.767       -3.286      864.920
12/28/2013  04:47:00       36.764       71.516       -4.431       16.463       35.340       21.061      271.016     1248.935      443.567        0.422        0.098       80.413       21.301        0.070      329.727       -3.354      864.929
12/28/2013  04:48:00       18.341       99.711      -14.997       22.775       22.342       15.064      518.695      499.156      226.916        0.587        0.062      101.384       14.143        0.019      329.774       -3.277      864.946
12/28/2013  04:49:00        8.074      107.074      -14.761       11.332       15.972        9.389      128.404      255.119       88.156        0.611        0.024      107.378        6.641        0.004      329.865       -3.129      864.948
12/28/2013  04:50:00       16.973      101.572      -12.121       13.168       16.353       10.587      173.400      267.411      112.087        0.565        0.028      102.981        9.265        0.008      329.892       -3.086      864.941
12/28/2013  04:51:00       10.040      138.644      -22.859       12.950       22.827        9.663      167.691      521.081       93.371        1.031        0.039      139.007        8.530        0.004      329.967       -2.962      864.958
12/28/2013  04:52:00      -10.693      152.566      -20.779       15.071       16.649        9.653      227.145      277.181       93.190        1.221        0.030      152.940        6.428        0.002      330.007       -2.896      864.973
12/28/2013  04:53:00      -17.528      127.694      -14.415       14.662       15.286       10.689      214.982      233.676      114.254        0.869        0.028      128.891        5.990        0.002      330.189       -2.598      864.974
12/28/2013  04:54:00        9.054      118.660      -14.053       11.893       17.474        6.740      141.447      305.333       45.434        0.743        0.025      119.005        2.694        0.001      330.342       -2.346      864.959
12/28/2013  04:55:00      -12.503      119.871      -16.533       16.330       24.120       11.373      266.658      581.756      129.353        0.789        0.049      120.522        4.867        0.002      330.287       -2.438      864.985
12/28/2013  04:56:00      -40.368       52.810      -14.435       15.495       32.883       13.871      240.087     1081.260      192.407        0.307        0.076       66.472       12.015        0.033      330.111       -2.725      865.020
12/28/2013  04:57:00        9.767       35.345       -0.304       27.487       20.936       14.784      755.541      438.311      218.567        0.138        0.071       36.670       14.087        0.148      330.316       -2.389      865.015
12/28/2013  04:58:00       15.468        6.128        2.453       22.003       19.713       12.840      484.120      388.603      164.868        0.066        0.052       16.637       15.342        0.850      330.117       -2.715      865.026
12/28/2013  04:59:00       11.613       13.761        6.135       10.187        7.393        7.985      103.771       54.657       63.754        0.029        0.011       18.006        6.427        0.127      330.142       -2.675      865.037
12/28/2013  05:00:00       22.330        9.383        1.382        7.578       10.953        5.033       57.421      119.971       25.330        0.040        0.010       24.221        3.965        0.027      330.294       -2.423      865.029
12/28/2013  05:01:00       16.335       13.279        2.414        6.532        8.977        6.482       42.661       80.592       42.017        0.031        0.008       21.051        2.882        0.019      330.324       -2.377      865.021
12/28/2013  05:02:00       35.910       18.603       10.910        7.654        6.578        7.872       58.589       43.270       61.961        0.096        0.008       40.443        3.581        0.008      330.270       -2.464      865.021
12/28/2013  05:03:00       46.413       13.812        3.277        9.883        7.753        5.293       97.675       60.106       28.019        0.127        0.009       48.425        1.887        0.002      330.250       -2.496      865.011
12/28/2013  05:04:00       20.628        2.866        0.633       10.086        5.338        5.643      101.719       28.499       31.844        0.030        0.008       20.826        3.207        0.024      330.273       -2.460      865.004
12/28/2013  05:05:00       12.062       -0.355        7.585        8.059        6.760        7.086       64.946       45.696       50.205        0.018        0.008       12.067        5.398        0.200      330.291       -2.431      864.985
12/28/2013  05:06:00        0.283      -15.581       14.775        7.239       18.497       15.148       52.405      342.153      229.449        0.054        0.031       15.584        6.902        0.196      330.117       -2.716      864.987
12/28/2013  05:07:00      -24.003      -37.553        9.231       25.198       22.349       21.126      634.924      499.460      446.318        0.183        0.079       44.569       10.334        0.054      330.034       -2.852      865.016
12/28/2013  05:08:00      -56.736      -21.420       -5.109        7.428        7.320        7.069       55.179       53.582       49.976        0.193        0.008       60.645        3.056        0.003      329.715       -3.373      865.044
12/28/2013  05:09:00      -44.670      -27.908       -3.310       10.455        9.180        6.156      109.301       84.270       37.900        0.151        0.012       52.671        2.613        0.002      329.630       -3.513      865.049
12/28/2013  05:10:00      -54.939      -28.313       -6.673       10.331        9.487        4.796      106.737       90.011       23.001        0.204        0.011       61.805        2.191        0.001      329.754       -3.308      865.043
12/28/2013  05:11:00      -74.637      -11.276      -11.450        7.768        6.567        5.857       60.341       43.126       34.300        0.298        0.007       75.484        2.922        0.001      329.598       -3.566      865.055
12/28/2013  05:12:00      -74.186      -12.813       -9.336       12.078       10.113       10.934      145.884      102.269      119.553        0.306        0.018       75.284        6.817        0.008      329.631       -3.511      865.070
12/28/2013  05:13:00     -105.522      -30.444       -9.412       16.746       12.653        9.769      280.443      160.098       95.429        0.634        0.027      109.826        4.679        0.002      329.609       -3.548      865.083
12/28/2013  05:14:00     -138.178      -30.066      -11.700       27.323       18.820       16.223      746.563      354.190      263.174        1.075        0.068      141.412       15.259        0.012      329.472       -3.770      865.094
12/28/2013  05:15:00     -112.702      -45.914      -19.057       19.363       18.294       16.657      374.935      334.657      277.440        0.808        0.049      121.695        6.884        0.003      329.391       -3.905      865.112
12/28/2013  05:16:00     -108.725      -42.516       -6.369       27.435       20.454       16.278      752.665      418.360      264.966        0.755        0.072      116.743       13.970        0.014      329.476       -3.765      865.120
12/28/2013  05:17:00      -77.659      -31.385        0.978       27.506       18.842       12.764      756.575      355.007      162.926        0.415        0.064       83.761       15.069        0.032      329.448       -3.809      865.139
12/28/2013  05:18:00      -50.682      -22.475       -4.905       10.879        8.359        6.521      118.355       69.877       42.520        0.166        0.012       55.442        2.756        0.002      329.536       -3.667      865.169
12/28/2013  05:19:00      -49.065      -32.093       -5.383       14.289       10.183        9.484      204.165      103.683       89.938        0.193        0.020       58.629        8.838        0.023      329.601       -3.561      865.197
12/28/2013  05:20:00      -77.070      -50.522       -7.271       17.016       16.976       12.821      289.554      288.182      164.384        0.464        0.037       92.153        8.839        0.009      329.542       -3.657      865.205
12/28/2013  05:21:00     -110.721      -41.192        1.032       29.721       20.491       14.425      883.310      419.861      208.085        0.773        0.076      118.135       10.880        0.008      329.554       -3.637      865.218
12/28/2013  05:22:00     -119.912      -23.801       -8.334       15.953       16.364        9.663      254.483      267.781       93.365        0.782        0.031      122.251        7.335        0.004      329.495       -3.733      865.231
12/28/2013  05:23:00     -113.031      -30.910       -2.668       22.444       13.949       12.960      503.715      194.562      167.958        0.730        0.043      117.181       13.079        0.012      329.422       -3.853      865.221
12/28/2013  05:24:00      -91.872      -35.887        0.991       24.310       19.328       13.632      590.961      373.575      185.821        0.544        0.058       98.632       10.296        0.011      329.395       -3.898      865.202
12/28/2013  05:25:00     -112.597      -44.779        0.468       40.038       19.136       16.957     1603.015      366.196      287.543        0.847        0.113      121.175       18.799        0.024      329.329       -4.005      865.197
12/28/2013  05:26:00      -76.254      -27.409       -0.832       35.614       24.751       14.177     1268.380      612.612      201.000        0.432        0.104       81.030       13.142        0.026      329.324       -4.014      865.207
12/28/2013  05:27:00      -62.590      -22.610        2.741       26.854       22.055       16.114      721.147      486.424      259.665        0.295        0.073       66.548       16.034        0.058      329.415       -3.864      865.228
12/28/2013  05:28:00      -91.640      -24.917       -6.520       16.772       14.557        9.842      281.302      211.918       96.870        0.483        0.030       94.967        8.906        0.009      329.553       -3.639      865.265
12/28/2013  05:29:00      -97.235      -34.294       -6.729       12.748       14.702        9.914      162.509      216.147       98.286        0.558        0.024      103.105        7.431        0.005      329.564       -3.622      865.295
12/28/2013  05:30:00      -66.377      -22.832        1.262       35.667       19.631       11.851     1272.103      385.392      140.444        0.336        0.090       70.194       13.792        0.039      329.509       -3.713      865.315
12/28/2013  05:31:00      -43.927      -11.868        1.774       19.565       11.451       10.058      382.808      131.134      101.162        0.134        0.031       45.502       11.806        0.067      329.642       -3.493      865.359
12/28/2013  05:32:00      -16.024      -26.944       -0.086       13.328       10.224        7.471      177.624      104.532       55.817        0.066        0.017       31.349        5.510        0.031      329.865       -3.127      865.405
12/28/2013  05:33:00       -9.193      -31.119        4.607        9.071        9.867        8.250       82.286       97.364       68.057        0.066        0.012       32.448        6.754        0.043      329.993       -2.920      865.443
12/28/2013  05:34:00      -27.275      -15.099       -4.771        4.967        4.606        3.729       24.671       21.211       13.906        0.053        0.003       31.176        1.941        0.004      329.997       -2.914      865.475
12/28/2013  05:35:00      -46.225      -22.303        0.012       12.367       10.788        9.062      152.935      116.377       82.111        0.149        0.018       51.324        4.956        0.009      329.848       -3.157      865.491
12/28/2013  05:36:00      -30.151      -12.536        0.146       14.926       12.779        7.327      222.791      163.298       53.682        0.075        0.022       32.654        7.691        0.055      329.603       -3.558      865.498
12/28/2013  05:37:00        4.933      -12.512        5.595        7.355        6.578        6.255       54.098       43.274       39.121        0.017        0.007       13.449        4.334        0.104      329.724       -3.359      865.496
12/28/2013  05:38:00        0.506      -14.809        5.975        7.023       11.610        6.719       49.316      134.781       45.140        0.024        0.011       14.818        4.900        0.109      329.898       -3.073      865.481
12/28/2013  05:39:00       -0.510        1.361       15.581        7.031       22.490       10.885       49.434      505.798      118.490        0.046        0.034        1.454       13.641       88.069      329.836       -3.175      865.475
12/28/2013  05:40:00       -1.809       19.996       30.302        8.105       14.854        8.103       65.691      220.637       65.660        0.084        0.018       20.078        9.009        0.201      329.652       -3.477      865.489
12/28/2013  05:41:00       -1.566        3.594       27.219        8.664       10.515        9.003       75.064      110.570       81.052        0.051        0.013        3.920        7.962        4.124      329.727       -3.354      865.504
12/28/2013  05:42:00      -20.829      -16.018        7.291       19.119        9.571       10.738      365.549       91.601      115.312        0.066        0.029       26.276       12.322        0.220      329.608       -3.550      865.534
12/28/2013  05:43:00      -54.565      -11.981       -4.506       15.715        8.049        7.767      246.960       64.782       60.323        0.176        0.019       55.865        3.748        0.005      329.575       -3.603      865.564
12/28/2013  05:44:00      -63.854       -5.641        1.445       22.279       15.640       13.030      496.371      244.612      169.773        0.251        0.046       64.103       11.011        0.030      329.511       -3.707      865.606
12/28/2013  05:45:00      -77.972       -9.306       -4.695       19.193       21.295       12.846      368.364      453.491      165.023        0.359        0.049       78.526       11.007        0.020      329.484       -3.751      865.647
12/28/2013  05:46:00      -31.755      -22.943       -0.989       18.744       15.809       10.669      351.337      249.933      113.827        0.113        0.036       39.176        9.526        0.059      329.444       -3.817      865.685
12/28/2013  05:47:00      -28.848       -8.889       -7.163        8.748       11.911        7.379       76.525      141.874       54.453        0.062        0.014       30.186        5.652        0.035      329.453       -3.803      865.711
12/28/2013  05:48:00      -54.278       -5.432       -3.006       15.763       15.374        9.521      248.482      236.371       90.651        0.178        0.029       54.549        6.065        0.012      329.434       -3.834      865.724
12/28/2013  05:49:00      -68.744      -10.272       -8.027       19.408       18.747       12.198      376.667      351.462      148.796        0.289        0.044       69.507        7.509        0.012      329.447       -3.811      865.749
12/28/2013  05:50:00      -61.319      -18.546       -4.317       11.584       11.046        6.469      134.199      122.010       41.853        0.221        0.015       64.062        6.155        0.009      329.404       -3.883      865.773
12/28/2013  05:51:00      -79.714      -17.854       -9.535       12.518       10.265        8.730      156.706      105.379       76.217        0.355        0.017       81.689        2.696        0.001      329.408       -3.875      865.769
12/28/2013  05:52:00      -50.661        3.173       -0.987       23.486       15.980       11.197      551.594      255.345      125.366        0.175        0.047       50.760       12.893        0.065      329.343       -3.984      865.778
12/28/2013  05:53:00      -34.826        0.609        2.605       19.445       16.724       11.550      378.103      279.693      133.398        0.101        0.040       34.831       10.202        0.086      329.293       -4.064      865.790
12/28/2013  05:54:00      -66.386       -1.014      -11.637       20.847       12.423       11.721      434.609      154.328      137.379        0.263        0.036       66.394       11.030        0.028      329.288       -4.071      865.789
12/28/2013  05:55:00      -74.562       13.656       -9.275       16.154       11.918        9.126      260.945      142.035       83.287        0.316        0.024       75.803        4.873        0.004      329.290       -4.070      865.798
12/28/2013  05:56:00      -74.241       21.164       -2.426       21.886       13.961        8.740      478.991      194.907       76.379        0.336        0.038       77.199        6.245        0.007      329.187       -4.236      865.820
12/28/2013  05:57:00      -76.095       -2.814      -10.118       13.206       12.667        8.498      174.394      160.444       72.211        0.315        0.020       76.147        6.533        0.007      329.254       -4.128      865.825
12/28/2013  05:58:00      -64.981       -9.365       -2.451       34.329       23.511       12.561     1178.508      552.755      157.767        0.310        0.094       65.652       10.775        0.027      329.185       -4.240      865.838
12/28/2013  05:59:00      -56.043      -14.983        2.433       30.575       20.436       15.129      934.809      417.623      228.899        0.248        0.079       58.012       14.898        0.066      329.090       -4.395      865.860
12/28/2013  06:00:00      -58.310      -14.478       -0.995       25.708       21.944       15.696      660.894      481.525      246.354        0.250        0.069       60.081       14.956        0.062      329.074       -4.421      865.876
12/28/2013  06:01:00      -31.038      -13.343        1.193       18.644       18.740       11.894      347.583      351.177      141.462        0.099        0.042       33.784        7.741        0.052      329.159       -4.283      865.897
12/28/2013  06:02:00      -51.213       -6.802       -2.517       20.880       15.164       11.110      435.956      229.937      123.443        0.173        0.039       51.663       11.629        0.051      329.204       -4.208      865.917
12/28/2013  06:03:00      -49.360      -10.432       -2.400       33.341       17.396       13.473     1111.598      302.609      181.509        0.207        0.080       50.450       14.667        0.085      329.152       -4.294      865.917
12/28/2013  06:04:00     -117.051      -28.611        1.655       28.606       25.618       15.733      818.314      656.289      247.533        0.812        0.086      120.497       15.323        0.016      329.076       -4.418      865.898
12/28/2013  06:05:00     -122.399      -50.592       -1.042       29.736       30.384       14.152      884.229      923.189      200.266        0.977        0.100      132.443       13.999        0.011      329.098       -4.382      865.880
12/28/2013  06:06:00     -135.098      -59.799        3.627       37.831       27.395       19.062     1431.148      750.478      363.378        1.219        0.127      147.741       17.882        0.015      329.126       -4.335      865.864
12/28/2013  06:07:00     -137.472      -30.141       -7.650       36.268       23.551       18.543     1315.356      554.671      343.847        1.104        0.111      140.737       17.483        0.015      329.056       -4.451      865.882
12/28/2013  06:08:00     -133.970      -25.454      -11.791       38.390       22.316       18.894     1473.790      498.006      356.977        1.053        0.116      136.367       20.678        0.023      328.985       -4.567      865.911
12/28/2013  06:09:00      -85.396        6.384       -3.677       50.102       34.004       20.833     2510.234     1156.286      434.027        0.572        0.205       85.634       24.577        0.082      329.011       -4.524      865.948
12/28/2013  06:10:00      -85.831      -12.180       -7.994       42.256       39.969       26.117     1785.565     1597.553      682.073        0.582        0.203       86.691       15.164        0.031      328.951       -4.623      865.970
12/28/2013  06:11:00      -97.452       14.133       -8.674       54.390       41.199       24.392     2958.301     1697.374      594.978        0.751        0.263       98.471       22.890        0.054      328.997       -4.548      865.981
12/28/2013  06:12:00     -104.778        1.896        1.627       48.559       39.872       24.915     2358.014     1589.785      620.738        0.778        0.228      104.796       15.587        0.022      329.063       -4.440      866.001
12/28/2013  06:13:00     -105.874      -23.385       -6.063       30.669       28.232       18.603      940.557      797.061      346.085        0.694        0.104      108.425       15.087        0.019      329.117       -4.351      866.006
12/28/2013  06:14:00      -93.652      -54.741        2.330       30.172       38.243       18.007      910.333     1462.554      324.237        0.723        0.135      108.477       10.434        0.009      329.125       -4.339      865.999
12/28/2013  06:15:00     -124.467      -57.675       -3.113       27.139       23.468       17.957      736.549      550.735      322.469        1.022        0.080      137.180       15.890        0.013      329.074       -4.421      865.983
12/28/2013  06:16:00      -94.357      -40.092       -7.073       15.395       39.009       11.622      236.993     1521.700      135.082        0.623        0.095      102.521       12.058        0.014      329.007       -4.532      865.986
12/28/2013  06:17:00      -60.552        0.099       -0.939       22.199       14.705        9.281      492.778      216.225       86.142        0.223        0.040       60.552        9.460        0.024      329.007       -4.531      866.005
12/28/2013  06:18:00      -22.187      -19.169       -6.199       14.146       10.378        6.643      200.123      107.710       44.126        0.062        0.018       29.321        4.841        0.027      329.181       -4.246      866.010
12/28/2013  06:19:00      -57.904      -29.799       -0.132       19.544       10.567        9.760      381.983      111.667       95.267        0.241        0.029       65.122        8.868        0.019      329.325       -4.010      866.008
12/28/2013  06:20:00      -83.866      -42.930        5.013       24.089       19.932       16.524      580.269      397.292      273.033        0.508        0.063       94.215        7.734        0.007      329.132       -4.327      866.003
12/28/2013  06:21:00     -116.366      -63.241       -3.946       26.184       24.323       15.302      685.618      591.598      234.150        0.953        0.076      132.441       14.794        0.012      329.177       -4.253      866.005
12/28/2013  06:22:00     -122.356      -65.711        4.136       50.456       33.311       23.080     2545.834     1109.640      532.671        1.175        0.209      138.885       21.080        0.023      329.243       -4.145      865.995
12/28/2013  06:23:00     -101.262      -56.222       10.179       50.106       36.285       30.307     2510.629     1316.569      918.528        0.913        0.237      115.823       25.328        0.048      329.232       -4.163      865.991
12/28/2013  06:24:00      -98.782      -69.514       -0.270       41.015       30.816       21.271     1682.264      949.638      452.457        0.884        0.154      120.790       20.691        0.029      329.376       -3.927      865.997
12/28/2013  06:25:00      -63.486      -68.373       -2.475       21.546       27.855       14.879      464.222      775.921      221.389        0.509        0.073       93.303       16.186        0.030      329.600       -3.563      866.030
12/28/2013  06:26:00      -71.281      -67.046       -2.119       19.723       19.422       10.490      388.990      377.230      110.048        0.523        0.044       97.858       11.110        0.013      329.774       -3.276      866.080
12/28/2013  06:27:00      -94.301      -40.126       -7.095       18.517       17.023       13.958      342.897      289.779      194.831        0.569        0.041      102.483       10.826        0.011      329.795       -3.243      866.128
12/28/2013  06:28:00     -108.246      -17.381      -12.766       18.948       18.513       12.440      359.010      342.718      154.750        0.652        0.043      109.633        7.896        0.005      329.565       -3.618      866.164
12/28/2013  06:29:00     -135.685      -57.751       -0.529       40.416       26.726       19.184     1633.483      714.257      368.032        1.223        0.136      147.464       16.562        0.013      329.335       -3.996      866.166
12/28/2013  06:30:00      -89.820      -50.405        2.908       60.922       32.303       22.756     3711.431     1043.494      517.838        0.794        0.264      102.996       25.016        0.059      329.217       -4.189      866.143
12/28/2013  06:31:00     -109.168      -53.811        2.403       34.716       24.599       19.411     1205.168      605.112      376.780        0.850        0.109      121.710       18.271        0.023      329.320       -4.022      866.132
12/28/2013  06:32:00      -49.857      -39.840        2.237       41.421       25.051       19.949     1715.702      627.535      397.945        0.341        0.137       63.820       17.940        0.079      329.197       -4.221      866.156
12/28/2013  06:33:00      -57.476      -67.852       -1.952       26.035       22.744       13.275      677.819      517.312      176.226        0.464        0.069       88.924        5.209        0.003      329.321       -4.019      866.173
12/28/2013  06:34:00      -99.123     -105.693       -3.917       48.463       34.043       28.933     2348.615     1158.935      837.110        1.268        0.217      144.901       25.408        0.031      329.293       -4.064      866.168
12/28/2013  06:35:00     -113.286      -75.901        6.452       47.172       38.602       26.177     2225.239     1490.090      685.251        1.152        0.220      136.362       25.231        0.034      329.310       -4.035      866.183
12/28/2013  06:36:00      -78.057      -43.956        4.535       59.942       31.106       27.168     3593.033      967.553      738.127        0.667        0.265       89.583       24.195        0.073      329.192       -4.230      866.218
12/28/2013  06:37:00      -21.642      -29.817        6.052       34.199       31.673       18.704     1169.591     1003.170      349.825        0.196        0.126       36.843       18.395        0.249      329.238       -4.152      866.240
12/28/2013  06:38:00      -65.492      -61.816        4.762       35.847       27.783       20.506     1285.010      771.875      420.500        0.530        0.124       90.058       23.000        0.065      329.377       -3.927      866.240
12/28/2013  06:39:00      -24.681      -48.527        2.561       38.410       28.516       19.828     1475.297      813.180      393.139        0.283        0.134       54.443       19.273        0.125      329.586       -3.585      866.271
12/28/2013  06:40:00       20.517       13.246       12.425       32.712       33.479       25.027     1070.100     1120.830      626.362        0.178        0.141       24.421       27.068        1.229      329.429       -3.842      866.323
12/28/2013  06:41:00       92.253       41.105       19.121       36.009       26.394       27.275     1296.675      696.648      743.947        0.665        0.137      100.996       13.465        0.018      329.357       -3.959      866.384
12/28/2013  06:42:00       61.536       31.195       24.026       20.027       23.748       24.484      401.071      563.966      599.457        0.345        0.078       68.991        8.474        0.015      329.412       -3.870      866.422
12/28/2013  06:43:00       26.651       18.384       22.798       28.301       15.724       16.207      800.950      247.234      262.659        0.144        0.066       32.377       17.453        0.291      329.450       -3.806      866.427
12/28/2013  06:44:00      -46.502       -6.464       -1.290       17.781        9.130        9.988      316.151       83.353       99.760        0.135        0.025       46.949       10.335        0.048      329.454       -3.801      866.444
12/28/2013  06:45:00      -72.305      -12.655       -8.890       24.759       22.916       13.161      612.986      525.130      173.208        0.339        0.066       73.404       11.858        0.026      329.337       -3.992      866.467
12/28/2013  06:46:00      -43.632       12.437       -1.563       20.681       20.373       11.572      427.713      415.061      133.911        0.152        0.049       45.370       11.199        0.061      329.132       -4.328      866.506
12/28/2013  06:47:00       -8.268       26.576        5.927       16.847       16.368       11.206      283.822      267.912      125.583        0.074        0.034       27.833        9.643        0.120      329.331       -4.002      866.558
12/28/2013  06:48:00       31.520       53.054        6.254       15.543       32.411       13.012      241.593     1050.501      169.304        0.265        0.073       61.711       16.889        0.075      329.433       -3.835      866.594
12/28/2013  06:49:00       61.070       72.146      -11.836       10.591       13.342       10.571      112.176      178.020      111.736        0.474        0.020       94.523        7.548        0.006      329.231       -4.165      866.617
12/28/2013  06:50:00       64.548       42.684        2.737       16.765       15.623       13.347      281.069      244.074      178.136        0.335        0.035       77.384        8.591        0.012      329.143       -4.309      866.633
12/28/2013  06:51:00       79.385       41.380        5.789       25.765       24.470       25.055      663.815      598.777      627.734        0.497        0.095       89.523       14.646        0.027      328.978       -4.580      866.673
12/28/2013  06:52:00       59.159       53.458       -2.620       31.018       25.029       14.989      962.142      626.461      224.681        0.409        0.091       79.734        9.426        0.014      328.830       -4.818      866.703
12/28/2013  06:53:00       40.728       42.941       -7.222       19.626       18.956       16.258      385.186      359.313      264.337        0.228        0.050       59.184       12.247        0.043      328.904       -4.700      866.706
12/28/2013  06:54:00       20.458       40.674       -3.190        9.671       14.027        9.839       93.534      196.764       96.808        0.124        0.019       45.530        7.589        0.028      329.055       -4.453      866.690
12/28/2013  06:55:00      -44.364       29.091       -4.787       28.051       14.996        9.180      786.858      224.868       84.263        0.197        0.055       53.051       10.068        0.036      329.082       -4.410      866.692
12/28/2013  06:56:00      -97.181        0.115      -12.174       18.036       18.227       14.050      325.310      332.229      197.414        0.522        0.043       97.182        8.812        0.008      328.891       -4.721      866.702
12/28/2013  06:57:00     -101.866      -38.015      -10.167       14.295       18.448       11.909      204.341      340.344      141.828        0.631        0.034      108.728        7.215        0.004      329.006       -4.532      866.695
12/28/2013  06:58:00      -67.579       -2.229       -9.963       18.461       13.420        7.511      340.800      180.100       56.411        0.262        0.029       67.616        7.609        0.013      329.178       -4.253      866.696
12/28/2013  06:59:00      -24.521        0.457       -3.594       16.766       10.747        6.702      281.094      115.501       44.917        0.053        0.022       24.525        7.956        0.105      329.155       -4.290      866.713
12/28/2013  07:00:00        6.197       16.780        6.557        6.672       14.927        8.327       44.522      222.804       69.343        0.035        0.017       17.888        6.384        0.127      329.350       -3.968      866.720
12/28/2013  07:01:00        9.400        2.891        9.929       10.297        8.412        7.838      106.030       70.761       61.436        0.022        0.012        9.835        5.722        0.338      329.535       -3.670      866.723
12/28/2013  07:02:00       22.220       22.567       15.289       20.431       18.828       11.074      417.406      354.494      122.624        0.107        0.045       31.670       11.657        0.135      329.345       -3.978      866.749
12/28/2013  07:03:00       62.705       32.170        0.350       30.389       24.951       22.210      923.505      622.547      493.278        0.350        0.102       70.476       14.885        0.045      329.072       -4.426      866.809
12/28/2013  07:04:00       29.648       28.692       -3.490       38.270       22.750       19.249     1464.587      517.558      370.542        0.203        0.118       41.258       12.463        0.091      328.877       -4.745      866.861
12/28/2013  07:05:00        1.076       49.052      -13.577       12.597       20.452        7.630      158.692      418.265       58.213        0.161        0.032       49.064       10.067        0.042      329.130       -4.331      866.865
12/28/2013  07:06:00      -37.483       16.397      -10.503       33.805       38.664       17.566     1142.760     1494.938      308.579        0.236        0.147       40.912       19.563        0.229      329.237       -4.156      866.836
12/28/2013  07:07:00      -43.638      -25.797       -6.573       12.118       14.091        8.994      146.848      198.563       80.885        0.152        0.021       50.693        6.533        0.017      328.971       -4.589      866.826
12/28/2013  07:08:00      -39.137      -27.984       -2.408       14.575       10.644       10.092      212.428      113.289      101.854        0.137        0.021       48.112        8.527        0.031      328.965       -4.599      866.834
12/28/2013  07:09:00      -62.106      -25.307       -9.584       19.114        9.911        6.703      365.333       98.224       44.925        0.255        0.025       67.064        4.218        0.004      328.947       -4.629      866.833
12/28/2013  07:10:00     -108.029      -14.461      -14.576       17.826       10.606       10.967      317.762      112.488      120.275        0.632        0.028      108.993       11.364        0.011      329.003       -4.538      866.822
12/28/2013  07:11:00     -144.065      -34.754      -17.698       23.569       16.293       14.959      555.495      265.462      223.780        1.166        0.052      148.197       12.294        0.007      328.911       -4.687      866.813
12/28/2013  07:12:00     -140.685      -20.858      -13.113       25.255       16.909       15.317      637.818      285.924      234.617        1.078        0.058      142.223       13.556        0.009      328.789       -4.887      866.811
12/28/2013  07:13:00     -119.356      -34.712      -10.062       19.485       21.024       11.838      379.653      441.996      140.127        0.826        0.048      124.301       11.705        0.009      328.693       -5.045      866.812
12/28/2013  07:14:00      -88.035      -23.644       -0.046       23.950       18.805       13.832      573.625      353.613      191.315        0.471        0.056       91.155       11.557        0.016      328.815       -4.845      866.806
12/28/2013  07:15:00      -61.906      -20.211        3.530       34.850       20.773       13.338     1214.510      431.530      177.906        0.304        0.091       65.122       15.369        0.056      329.082       -4.409      866.800
12/28/2013  07:16:00      -70.039      -36.102       -5.816       15.460       18.919       12.751      238.999      357.935      162.599        0.350        0.038       78.796        8.200        0.011      329.097       -4.383      866.810
12/28/2013  07:17:00      -58.023      -37.424       -2.929       17.032       11.391       10.539      290.095      129.756      111.067        0.265        0.027       69.045        5.007        0.005      329.047       -4.465      866.821
12/28/2013  07:18:00      -37.890      -23.910        3.281       22.916       18.682       11.384      525.133      349.020      129.600        0.151        0.050       44.804       10.610        0.056      329.086       -4.403      866.846
12/28/2013  07:19:00       -8.554      -10.186       -1.652        8.751        8.392        6.311       76.578       70.425       39.825        0.018        0.009       13.301        4.330        0.106      329.186       -4.240      866.883
12/28/2013  07:20:00      -15.490      -23.700       -0.796       16.771       16.310        9.730      281.266      266.009       94.664        0.072        0.032       28.313        6.005        0.045      329.312       -4.033      866.926
12/28/2013  07:21:00       -3.833      -33.711        1.475        6.844       18.412       11.394       46.842      338.996      129.814        0.083        0.026       33.929        5.506        0.026      329.454       -3.801      866.946
12/28/2013  07:22:00      -17.997      -41.079      -11.349       20.534       20.692       12.523      421.642      428.152      156.817        0.157        0.050       44.848        8.784        0.038      329.406       -3.880      866.956
12/28/2013  07:23:00      -40.907      -16.638       -4.713       16.023       10.460        7.537      256.737      109.410       56.804        0.120        0.021       44.161        5.011        0.013      329.240       -4.151      866.971
12/28/2013  07:24:00      -25.974      -19.470       -0.409       10.050       13.945        8.337      100.993      194.472       69.501        0.071        0.018       32.461        3.324        0.010      329.213       -4.194      866.992
12/28/2013  07:25:00      -19.099      -16.921        0.335       10.595        7.332        6.060      112.248       53.756       36.724        0.043        0.010       25.517        5.907        0.054      329.212       -4.196      867.021
12/28/2013  07:26:00      -18.049      -24.514        0.845       18.017       12.990        9.523      324.611      168.735       90.679        0.076        0.029       30.442        9.850        0.105      329.302       -4.049      867.038
12/28/2013  07:27:00       -4.277      -15.282        3.430       12.960       12.025        7.406      167.968      144.609       54.855        0.032        0.018       15.870        7.655        0.233      329.436       -3.829      867.055
12/28/2013  07:28:00        3.790       -6.586        9.312       14.625       12.791        7.937      213.882      163.615       62.994        0.029        0.022        7.598        6.590        0.752      329.508       -3.713      867.068
12/28/2013  07:29:00        1.262        3.243        6.735       14.356        9.094        8.366      206.085       82.695       69.998        0.021        0.018        3.480        7.099        4.160      329.570       -3.611      867.098
12/28/2013  07:30:00       15.467        7.749        6.373        5.935        5.822        6.000       35.230       33.897       35.994        0.022        0.005       17.300        3.671        0.045      329.602       -3.559      867.141
12/28/2013  07:31:00        1.771       -0.153        6.686        6.410        2.637        4.884       41.094        6.956       23.858        0.006        0.004        1.778        4.104        5.329      329.520       -3.693      867.165
12/28/2013  07:32:00      -35.072       -7.419       -3.988        8.723        5.364        4.455       76.084       28.772       19.843        0.071        0.006       35.848        4.340        0.015      329.449       -3.809      867.176
12/28/2013  07:33:00      -31.369      -16.587       -2.529       10.497        5.763        5.972      110.179       33.209       35.660        0.072        0.009       35.484        4.065        0.013      329.434       -3.835      867.184
12/28/2013  07:34:00      -36.925      -12.855       -5.546        8.264        7.021        4.131       68.288       49.289       17.066        0.085        0.007       39.098        2.889        0.005      329.343       -3.984      867.193
12/28/2013  07:35:00      -45.126        2.889       -3.053        5.203        5.717        2.998       27.069       32.686        8.986        0.106        0.003       45.219        1.624        0.001      329.283       -4.079      867.209
12/28/2013  07:36:00      -61.709        0.324       -4.185        7.038        7.172        5.870       49.538       51.444       34.454        0.198        0.007       61.709        3.861        0.004      329.310       -4.035      867.216
12/28/2013  07:37:00      -53.810        0.924       -3.757       11.732        9.958        4.754      137.651       99.156       22.598        0.158        0.013       53.818        2.742        0.003      329.271       -4.099      867.241
12/28/2013  07:38:00      -34.412       19.650       -6.143       14.342       11.095       10.222      205.698      123.099      104.490        0.102        0.022       39.627        9.291        0.055      329.297       -4.056      867.266
12/28/2013  07:39:00      -21.487       19.331        4.915       17.462       17.895       14.609      304.911      320.240      213.431        0.085        0.042       28.903       14.272        0.244      329.526       -3.683      867.268
12/28/2013  07:40:00      -29.984       41.312       -4.981       19.378       17.395       13.657      375.510      302.576      186.507        0.175        0.043       51.046       10.532        0.043      329.516       -3.699      867.283
12/28/2013  07:41:00      -17.852       32.538       -3.018       11.007       12.555       11.235      121.162      157.627      126.218        0.090        0.020       37.114        5.364        0.021      329.545       -3.652      867.302
12/28/2013  07:42:00      -26.219       44.115        1.526       17.455       19.770       14.767      304.679      390.865      218.055        0.177        0.046       51.318       12.122        0.056      329.567       -3.615      867.324
12/28/2013  07:43:00      -24.040       59.652       -5.350       27.706       30.737       16.795      767.645      944.763      282.058        0.308        0.100       64.314       11.580        0.032      329.326       -4.010      867.322
12/28/2013  07:44:00      -32.882       72.756       -2.724       29.752       45.115       19.823      885.165     2035.377      392.971        0.485        0.166       79.841       12.897        0.026      329.227       -4.171      867.321
12/28/2013  07:45:00      -11.157       21.864        4.016       14.338       18.813       13.176      205.565      353.935      173.595        0.068        0.037       24.546       10.303        0.176      329.407       -3.879      867.335
12/28/2013  07:46:00        7.180       56.275       -0.094       14.230       20.761       13.731      202.492      431.001      188.535        0.202        0.041       56.731       12.701        0.050      329.248       -4.138      867.352
12/28/2013  07:47:00        3.689       69.260       -6.560        8.011        9.219        5.743       64.182       84.988       32.986        0.252        0.009       69.358        3.796        0.003      329.165       -4.275      867.354
12/28/2013  07:48:00       -7.303       67.574       -6.261       11.984       15.426       10.098      143.627      237.961      101.968        0.257        0.024       67.967        9.304        0.019      329.166       -4.272      867.352
12/28/2013  07:49:00       -1.754      113.704      -10.046       20.087       25.043        9.859      403.495      627.171       97.191        0.708        0.056      113.718       10.854        0.009      329.198       -4.219      867.352
12/28/2013  07:50:00       12.127       87.361       -9.900       19.311       32.010       19.926      372.904     1024.643      397.055        0.484        0.090       88.199       19.789        0.050      329.207       -4.205      867.365
12/28/2013  07:51:00        5.249       41.664        0.973       18.054       32.450       20.678      325.947     1053.004      427.590        0.179        0.090       41.993       20.860        0.247      329.231       -4.165      867.361
12/28/2013  07:52:00        0.914       96.289       -6.147       10.686       12.838       12.313      114.184      164.816      151.600        0.487        0.022       96.293        9.381        0.009      329.247       -4.139      867.377
12/28/2013  07:53:00       11.608       81.586       -4.192       17.930       18.033       15.905      321.481      325.192      252.977        0.385        0.045       82.407       12.034        0.021      329.281       -4.084      867.380
12/28/2013  07:54:00       49.201       51.084       -4.390       24.791       17.222       16.842      614.609      296.585      283.637        0.312        0.060       70.925       13.911        0.038      329.244       -4.143      867.380
12/28/2013  07:55:00       55.081       49.754        2.057       22.369       21.070       16.605      500.356      443.938      275.731        0.337        0.061       74.225       12.355        0.028      329.282       -4.082      867.386
12/28/2013  07:56:00       40.304       32.477        0.796       19.446       17.588       13.817      378.143      309.346      190.899        0.178        0.044       51.761        9.589        0.034      329.311       -4.036      867.426
12/28/2013  07:57:00       36.945       14.622       -0.179       13.926       10.159       12.459      193.944      103.213      155.226        0.102        0.023       39.733        7.725        0.038      329.375       -3.932      867.452
12/28/2013  07:58:00       73.301       34.881        3.101       15.465       11.436       12.994      239.156      130.783      168.854        0.357        0.027       81.177        6.472        0.006      329.371       -3.938      867.480
12/28/2013  07:59:00       83.500       55.371       20.234       22.310       21.040       22.702      497.740      442.674      515.374        0.595        0.073      100.191       16.940        0.029      329.420       -3.857      867.507
12/28/2013  08:00:00       86.537       39.606       32.674       33.215       42.384       28.225     1103.240     1796.380      796.675        0.691        0.185       95.170       19.348        0.041      329.403       -3.883      867.524
12/28/2013  08:01:00       34.395       26.762       30.721       29.456       23.911       21.415      867.647      571.730      458.606        0.237        0.095       43.580       18.187        0.174      329.447       -3.812      867.488
12/28/2013  08:02:00       41.077       37.082       32.623       28.399       25.443       28.803      806.486      647.364      829.615        0.320        0.114       55.339       22.256        0.162      329.359       -3.957      867.459
12/28/2013  08:03:00      104.302       45.146       16.348       50.935       43.762       42.746     2594.384     1915.111     1827.246        0.976        0.317      113.653       29.554        0.068      329.269       -4.104      867.453
12/28/2013  08:04:00       78.506       36.661       18.725       41.679       31.216       30.793     1737.172      974.420      948.214        0.576        0.183       86.644       22.684        0.069      329.309       -4.038      867.439
12/28/2013  08:05:00       15.562       21.585       24.260       23.147       36.389       19.390      535.768     1324.187      375.969        0.177        0.112       26.610       10.093        0.144      329.481       -3.757      867.418
12/28/2013  08:06:00        5.619       28.373       45.323       22.812       24.620       18.710      520.384      606.159      350.065        0.218        0.074       28.924       18.338        0.402      329.552       -3.640      867.384
12/28/2013  08:07:00       49.358       50.322       40.015       17.964       14.278       17.999      322.703      203.862      323.979        0.371        0.043       70.488        5.503        0.006      329.439       -3.825      867.370
12/28/2013  08:08:00       58.969       70.266       48.265       31.889       19.147       20.309     1016.920      366.598      412.468        0.627        0.090       91.731       15.288        0.028      329.485       -3.751      867.411
12/28/2013  08:09:00       54.769       54.255       34.667       38.670       23.065       35.415     1495.373      532.011     1254.217        0.521        0.164       77.093       23.844        0.096      329.610       -3.546      867.458
12/28/2013  08:10:00       31.671       35.897       34.202       28.028       20.264       22.614      785.559      410.643      511.386        0.258        0.085       47.871       19.947        0.174      329.593       -3.574      867.487
12/28/2013  08:11:00       17.695       27.509       27.880       15.020       15.695       15.857      225.588      246.329      251.435        0.129        0.036       32.709        6.190        0.036      329.635       -3.504      867.504
12/28/2013  08:12:00       46.706       36.321       18.928       18.314       14.086       18.389      335.413      198.421      338.161        0.237        0.044       59.166        8.005        0.018      329.510       -3.709      867.512
12/28/2013  08:13:00       42.146       17.487       -1.208       33.501       13.322       16.392     1122.312      177.473      268.683        0.183        0.078       45.630        6.301        0.019      329.545       -3.651      867.513
12/28/2013  08:14:00        8.453       32.189       -4.677       13.019       18.362       15.713      169.499      337.149      246.897        0.094        0.038       33.280       13.578        0.166      329.737       -3.337      867.509
12/28/2013  08:15:00       36.336       40.318       15.029       39.070       17.123       18.968     1526.447      293.202      359.787        0.268        0.109       54.275       14.130        0.068      329.699       -3.398      867.503
12/28/2013  08:16:00       82.109       65.911       19.101       35.828       22.338       30.659     1283.662      498.964      939.972        0.709        0.136      105.290       23.931        0.052      329.535       -3.668      867.530
12/28/2013  08:17:00       90.483       65.296       17.102       44.514       31.523       31.837     1981.520      993.719     1013.609        0.837        0.199      111.583       27.940        0.063      329.537       -3.664      867.573
12/28/2013  08:18:00       70.077       56.523        6.586       44.188       30.919       19.255     1952.598      956.007      370.761        0.571        0.164       90.031       12.461        0.019      329.475       -3.766      867.596
12/28/2013  08:19:00        1.837       16.624       21.048       10.846       14.296        8.386      117.636      204.379       70.324        0.056        0.020       16.725        6.321        0.143      329.845       -3.161      867.588
12/28/2013  08:20:00       26.776       14.681       19.603       20.939       13.571       14.897      438.426      184.180      221.935        0.108        0.042       30.537        7.137        0.055      329.753       -3.310      867.592
12/28/2013  08:21:00       13.737       34.159       48.770       20.026       28.092       14.840      401.032      789.173      220.229        0.257        0.071       36.817       16.710        0.206      329.860       -3.137      867.594
12/28/2013  08:22:00      -16.689      -20.567       22.580       22.839       21.712       18.324      521.617      471.400      335.759        0.127        0.066       26.486       11.680        0.194      329.948       -2.993      867.596
12/28/2013  08:23:00      -68.201      -15.843       -3.233       21.617       12.238       10.963      467.273      149.768      120.198        0.282        0.037       70.017        9.534        0.019      329.736       -3.339      867.569
12/28/2013  08:24:00      -83.952      -34.312        2.466       21.139       18.249       13.281      446.841      333.038      176.393        0.459        0.048       90.693       10.070        0.012      329.663       -3.460      867.540
12/28/2013  08:25:00      -35.185      -20.433        2.656       43.166       19.953       16.134     1863.331      398.132      260.302        0.209        0.126       40.688       21.198        0.271      329.851       -3.151      867.510
12/28/2013  08:26:00      -40.547      -21.903       -1.927       14.382       12.874        9.955      206.836      165.732       99.100        0.130        0.024       46.084        7.970        0.030      329.790       -3.251      867.515
12/28/2013  08:27:00      -25.156      -10.478        1.105       12.910        8.698        8.187      166.660       75.647       67.031        0.053        0.015       27.250        5.989        0.048      329.935       -3.013      867.518
12/28/2013  08:28:00      -12.290      -24.766        8.543       13.315       18.413       11.906      177.282      339.054      141.762        0.075        0.033       27.648        8.858        0.103      330.027       -2.863      867.535
12/28/2013  08:29:00      -10.689        1.887       16.598       12.184       11.672       10.100      148.459      136.229      102.010        0.039        0.019       10.854       10.429        0.923      330.332       -2.362      867.547
12/28/2013  08:30:00       37.692       42.458       11.027       16.519       14.120       18.013      272.871      199.386      324.476        0.207        0.040       56.775       12.859        0.051      329.994       -2.917      867.554
12/28/2013  08:31:00       -2.539       31.743       12.348       25.130       22.386       21.957      631.541      501.154      482.093        0.139        0.081       31.845       20.373        0.409      330.238       -2.517      867.543
12/28/2013  08:32:00      -10.905       11.984       27.069       17.420       17.163       12.680      303.454      294.577      160.780        0.088        0.038       16.203       10.623        0.430      330.379       -2.286      867.531
12/28/2013  08:33:00      -27.840        7.674        8.032       17.439       10.962       16.563      304.107      120.162      274.335        0.080        0.035       28.878        8.351        0.084      330.194       -2.590      867.536
12/28/2013  08:34:00      -37.953       -3.917        3.660       14.333       18.598        8.271      205.431      345.896       68.402        0.104        0.031       38.154        7.250        0.036      330.118       -2.714      867.559
12/28/2013  08:35:00      -12.342       11.968       11.298        8.460        8.485       10.392       71.579       71.992      107.985        0.034        0.013       17.192        3.906        0.052      330.472       -2.133      867.607
12/28/2013  08:36:00       -9.534       -1.885       15.422       14.046        7.127       12.470      197.289       50.798      155.511        0.037        0.020        9.719       11.611        1.427      330.754       -1.670      867.647
12/28/2013  08:37:00      -18.507        0.363        2.833       10.960        8.747        8.868      120.113       76.509       78.649        0.031        0.014       18.510        7.534        0.166      330.414       -2.229      867.669
12/28/2013  08:38:00      -22.721        8.126       -5.222       12.048        9.783        8.998      145.145       95.699       80.972        0.047        0.016       24.130        6.119        0.064      330.268       -2.467      867.689
12/28/2013  08:39:00      -30.823        2.007        3.423        5.152        4.431        8.750       26.544       19.635       76.557        0.054        0.006       30.888        3.931        0.016      330.204       -2.574      867.699
12/28/2013  08:40:00      -32.123        2.519       -7.279        7.511        5.959        4.969       56.422       35.511       24.692        0.060        0.006       32.222        1.908        0.004      330.187       -2.601      867.704
12/28/2013  08:41:00       -6.454        3.857       15.716        9.180       10.882       20.827       84.269      118.414      433.757        0.047        0.032        7.519       11.532        2.352      330.728       -1.712      867.726
12/28/2013  08:42:00        1.265       29.031       29.087       18.719       22.719       22.771      350.412      516.146      518.531        0.154        0.069       29.058       14.956        0.265      330.695       -1.768      867.773
12/28/2013  08:43:00       26.071       39.162       27.046       41.903       31.112       27.908     1755.879      967.952      778.865        0.322        0.175       47.046       22.235        0.223      330.638       -1.861      867.829
12/28/2013  08:44:00       76.642       47.239        0.117       31.309       33.563       29.764      980.231     1126.445      885.919        0.555        0.150       90.030       20.424        0.051      330.250       -2.497      867.881
12/28/2013  08:45:00       86.100       65.109        6.917       26.399       21.370       27.762      696.909      456.689      770.718        0.681        0.096      107.946       19.352        0.032      330.182       -2.609      867.900
12/28/2013  08:46:00      109.177       69.509       -0.629       20.798       19.571       20.600      432.575      383.013      424.346        0.900        0.062      129.426        7.513        0.003      329.961       -2.973      867.923
12/28/2013  08:47:00      111.511       66.952        3.035       29.974       22.532       26.798      898.414      507.710      718.110        0.952        0.106      130.066       17.379        0.018      329.972       -2.952      867.936
12/28/2013  08:48:00       97.623       70.901        6.194       27.372       22.824       22.792      749.214      520.929      519.467        0.819        0.089      120.653       12.670        0.011      329.985       -2.932      867.945
12/28/2013  08:49:00       68.681       62.303       -1.973       20.106       18.861       17.525      404.233      355.719      307.111        0.483        0.053       92.730       11.346        0.015      330.079       -2.777      867.935
12/28/2013  08:50:00       39.494       48.173        4.215       28.725       28.263       22.877      825.113      798.769      523.342        0.302        0.107       62.293       19.344        0.096      330.374       -2.294      867.925
12/28/2013  08:51:00       36.065       64.424       -3.630       29.132       25.692       21.493      848.678      660.062      461.939        0.372        0.099       73.831       16.770        0.052      330.434       -2.195      867.921
12/28/2013  08:52:00       72.029       64.405        0.416       22.097       19.952       18.386      488.291      398.065      338.053        0.528        0.061       96.624       11.700        0.015      330.101       -2.741      867.915
12/28/2013  08:53:00       -1.287       31.597        8.034       28.585       19.118       16.895      817.082      365.502      285.425        0.127        0.073       31.623       11.323        0.128      330.293       -2.428      867.894
12/28/2013  08:54:00      -24.566       20.052       23.127       18.447       16.421       26.814      340.307      269.640      719.017        0.143        0.066       31.711       14.959        0.223      330.593       -1.935      867.878
12/28/2013  08:55:00      -19.862       20.624        4.069       13.048       14.225       18.376      170.261      202.339      337.692        0.077        0.036       28.633       11.941        0.174      330.360       -2.317      867.873
12/28/2013  08:56:00      -18.933       11.422        8.798       10.390       11.621       15.420      107.961      135.042      237.770        0.052        0.024       22.111        9.251        0.175      330.556       -1.996      867.874
12/28/2013  08:57:00       38.743       30.030       23.767       18.375       19.080       20.412      337.654      364.052      416.638        0.204        0.056       49.019       13.535        0.076      330.762       -1.657      867.873
12/28/2013  08:58:00       40.590       24.916       26.018       19.229       18.431       22.679      369.755      339.717      514.347        0.208        0.061       47.627       10.615        0.050      330.795       -1.604      867.864
12/28/2013  08:59:00       32.085       50.554       25.751       27.299       23.104       28.770      745.212      533.790      827.707        0.318        0.105       59.876       14.855        0.062      330.820       -1.563      867.862
12/28/2013  09:00:00        8.901       13.227       44.039       16.408       14.666        7.954      269.208      215.102       63.266        0.137        0.027       15.943        6.478        0.165      331.056       -1.175      867.850
12/28/2013  09:01:00       42.417       38.999       32.413       23.214       19.875       23.395      538.872      395.031      547.313        0.293        0.074       57.621       12.819        0.049      330.701       -1.758      867.831
12/28/2013  09:02:00        6.685       27.448       62.461       25.695       49.923       21.139      660.226     2492.299      446.874        0.415        0.180       28.250       26.303        0.867      331.080       -1.135      867.816
12/28/2013  09:03:00       38.676      102.074       81.909       58.650       38.297       38.154     3439.826     1466.664     1455.734        1.249        0.318      109.155       38.691        0.126      330.734       -1.703      867.805
12/28/2013  09:04:00       62.077      120.514      100.129       61.776       44.095       39.057     3816.228     1944.391     1525.445        1.784        0.364      135.562       37.341        0.076      330.496       -2.095      867.783
12/28/2013  09:05:00      114.020       93.528       60.663       40.534       47.657       39.268     1643.001     2271.154     1541.974        1.544        0.273      147.473       29.101        0.039      330.381       -2.282      867.762
12/28/2013  09:06:00       49.308       55.276       67.156       33.814       35.420       25.072     1143.402     1254.578      628.602        0.651        0.151       74.073       22.574        0.093      330.618       -1.893      867.750
12/28/2013  09:07:00       58.238       68.809       45.653       29.643       28.899       29.012      878.708      835.138      841.686        0.638        0.128       90.146       15.047        0.028      330.610       -1.906      867.749
12/28/2013  09:08:00       65.444       73.842       33.124       57.766       39.441       37.353     3336.890     1555.559     1395.228        0.856        0.314       98.669       35.064        0.126      330.705       -1.750      867.753
12/28/2013  09:09:00      101.440       69.272       33.728       54.673       45.754       43.202     2989.157     2093.406     1866.451        1.159        0.347      122.836       34.095        0.077      330.643       -1.853      867.765
12/28/2013  09:10:00      115.323       78.867       11.597       38.997       30.060       28.055     1520.778      903.604      787.071        1.143        0.161      139.712       19.473        0.019      330.527       -2.041      867.781
12/28/2013  09:11:00      105.678       88.688       10.266       40.745       25.197       28.964     1660.193      634.902      838.888        1.114        0.157      137.962       19.839        0.021      330.507       -2.076      867.790
12/28/2013  09:12:00       94.819       86.921       43.603       50.640       30.229       42.472     2564.388      913.781     1803.874        1.186        0.264      128.631       37.141        0.083      330.589       -1.941      867.812
12/28/2013  09:13:00       39.209       57.024       62.459       34.823       38.720       29.224     1212.662     1499.260      854.029        0.613        0.178       69.204       22.161        0.103      330.680       -1.790      867.849
12/28/2013  09:14:00       54.885       45.736        3.512       30.604       25.203       25.627      936.590      635.175      656.764        0.367        0.111       71.444       15.675        0.048      330.797       -1.600      867.877
12/28/2013  09:15:00       34.338       51.668       10.819       32.468       34.172       29.649     1054.154     1167.706      879.050        0.353        0.155       62.038       23.866        0.148      330.934       -1.376      867.886
12/28/2013  09:16:00       87.765       69.604       -5.647       20.307       19.663       21.651      412.366      386.637      468.754        0.692        0.063      112.015        9.807        0.008      330.567       -1.977      867.881
12/28/2013  09:17:00      108.792       90.573       -0.712       41.012       20.649       27.471     1681.995      426.374      754.654        1.145        0.143      141.560       17.752        0.016      330.871       -1.478      867.887
12/28/2013  09:18:00       51.594       56.429       31.541       52.693       36.385       37.118     2776.557     1323.849     1377.739        0.616        0.274       76.460       31.771        0.173      331.238       -0.875      867.893
12/28/2013  09:19:00       -3.784       74.089       90.140       26.585       37.056       22.734      706.787     1373.164      516.837        0.811        0.130       74.185       23.097        0.097      331.232       -0.886      867.890
12/28/2013  09:20:00       32.345       54.105       47.326       45.750       33.351       30.368     2093.105     1112.284      922.228        0.517        0.206       63.036       22.629        0.129      331.045       -1.192      867.897
12/28/2013  09:21:00        3.360       56.713       69.022       32.085       28.801       23.990     1029.448      829.526      575.523        0.521        0.122       56.812       16.985        0.089      331.262       -0.836      867.893
12/28/2013  09:22:00       90.859       81.042       46.235       39.893       30.981       33.909     1591.488      959.845     1149.839        1.033        0.185      121.751       15.604        0.016      331.011       -1.249      867.904
12/28/2013  09:23:00       47.494       66.435       75.229       51.153       41.718       35.477     2616.583     1740.406     1258.635        0.897        0.281       81.666       35.497        0.189      330.975       -1.308      867.905
12/28/2013  09:24:00       10.780       26.588       65.548       35.697       56.142       35.531     1274.257     3151.877     1262.445        0.540        0.284       28.690       38.135        1.767      331.266       -0.830      867.900
12/28/2013  09:25:00       13.117       84.120       88.831       36.740       36.801       26.869     1349.817     1354.335      721.920        0.928        0.171       85.137       25.724        0.091      331.073       -1.147      867.914
12/28/2013  09:26:00       25.530       62.066       75.205       37.652       39.233       30.104     1417.666     1539.237      906.252        0.701        0.193       67.111       22.961        0.117      331.103       -1.098      867.936
12/28/2013  09:27:00       61.186      106.711       89.448       41.312       34.792       24.351     1706.681     1210.455      592.973        1.332        0.176      123.008       16.040        0.017      331.031       -1.216      867.956
12/28/2013  09:28:00       77.796       81.213       48.961       56.097       42.006       50.630     3146.856     1764.480     2563.376        1.126        0.374      112.462       44.889        0.159      330.946       -1.355      867.984
12/28/2013  09:29:00       53.891       85.402       81.186       52.559       45.944       46.959     2762.444     2110.885     2205.119        1.193        0.354      100.984       32.143        0.101      331.078       -1.139      868.010
12/28/2013  09:30:00       86.766       82.445       38.956       70.697       49.660       49.473     4998.087     2466.155     2447.539        1.288        0.496      119.689       48.548        0.165      331.057       -1.175      868.025
12/28/2013  09:31:00      125.011       91.881       25.355       34.063       25.544       31.229     1160.300      652.475      975.277        1.375        0.139      155.144       17.193        0.012      330.921       -1.396      868.030
12/28/2013  09:32:00       65.366       44.973       48.378       47.569       39.932       36.875     2262.770     1594.567     1359.751        0.693        0.261       79.343       21.673        0.075      331.215       -0.914      868.033
12/28/2013  09:33:00       97.661       99.360       58.734       35.353       26.795       34.552     1249.803      717.960     1193.853        1.301        0.158      139.320        9.959        0.005      331.030       -1.218      868.027
12/28/2013  09:34:00        4.507       11.701       37.860       26.336       63.035       37.927      693.585     3973.403     1438.421        0.385        0.305       12.539       33.352        7.075      331.345       -0.700      868.010
12/28/2013  09:35:00       51.546       78.071       62.540       39.287       35.415       28.078     1543.489     1254.250      788.349        0.812        0.179       93.553       23.503        0.063      331.048       -1.187      867.990
12/28/2013  09:36:00       61.413       54.257       35.541       37.169       22.586       20.108     1381.552      510.126      404.333        0.514        0.115       81.948       15.479        0.036      331.075       -1.144      867.985
12/28/2013  09:37:00       85.961       87.529       37.103       16.401       14.659       21.493      268.980      214.880      461.969        0.869        0.047      122.681        7.336        0.004      330.924       -1.391      867.994
12/28/2013  09:38:00       92.510       85.253       66.754       37.306       40.659       28.315     1391.763     1653.140      801.765        1.206        0.192      125.802       15.236        0.015      331.194       -0.947      868.034
12/28/2013  09:39:00       76.151       81.759       58.154       47.127       31.423       36.619     2220.929      987.375     1340.965        1.021        0.227      111.729       27.792        0.062      331.296       -0.779      868.060
12/28/2013  09:40:00       67.249       77.699       60.520       57.073       60.857       43.337     3257.319     3703.585     1878.120        1.153        0.442      102.760       37.215        0.131      331.323       -0.736      868.088
12/28/2013  09:41:00      110.621       56.879       47.339       79.599       59.045       45.046     6335.970     3486.348     2029.099        1.478        0.593      124.387       44.840        0.130      331.367       -0.665      868.130
12/28/2013  09:42:00      109.392       98.885       53.186       43.653       40.844       37.897     1905.559     1668.214     1436.145        1.479        0.250      147.461       28.813        0.038      331.151       -1.019      868.173
12/28/2013  09:43:00       21.688       42.581       64.557       29.877       43.332       26.959      892.646     1877.701      726.776        0.497        0.175       47.786       19.081        0.159      331.748       -0.036      868.188
12/28/2013  09:44:00        8.131      -14.471       37.342       17.668       33.051       25.552      312.152     1092.355      652.908        0.186        0.103       16.599        6.960        0.176      331.848        0.126      868.191
12/28/2013  09:45:00        5.176      -32.443       13.903       22.644       49.731       28.046      512.737     2473.160      786.558        0.252        0.189       32.854       27.058        0.678      331.725       -0.074      868.173
12/28/2013  09:46:00       32.023       25.138       46.725       49.917       37.385       29.816     2491.684     1397.667      888.980        0.431        0.239       40.711       30.553        0.563      331.633       -0.225      868.174
12/28/2013  09:47:00       76.558       71.859       33.365       41.339       38.514       39.653     1708.872     1483.345     1572.354        0.845        0.238      104.999       16.246        0.024      331.433       -0.555      868.190
12/28/2013  09:48:00       41.923       80.513       66.757       69.845       43.939       60.106     4878.298     1930.660     3612.750        1.156        0.521       90.773       62.358        0.472      331.551       -0.361      868.219
12/28/2013  09:49:00       56.290       38.914        2.255       41.926       33.194       30.119     1757.764     1101.862      907.147        0.423        0.188       68.431       17.694        0.067      331.869        0.163      868.262
12/28/2013  09:50:00       69.439       65.741        7.903       31.738       31.942       30.299     1007.304     1020.297      918.017        0.608        0.147       95.622       17.650        0.034      331.712       -0.096      868.284
12/28/2013  09:51:00       71.099       39.785        2.826       30.422       28.326       24.928      925.483      802.343      621.411        0.450        0.117       81.474       14.918        0.034      331.954        0.303      868.289
12/28/2013  09:52:00       97.137       71.681       14.447       38.748       34.699       33.714     1501.431     1204.026     1136.630        0.931        0.192      120.721       12.518        0.011      331.855        0.141      868.301
12/28/2013  09:53:00       54.968       18.421        9.879       54.949       37.042       36.033     3019.443     1372.117     1298.368        0.457        0.284       57.973       22.223        0.147      332.054        0.468      868.305
12/28/2013  09:54:00       34.608       47.317       31.138       53.694       36.162       31.704     2883.040     1307.691     1005.155        0.480        0.260       58.622       14.528        0.061      332.454        1.129      868.303
12/28/2013  09:55:00       57.826       48.363       16.012       35.343       31.144       34.032     1249.107      969.936     1158.147        0.466        0.169       75.384       21.544        0.082      331.826        0.092      868.312
12/28/2013  09:56:00       70.618       70.190        8.790       22.538       24.004       27.445      507.981      576.190      753.246        0.591        0.092       99.566       16.727        0.028      331.593       -0.292      868.310
12/28/2013  09:57:00       35.205       66.824       -0.149       30.576       30.288       27.625      934.904      917.379      763.114        0.416        0.131       75.530       17.421        0.053      331.846        0.124      868.318
12/28/2013  09:58:00       57.446       55.445        4.132       47.518       45.599       31.433     2258.007     2079.279      988.020        0.586        0.266       79.839       30.468        0.146      331.912        0.234      868.338
12/28/2013  09:59:00       82.392       80.902       11.685       34.234       27.634       28.735     1171.950      763.627      825.684        0.812        0.138      115.471       18.736        0.026      331.576       -0.320      868.369
12/28/2013  10:00:00       61.288       59.057        2.325       27.156       24.144       24.541      737.455      582.919      602.257        0.459        0.096       85.111       12.474        0.021      331.592       -0.293      868.399
12/28/2013  10:01:00       67.058       60.257       22.306       41.366       38.587       35.491     1711.132     1488.988     1259.596        0.654        0.223       90.154       26.650        0.087      331.850        0.132      868.409
12/28/2013  10:02:00       55.351       92.259       14.353       45.510       35.464       44.555     2071.188     1257.699     1985.166        0.855        0.266      107.590       34.929        0.105      332.000        0.379      868.431
12/28/2013  10:03:00        9.201      102.189      108.531       24.266       45.132       25.633      588.834     2036.888      657.049        1.279        0.164      102.602       27.248        0.071      331.918        0.244      868.434
12/28/2013  10:04:00       14.458       63.550       82.480       42.566       33.790       28.234     1811.834     1141.734      797.144        0.740        0.188       65.174       30.136        0.214      331.983        0.350      868.429
12/28/2013  10:05:00       95.252       97.824       63.283       49.842       29.223       43.829     2484.268      853.976     1920.959        1.395        0.263      136.537       37.981        0.077      331.704       -0.109      868.417
12/28/2013  10:06:00      110.629       81.277       20.758       37.669       26.822       33.427     1418.984      719.423     1117.364        1.127        0.163      137.276       20.802        0.023      331.551       -0.362      868.423
12/28/2013  10:07:00       56.226       72.144       65.747       55.672       39.267       36.765     3099.328     1541.878     1351.692        0.934        0.300       91.466       30.710        0.113      331.997        0.375      868.419
12/28/2013  10:08:00       36.179       47.420       69.308       31.275       45.380       25.675      978.118     2059.387      659.200        0.603        0.185       59.646       25.074        0.177      331.916        0.241      868.414
12/28/2013  10:09:00       29.600        5.056       43.276       29.349       31.847       28.320      861.381     1014.214      802.048        0.273        0.134       30.029       20.444        0.464      332.173        0.663      868.412
12/28/2013  10:10:00       30.537       -1.724       24.782       35.534       41.148       37.936     1262.636     1693.182     1439.152        0.297        0.220       30.585       34.295        1.257      331.975        0.337      868.415
12/28/2013  10:11:00       24.059       67.138       66.314       39.581       36.625       25.447     1566.680     1341.393      647.542        0.652        0.178       71.319       21.234        0.089      332.133        0.596      868.411
12/28/2013  10:12:00       56.692       47.049       17.104       36.026       32.172       27.853     1297.843     1035.064      775.764        0.441        0.155       73.672        9.488        0.017      332.093        0.531      868.403
12/28/2013  10:13:00       40.770       37.655       17.634       47.766       30.219       27.451     2281.620      913.209      753.531        0.367        0.197       55.498       22.072        0.158      332.344        0.947      868.374
12/28/2013  10:14:00        3.016       29.069       49.278       20.241       26.287       18.521      409.697      691.022      343.012        0.236        0.072       29.225       17.274        0.349      332.400        1.038      868.352
12/28/2013  10:15:00        9.305        6.113       52.664       24.177       30.995       19.247      584.538      960.686      370.465        0.241        0.096       11.133       15.245        1.875      332.532        1.256      868.327
12/28/2013  10:16:00       19.882       33.043       13.131       22.218       22.056       22.835      493.647      486.458      521.435        0.158        0.075       38.564       10.765        0.078      332.236        0.767      868.355
12/28/2013  10:17:00       23.342       27.497       10.891       32.829       24.927       21.447     1077.710      621.337      459.961        0.179        0.108       36.069       18.346        0.259      332.642        1.439      868.362
12/28/2013  10:18:00       27.604       39.472       12.503       27.091       24.881       25.328      733.949      619.067      641.530        0.224        0.100       48.167       18.360        0.145      332.392        1.024      868.363
12/28/2013  10:19:00       30.843       32.922       -0.484       26.316       20.065       18.028      692.523      402.613      325.027        0.173        0.071       45.113       12.107        0.072      332.382        1.008      868.360
12/28/2013  10:20:00       -0.939       43.635        2.319       19.779       26.955       18.641      391.198      726.577      347.502        0.169        0.073       43.645       18.689        0.183      332.692        1.521      868.366
12/28/2013  10:21:00      -12.850       15.054       46.956       16.180       34.481       28.129      261.801     1188.964      791.234        0.242        0.112       19.793       27.587        1.943      332.977        1.990      868.381
12/28/2013  10:22:00       33.106       67.660       73.162       50.385       37.693       38.561     2538.606     1420.733     1486.979        0.824        0.272       75.325       30.516        0.164      332.645        1.443      868.397
12/28/2013  10:23:00       31.638       57.122       47.938       39.242       20.332       24.975     1539.973      413.370      623.748        0.457        0.129       65.299       16.298        0.062      332.374        0.994      868.425
12/28/2013  10:24:00       38.012       61.041       26.086       41.635       40.280       31.822     1733.460     1622.491     1012.663        0.511        0.218       71.909       14.286        0.039      332.596        1.361      868.425
12/28/2013  10:25:00       11.986       44.825       79.311       37.564       50.657       36.247     1411.027     2566.169     1313.825        0.687        0.265       46.400       15.556        0.112      332.861        1.801      868.410
12/28/2013  10:26:00        6.864       72.524       95.402       26.427       50.933       26.131      698.390     2594.189      682.851        0.919        0.199       72.848       31.636        0.189      332.639        1.433      868.369
12/28/2013  10:27:00       13.649       66.261       86.281       26.727       31.070       18.784      714.345      965.364      352.840        0.703        0.102       67.652       18.116        0.072      332.516        1.230      868.334
12/28/2013  10:28:00       26.030       77.304       92.700       40.829       37.235       22.817     1667.008     1386.452      520.623        0.941        0.179       81.569       17.482        0.046      332.463        1.143      868.312
12/28/2013  10:29:00       40.071       65.556       71.409       34.836       29.706       32.183     1213.569      882.448     1035.759        0.707        0.157       76.833       18.089        0.055      332.550        1.285      868.318
12/28/2013  10:30:00       76.110       79.558       54.913       38.975       38.546       41.782     1519.054     1485.810     1745.774        0.994        0.238      110.101       33.121        0.090      332.413        1.060      868.311
12/28/2013  10:31:00       65.587       84.713       74.408       47.939       34.519       29.775     2298.133     1191.577      886.547        1.069        0.219      107.135       21.429        0.040      332.621        1.403      868.293
12/28/2013  10:32:00       97.756       77.501       56.357       43.133       41.157       31.325     1860.483     1693.875      981.269        1.164        0.227      124.750       16.923        0.018      332.419        1.069      868.283
12/28/2013  10:33:00      118.214       85.287       35.498       41.049       20.151       32.526     1685.040      406.076     1057.926        1.283        0.157      145.769       23.535        0.026      332.244        0.780      868.278
12/28/2013  10:34:00       19.069       89.785      101.223       41.780       41.052       30.098     1745.576     1685.267      905.868        1.150        0.217       91.787       28.438        0.096      332.802        1.701      868.266
12/28/2013  10:35:00      121.601      127.096       81.434       70.249       39.733       39.340     4934.990     1578.677     1547.624        2.282        0.403      175.898       42.635        0.059      332.429        1.084      868.259
12/28/2013  10:36:00       61.591       64.881       75.498       66.890       48.754       31.802     4474.278     2376.910     1011.338        1.078        0.393       89.459       25.047        0.078      332.612        1.387      868.269
12/28/2013  10:37:00       18.419       19.571       61.448       51.599       75.098       54.329     2662.484     5639.637     2951.679        0.787        0.563       26.875       60.349        5.042      332.837        1.760      868.276
12/28/2013  10:38:00       45.184      103.963       97.297       50.660       53.480       44.174     2566.476     2860.069     1951.304        1.485        0.369      113.357       34.192        0.091      332.846        1.774      868.287
12/28/2013  10:39:00      138.310      112.826       70.254       35.758       41.630       45.445     1278.654     1733.036     2065.230        2.094        0.254      178.492       31.473        0.031      332.456        1.129      868.284
12/28/2013  10:40:00       71.461       93.326       64.915       54.909       42.575       40.524     3014.960     1812.635     1642.205        1.225        0.323      117.543       35.581        0.092      332.633        1.421      868.274
12/28/2013  10:41:00       73.297       74.764       41.622       62.824       25.453       34.973     3946.874      647.875     1223.090        0.926        0.291      104.700       27.900        0.071      332.561        1.304      868.265
12/28/2013  10:42:00       -3.645       32.490       49.547       18.685       34.666       25.098      349.125     1201.724      629.922        0.285        0.109       32.694       21.797        0.444      333.245        2.433      868.247
12/28/2013  10:43:00       12.936       -0.362       42.388       38.479       62.635       34.095     1480.665     3923.172     1162.439        0.426        0.328       12.941       23.319        3.247      333.107        2.207      868.223
12/28/2013  10:44:00       58.500       71.527       60.376       40.362       45.062       36.897     1629.128     2030.555     1361.422        0.860        0.251       92.403       23.361        0.064      332.677        1.497      868.194
12/28/2013  10:45:00       98.420       66.173       16.496       31.391       42.177       30.348      985.411     1778.882      921.010        0.901        0.184      118.598       19.187        0.026      332.393        1.027      868.167
12/28/2013  10:46:00       87.282       80.431       21.425       33.196       28.833       39.609     1101.989      831.364     1568.849        0.902        0.175      118.690       24.954        0.044      332.575        1.326      868.149
12/28/2013  10:47:00       40.081       55.801       45.140       49.339       31.344       33.824     2434.329      982.434     1144.030        0.566        0.228       68.704       33.928        0.244      332.883        1.836      868.137
12/28/2013  10:48:00       54.462       57.918       66.350       45.983       36.633       37.018     2114.398     1341.993     1370.368        0.777        0.241       79.502       27.449        0.119      332.836        1.759      868.141
12/28/2013  10:49:00       95.141       56.627       15.597       39.967       46.138       40.571     1597.333     2128.722     1645.984        0.894        0.269      110.717       12.695        0.013      332.722        1.570      868.162
12/28/2013  10:50:00       53.335       77.211        6.430       41.170       25.274       25.623     1694.964      638.773      656.558        0.592        0.150       93.841       18.022        0.037      332.724        1.572      868.173
12/28/2013  10:51:00       84.572       72.738       12.358       47.728       25.460       23.739     2278.008      648.231      563.537        0.804        0.174      111.549       17.522        0.025      332.614        1.391      868.177
12/28/2013  10:52:00       32.357       50.485       28.615       26.695       40.634       25.985      712.602     1651.136      675.241        0.373        0.152       59.964        8.532        0.020      333.146        2.269      868.177
12/28/2013  10:53:00       93.730       74.453       51.935       43.355       33.467       23.170     1879.699     1120.024      536.867        1.028        0.177      119.702       17.542        0.021      332.846        1.775      868.165
12/28/2013  10:54:00       42.590       55.022       41.001       47.323       36.547       52.313     2239.482     1335.691     2736.666        0.642        0.316       69.580       38.985        0.314      332.932        1.917      868.124
12/28/2013  10:55:00       58.429       87.708       75.600       55.823       55.073       43.025     3116.254     3033.046     1851.174        1.241        0.400      105.388       29.522        0.078      333.187        2.338      868.086
12/28/2013  10:56:00       83.410      103.780       68.833       46.750       37.722       36.735     2185.556     1422.968     1349.497        1.371        0.248      133.145       27.699        0.043      333.035        2.086      868.051
12/28/2013  10:57:00      122.105       75.456       47.377       51.804       43.349       41.750     2683.705     1879.128     1743.029        1.458        0.315      143.538       34.536        0.058      332.896        1.857      868.037
12/28/2013  10:58:00       67.909       74.015       53.015       35.962       36.508       40.633     1293.296     1332.819     1651.003        0.859        0.214      100.449       18.416        0.034      333.065        2.138      868.018
12/28/2013  10:59:00       93.205       49.464       37.386       33.197       44.055       28.432     1102.033     1940.848      808.352        0.819        0.193      105.518       24.485        0.054      332.915        1.888      868.023
12/28/2013  11:00:00      127.881       77.534        5.118       45.722       26.542       30.690     2090.488      704.456      941.851        1.306        0.187      149.550       17.197        0.013      332.875        1.822      867.994
12/28/2013  11:01:00      164.215       95.457        3.748       31.125       30.535       31.682      968.763      932.360     1003.771        1.950        0.145      189.944       13.229        0.005      332.786        1.674      867.975
12/28/2013  11:02:00       98.393       70.550       -0.242       42.472       25.243       28.329     1803.858      637.212      802.505        0.895        0.162      121.072       19.396        0.026      332.824        1.739      867.947
12/28/2013  11:03:00       86.739       53.917       11.155       47.259       29.382       27.335     2233.451      863.290      747.201        0.720        0.192      102.131       22.385        0.048      333.040        2.095      867.931
12/28/2013  11:04:00       92.651       53.070        1.346       34.436       33.654       28.431     1185.813     1132.594      808.335        0.726        0.156      106.774       21.105        0.039      332.963        1.967      867.911
12/28/2013  11:05:00       98.772       56.696       20.254       34.262       36.039       30.242     1173.851     1298.774      914.605        0.838        0.169      113.888       20.060        0.031      333.038        2.093      867.903
12/28/2013  11:06:00       80.700       56.358       -2.149       25.245       15.552       16.046      637.300      241.872      257.479        0.541        0.057       98.431       11.165        0.013      333.070        2.145      867.897
12/28/2013  11:07:00       42.918       41.014       49.926       39.058       34.292       27.878     1525.550     1175.964      777.203        0.475        0.174       59.364       18.361        0.096      333.665        3.128      867.900
12/28/2013  11:08:00       41.307       71.015       90.690       36.646       38.956       18.834     1342.934     1517.597      354.724        0.909        0.161       82.155       13.677        0.028      333.444        2.763      867.875
12/28/2013  11:09:00       37.613       57.054       58.548       35.068       32.467       25.348     1229.752     1054.080      642.532        0.551        0.146       68.336       11.047        0.026      333.708        3.200      867.853
12/28/2013  11:10:00       34.473       36.944       12.014       27.613       28.824       25.028      762.489      830.828      626.406        0.246        0.111       50.530       19.517        0.149      333.654        3.109      867.812
12/28/2013  11:11:00       47.460       62.197        4.943       59.271       27.402       31.190     3513.043      750.856      972.834        0.569        0.262       78.236        3.926        0.003      333.485        2.830      867.791
12/28/2013  11:12:00       48.855       61.458       26.783       45.303       34.136       33.295     2052.333     1165.260     1108.537        0.560        0.216       78.511       16.650        0.045      333.748        3.267      867.763
12/28/2013  11:13:00       45.309       42.632       34.100       29.016       27.488       30.549      841.931      755.598      933.240        0.378        0.127       62.213       16.600        0.071      333.641        3.088      867.746
12/28/2013  11:14:00       36.890       46.393       45.933       40.523       31.608       35.578     1642.101      999.097     1265.812        0.476        0.195       59.272       25.592        0.186      333.887        3.497      867.733
12/28/2013  11:15:00       76.816       74.339       45.360       37.950       25.157       32.576     1440.218      632.862     1061.183        0.831        0.157      106.897       21.846        0.042      333.721        3.221      867.726
12/28/2013  11:16:00        4.083        4.987       21.877       41.089       43.982       19.848     1688.287     1934.413      393.932        0.227        0.201        6.445       19.036        8.724      333.989        3.666      867.721
12/28/2013  11:17:00       -6.485        1.532       -1.301       17.952       57.956       22.006      322.286     3358.905      484.244        0.211        0.208        6.664       30.984       21.621      333.673        3.143      867.727
12/28/2013  11:18:00        2.962       35.551       17.450       24.499       24.647       21.312      600.205      607.461      454.209        0.162        0.083       35.674       13.431        0.142      334.133        3.905      867.725
12/28/2013  11:19:00       50.463       43.504       58.643       59.347       41.530       41.530     3522.031     1724.702     1724.776        0.742        0.349       66.627       37.961        0.325      334.012        3.704      867.718
12/28/2013  11:20:00       82.672       28.051       19.096       54.938       36.081       34.253     3018.168     1301.870     1173.264        0.674        0.275       87.301       19.358        0.049      333.802        3.356      867.699
12/28/2013  11:21:00      116.246       64.602       17.389       48.246       44.805       38.349     2327.689     2007.484     1470.614        1.190        0.290      132.991       30.540        0.053      333.897        3.514      867.678
12/28/2013  11:22:00       91.427       70.068        4.179       51.506       36.458       33.137     2652.826     1329.156     1098.089        0.918        0.254      115.188       24.500        0.045      333.775        3.312      867.668
12/28/2013  11:23:00       40.974       82.534        2.799       47.453       54.124       45.078     2251.800     2929.421     2032.010        0.785        0.361       92.145       41.719        0.205      333.916        3.545      867.660
12/28/2013  11:24:00        9.642       40.706        4.709       37.725       45.979       30.393     1423.170     2114.025      923.753        0.312        0.223       41.832       18.016        0.185      334.154        3.940      867.652
12/28/2013  11:25:00       16.230       60.735       68.161       35.321       48.037       34.684     1247.591     2307.508     1202.987        0.668        0.238       62.866       30.837        0.241      334.468        4.461      867.653
12/28/2013  11:26:00      137.724       78.764       27.779       69.976       58.527       54.230     4896.579     3425.399     2940.885        1.860        0.563      158.656       33.080        0.043      334.048        3.761      867.641
12/28/2013  11:27:00       43.006       55.033       -1.454       55.453       45.801       41.157     3074.982     2097.719     1693.871        0.587        0.343       69.844       29.517        0.179      334.037        3.745      867.638
12/28/2013  11:28:00      160.585      126.549       28.393       54.136       40.505       39.047     2930.743     1640.681     1524.697        2.435        0.305      204.456       25.383        0.015      333.761        3.284      867.629
12/28/2013  11:29:00       76.934       59.702       30.775       50.287       41.869       31.297     2528.779     1753.013      979.497        0.784        0.263       97.381       23.947        0.060      333.967        3.631      867.623
12/28/2013  11:30:00       74.562      119.542       92.188       78.498       54.400       57.564     6161.881     2959.360     3313.623        2.039        0.622      140.889       48.659        0.119      334.098        3.846      867.594
12/28/2013  11:31:00      106.402       46.171       58.794       64.315       45.759       47.296     4136.483     2093.854     2236.925        1.269        0.423      115.988       24.579        0.045      333.961        3.618      867.572
12/28/2013  11:32:00       64.331      -21.028       35.123       47.697       87.919       45.333     2274.976     7729.723     2055.073        0.893        0.603       67.680       45.802        0.458      334.218        4.045      867.535
12/28/2013  11:33:00       57.655      -30.446       25.069       44.797       90.789       47.311     2006.795     8242.604     2238.365        0.868        0.624       65.200       56.919        0.762      334.109        3.866      867.509
12/28/2013  11:34:00       85.127       62.287       30.715       51.984       50.829       46.019     2702.310     2583.631     2117.710        0.974        0.370      105.481       40.096        0.144      333.922        3.555      867.501
12/28/2013  11:35:00       48.062       43.586       53.064       47.471       48.594       26.902     2253.482     2361.373      723.714        0.618        0.267       64.882       20.868        0.103      334.253        4.105      867.484
12/28/2013  11:36:00       14.732       12.933       35.877       30.050       43.809       25.618      903.025     1919.215      656.276        0.257        0.174       19.603       21.668        1.222      334.661        4.781      867.479
12/28/2013  11:37:00       69.479       65.458       23.360       56.368       37.353       54.295     3177.339     1395.247     2947.980        0.859        0.376       95.458       41.171        0.186      334.395        4.340      867.481
12/28/2013  11:38:00      126.901       89.485       10.800       44.114       37.159       34.429     1946.032     1380.766     1185.348        1.437        0.226      155.279        9.959        0.004      334.071        3.801      867.476
12/28/2013  11:39:00       74.060       77.655        2.673       32.126       26.347       26.259     1032.080      694.150      689.532        0.697        0.121      107.309       12.182        0.013      334.018        3.715      867.474
12/28/2013  11:40:00       43.113       38.473        7.833       23.794       29.305       23.171      566.161      858.792      536.879        0.268        0.098       57.783       19.445        0.113      334.136        3.910      867.452
12/28/2013  11:41:00       98.943       82.170       53.490       63.607       40.365       41.924     4045.790     1629.313     1757.642        1.342        0.372      128.614       33.794        0.069      334.168        3.962      867.447
12/28/2013  11:42:00       72.662       82.583       68.592       60.747       38.492       31.811     3690.166     1481.634     1011.964        1.149        0.309      109.999       30.407        0.076      334.173        3.971      867.433
12/28/2013  11:43:00       -2.197      -31.716       43.379       32.770       66.161       38.014     1073.862     4377.221     1445.047        0.489        0.345       31.792       43.134        1.841      334.560        4.613      867.437
12/28/2013  11:44:00        4.142       42.582       74.872       24.798       70.779       39.567      614.946     5009.680     1565.565        0.731        0.360       42.783       45.368        1.124      334.715        4.871      867.418
12/28/2013  11:45:00       26.996      -18.961       33.732       34.198       78.035       42.309     1169.521     6089.524     1790.014        0.564        0.452       32.990       42.255        1.641      334.410        4.365      867.407
12/28/2013  11:46:00       70.117        9.109       43.739       32.934       45.223       36.574     1084.662     2045.122     1337.693        0.569        0.223       70.707       23.752        0.113      334.424        4.387      867.381
12/28/2013  11:47:00       55.823       64.812       11.414       26.598       25.192       21.489      707.441      634.648      461.779        0.463        0.090       85.539       14.483        0.029      334.119        3.883      867.364
12/28/2013  11:48:00       28.847       32.031       37.505       35.469       39.415       27.362     1258.033     1553.547      748.689        0.341        0.178       43.106       23.636        0.301      334.541        4.582      867.345
12/28/2013  11:49:00        2.676       27.804       58.256       28.685       26.702       25.494      822.836      713.018      649.943        0.318        0.109       27.932       23.284        0.695      334.951        5.263      867.328
12/28/2013  11:50:00       -1.168       46.613       40.039       26.822       57.165       33.051      719.394     3267.788     1092.398        0.443        0.254       46.628       33.942        0.530      334.821        5.047      867.324
12/28/2013  11:51:00       70.480       65.862       49.343       46.166       38.788       41.517     2131.334     1504.481     1723.687        0.855        0.268       96.464       28.753        0.089      334.747        4.924      867.315
12/28/2013  11:52:00       66.653       69.791       75.692       49.146       44.814       45.966     2415.364     2008.294     2112.828        1.079        0.327       96.506       36.141        0.140      334.483        4.484      867.308
12/28/2013  11:53:00       76.776       81.893       38.592       32.905       28.088       31.194     1082.747      788.956      973.085        0.847        0.142      112.254       19.909        0.031      334.142        3.919      867.291
12/28/2013  11:54:00       30.221       49.310       43.807       30.971       32.032       29.065      959.178     1026.027      844.782        0.405        0.141       57.834       16.789        0.084      334.704        4.852      867.286
12/28/2013  11:55:00        4.234       47.669       52.303       27.936       30.187       21.097      780.416      911.266      445.082        0.358        0.107       47.856       13.292        0.077      334.998        5.340      867.275
12/28/2013  11:56:00       48.259       60.673       38.309       34.521       24.203       32.250     1191.674      585.772     1040.041        0.515        0.141       77.525       21.715        0.078      334.732        4.898      867.254
12/28/2013  11:57:00       74.792      100.846       83.824       67.301       55.515       45.000     4529.488     3081.874     2025.020        1.621        0.482      125.553       41.085        0.107      334.656        4.771      867.243
12/28/2013  11:58:00       17.362       39.700       21.562       38.279       39.545       28.403     1465.257     1563.774      806.709        0.309        0.192       43.330       28.104        0.421      334.703        4.850      867.245
12/28/2013  11:59:00       48.943       55.861       82.896       74.261       58.084       52.409     5514.715     3373.779     2746.665        1.201        0.582       74.269       51.118        0.474      334.761        4.946      867.256
12/28/2013  12:00:00      110.286      106.239       84.579       72.801       53.347       51.011     5299.986     2845.901     2602.144        2.067        0.537      153.133       48.731        0.101      334.372        4.300      867.272
12/28/2013  12:01:00       42.949       72.265       94.294       50.436       49.119       42.286     2543.741     2412.631     1788.072        1.135        0.337       84.064       40.619        0.233      334.465        4.455      867.283
12/28/2013  12:02:00      111.547      -64.329        9.770       46.693       46.241       28.344     2180.258     2138.228      803.390        1.090        0.256      128.768       18.574        0.021      334.380        4.315      867.279
12/28/2013  12:03:00       56.095       -6.738       19.846       68.368       47.529       32.118     4674.177     2258.962     1031.585        0.577        0.398       56.498       41.281        0.534      334.944        5.250      867.256
12/28/2013  12:04:00        4.088       66.365       84.808       33.842       37.634       29.851     1145.303     1416.318      891.060        0.753        0.173       66.491       21.128        0.101      335.052        5.430      867.242
12/28/2013  12:05:00       24.144       86.430       90.055       40.911       42.217       32.902     1673.709     1782.248     1082.524        1.035        0.227       89.739       25.648        0.082      334.931        5.229      867.226
12/28/2013  12:06:00       68.513       58.260       49.388       76.920       51.352       50.709     5916.737     2637.056     2571.416        1.082        0.556       89.935       52.844        0.345      334.803        5.016      867.219
12/28/2013  12:07:00       83.218       62.885        7.427       67.850       44.937       43.580     4603.661     2019.337     1899.223        0.973        0.426      104.306       28.405        0.074      334.907        5.189      867.224
12/28/2013  12:08:00       38.294       34.674       69.754       54.180       51.025       34.530     2935.453     2603.512     1192.321        0.713        0.337       51.659       27.159        0.276      335.027        5.388      867.226
12/28/2013  12:09:00        1.855       61.374       54.193       36.738       45.414       42.639     1349.658     2062.444     1818.116        0.597        0.262       61.402       27.824        0.205      335.132        5.563      867.221
12/28/2013  12:10:00       72.922       58.931       25.444       42.859       29.854       36.789     1836.935      891.250     1353.436        0.676        0.204       93.758       13.102        0.020      334.900        5.178      867.213
12/28/2013  12:11:00       83.344       52.379        6.304       36.847       29.712       26.422     1357.705      882.779      698.108        0.633        0.147       98.437       20.206        0.042      334.756        4.938      867.190
12/28/2013  12:12:00       61.882       56.314       62.944       59.115       65.660       59.519     3494.640     4311.194     3542.489        1.115        0.567       83.670       51.051        0.372      334.920        5.210      867.190
12/28/2013  12:13:00       26.323       58.186       88.915       63.890       62.754       44.430     4081.993     3938.045     1974.053        1.099        0.500       63.863       50.180        0.617      334.970        5.293      867.183
12/28/2013  12:14:00       41.361       66.680       78.275       47.700       46.852       42.812     2275.247     2195.153     1832.870        0.929        0.315       78.466       35.530        0.205      334.885        5.153      867.177
12/28/2013  12:15:00      134.534      120.445       77.716       97.696       72.588       67.204     9544.478     5268.970     4516.371        2.898        0.966      180.572       71.952        0.159      334.735        4.900      867.174
12/28/2013  12:16:00       73.196       59.671       42.937       92.781       48.982       56.490     8608.313     2399.266     3191.146        1.248        0.710       94.437       53.901        0.326      334.795        5.003      867.168
12/28/2013  12:17:00       36.079       87.922       75.636       51.970       65.733       58.768     2700.860     4320.842     3453.735        1.261        0.524       95.036       50.763        0.285      334.910        5.195      867.147
12/28/2013  12:18:00       85.569       93.170       67.194       66.214       55.742       55.144     4384.333     3107.214     3040.857        1.552        0.527      126.501       47.114        0.139      334.898        5.173      867.115
12/28/2013  12:19:00       82.754       71.261       34.130       60.835       46.524       52.525     3700.850     2164.506     2758.841        1.086        0.431      109.208       46.140        0.179      334.957        5.272      867.093
12/28/2013  12:20:00      121.251       89.293       12.771       42.162       31.180       31.421     1777.661      972.206      987.271        1.329        0.187      150.583       16.920        0.013      334.751        4.930      867.063
12/28/2013  12:21:00       97.078       68.377       32.792       44.175       32.900       39.150     1951.404     1082.389     1532.759        0.987        0.228      118.742       28.187        0.056      335.010        5.361      867.052
12/28/2013  12:22:00       80.724       71.390        8.689       65.502       48.022       28.411     4290.499     2306.111      807.193        0.954        0.370      107.763       28.073        0.068      334.946        5.254      867.032
12/28/2013  12:23:00       84.125     -109.885       -3.904       48.391       84.934       45.805     2341.689     7213.714     2098.114        1.541        0.583      138.390       33.573        0.059      334.966        5.286      867.026
12/28/2013  12:24:00       67.748       32.667       67.108       55.128       41.712       32.635     3039.076     1739.923     1065.072        0.800        0.292       75.213       29.465        0.153      335.008        5.359      867.056
12/28/2013  12:25:00       62.899      101.912       96.913       58.381       50.694       28.913     3408.352     2569.832      835.941        1.527        0.341      119.760       26.224        0.048      335.065        5.451      867.075
12/28/2013  12:26:00       65.753      -30.221       38.189       67.729       61.544       49.462     4587.160     3787.650     2446.534        0.876        0.541       72.366       54.971        0.577      335.218        5.706      867.104
12/28/2013  12:27:00       35.678       -8.940       27.673       44.538       47.323       34.751     1983.651     2239.496     1207.641        0.377        0.272       36.781       34.415        0.875      335.210        5.693      867.124
12/28/2013  12:28:00       39.924       37.428       35.880       30.931       28.390       28.888      956.725      805.982      834.524        0.344        0.130       54.725       24.254        0.196      335.071        5.461      867.138
12/28/2013  12:29:00       38.744      -34.856        0.712       38.344       48.806       25.372     1470.258     2382.061      643.755        0.361        0.225       52.115       28.201        0.293      335.222        5.714      867.125
12/28/2013  12:30:00       -8.448       11.605       28.003       18.984       31.829       27.076      360.387     1013.110      733.091        0.155        0.105       14.354       19.948        1.931      335.556        6.268      867.116
12/28/2013  12:31:00       46.828     -100.295      -11.208       69.036       54.486       26.649     4766.002     2968.680      710.157        1.041        0.422      110.689       24.118        0.047      335.301        5.844      867.098
12/28/2013  12:32:00       77.762     -115.831      -30.157       32.074       45.552       25.426     1028.733     2074.963      646.460        1.206        0.188      139.513       16.948        0.015      334.933        5.232      867.078
12/28/2013  12:33:00       33.577       12.287       54.548       47.227       89.169       63.473     2230.380     7951.119     4028.813        0.923        0.711       35.755       72.899        4.157      335.292        5.831      867.060
12/28/2013  12:34:00       83.114       41.408       53.393       48.839       64.041       51.769     2385.272     4101.196     2680.029        1.032        0.458       92.858       49.807        0.288      335.025        5.387      867.057
12/28/2013  12:35:00       56.458       27.121        9.300       44.468       31.646       28.728     1977.404     1001.477      825.305        0.391        0.190       62.634       19.901        0.101      335.065        5.452      867.048
12/28/2013  12:36:00       16.012      -11.437       29.743       38.208       45.767       36.253     1459.884     2094.645     1314.315        0.307        0.243       19.678       25.015        1.616      335.599        6.341      867.030
12/28/2013  12:37:00       -1.047       45.016       78.850       31.219       74.227       39.734      974.622     5509.667     1578.801        0.815        0.403       45.028       43.488        0.933      335.488        6.155      867.014
12/28/2013  12:38:00       29.261       46.921       65.631       50.120       55.624       37.085     2512.030     3094.035     1375.331        0.717        0.349       55.297        9.559        0.030      335.436        6.069      867.007
12/28/2013  12:39:00       14.707        0.269       59.777       35.933       62.677       45.053     1291.201     3928.366     2029.812        0.552        0.362       14.710       47.230       10.309      335.689        6.490      867.011
12/28/2013  12:40:00       83.139      -10.570       25.305       32.304       59.148       41.634     1043.565     3498.453     1733.367        0.697        0.314       83.808       43.018        0.263      335.176        5.635      867.024
12/28/2013  12:41:00       56.655        7.264       16.047       30.210       49.473       29.217      912.664     2447.530      853.634        0.387        0.211       57.119       22.179        0.151      335.247        5.755      867.033
12/28/2013  12:42:00       28.298      -32.853      -21.105       48.139       42.927       16.468     2317.319     1842.717      271.210        0.338        0.222       43.360       17.107        0.156      335.276        5.802      867.039
12/28/2013  12:43:00       51.659       -2.284       43.615       49.076       51.784       34.025     2408.493     2681.563     1157.675        0.541        0.312       51.710       28.817        0.311      335.656        6.436      867.029
12/28/2013  12:44:00       37.020      -84.910        8.996       52.687       81.450       48.408     2775.968     6634.072     2343.367        1.021        0.588       92.629       57.566        0.386      335.683        6.480      867.024
12/28/2013  12:45:00       95.472     -127.877      -30.492       58.537       54.551       26.676     3426.585     2975.852      711.627        1.675        0.356      159.585        9.735        0.004      335.212        5.695      867.023
12/28/2013  12:46:00      108.000      -96.426      -17.598       54.367       51.606       35.586     2955.729     2663.215     1266.380        1.408        0.344      144.783       30.142        0.043      335.263        5.779      867.002
12/28/2013  12:47:00       54.705       36.179       49.581       37.054       47.246       33.872     1373.002     2232.139     1147.332        0.576        0.238       65.587       35.720        0.297      335.297        5.837      866.974
12/28/2013  12:48:00        6.858       33.655       31.145       16.110       26.501       13.966      259.541      702.300      195.052        0.165        0.058       34.346        8.259        0.058      335.436        6.068      866.945
12/28/2013  12:49:00      -26.324       -2.904       19.698       20.747       26.921       20.880      430.430      724.758      435.959        0.134        0.080       26.484       21.910        0.684      335.781        6.644      866.925
12/28/2013  12:50:00        3.210        0.205       19.090       23.657       22.293       25.970      559.638      496.974      674.435        0.105        0.087        3.217       14.619       20.656      336.007        7.020      866.910
12/28/2013  12:51:00        5.857       29.391       53.087       23.270       44.332       33.126      541.508     1965.334     1097.342        0.366        0.180       29.969       34.052        1.291      336.110        7.192      866.910
12/28/2013  12:52:00       32.986       10.035       43.365       43.921       60.659       40.326     1929.093     3679.556     1626.222        0.515        0.362       34.479       36.538        1.123      335.816        6.702      866.906
12/28/2013  12:53:00       45.421       93.577       92.882       47.784       41.589       38.804     2283.340     1729.683     1505.725        1.248        0.276      104.018       13.409        0.017      335.800        6.675      866.913
12/28/2013  12:54:00       91.553      113.060      109.948       73.077       78.171       63.147     5340.301     6110.708     3987.603        2.434        0.772      145.480       52.844        0.132      335.446        6.083      866.927
12/28/2013  12:55:00       88.660       85.711       68.828       52.444       55.525       41.441     2750.380     3083.063     1717.352        1.375        0.378      123.316       35.832        0.084      335.639        6.407      866.960
12/28/2013  12:56:00       61.194       75.586       92.206       65.255       68.977       53.151     4258.255     4757.796     2825.028        1.490        0.592       97.252       56.812        0.341      335.628        6.389      867.003
12/28/2013  12:57:00       27.307       12.262       43.751       32.395       36.215       26.786     1049.405     1311.560      717.505        0.294        0.154       29.934        8.934        0.089      335.882        6.812      867.036
12/28/2013  12:58:00       42.138       31.170       18.193       49.457       46.664       30.320     2446.033     2177.489      919.276        0.431        0.277       52.414       23.823        0.207      335.871        6.794      867.066
12/28/2013  12:59:00      118.510       84.921        6.898       57.753       43.725       38.810     3335.367     1911.854     1506.190        1.403        0.338      145.795       24.532        0.028      335.467        6.120      867.086
12/28/2013  13:00:00       96.733       62.810       16.343       68.127       54.155       28.451     4641.336     2932.783      809.474        1.098        0.419      115.336       24.169        0.044      335.622        6.379      867.086
12/28/2013  13:01:00       71.054     -117.601      -20.413       48.751       48.133       31.522     2376.696     2316.742      993.665        1.249        0.284      137.400       25.608        0.035      335.766        6.619      867.069
12/28/2013  13:02:00       13.622       43.226       75.736       39.616       90.363       51.075     1569.428     8165.562     2608.694        1.006        0.617       45.322       61.422        1.837      335.914        6.864      867.045
12/28/2013  13:03:00       77.091      -48.974        6.850       32.380       49.997       36.636     1048.477     2499.731     1342.216        0.664        0.245       91.332       34.304        0.141      335.749        6.589      867.026
12/28/2013  13:04:00       19.617      -26.780       41.203       42.891       87.274       48.949     1839.626     7616.709     2396.039        0.732        0.593       33.197       51.617        2.418      336.165        7.284      867.000
12/28/2013  13:05:00       22.314      -18.951       49.201       44.821      108.250       53.082     2008.928    11718.106     2817.741        0.991        0.827       29.276       65.626        5.025      335.914        6.866      866.975
12/28/2013  13:06:00       56.141       60.236       76.632       43.900       35.777       29.233     1927.205     1279.988      854.551        0.836        0.203       82.342       21.420        0.068      335.700        6.508      866.966
12/28/2013  13:07:00       44.500      -33.994        5.989       31.471       66.483       32.175      990.443     4419.981     1035.205        0.481        0.322       55.999       35.216        0.395      335.607        6.354      866.949
12/28/2013  13:08:00       22.468       -7.852       15.760       24.865       59.619       30.174      618.261     3554.434      910.494        0.295        0.254       23.800       23.609        0.984      335.967        6.954      866.925
12/28/2013  13:09:00       34.550       13.007       23.637       38.144       38.678       26.412     1454.994     1496.004      697.616        0.278        0.182       36.918       21.925        0.353      335.916        6.869      866.923
12/28/2013  13:10:00       23.953       48.870       73.198       55.425       61.307       40.729     3071.979     3758.491     1658.853        0.840        0.424       54.424       40.527        0.554      336.044        7.081      866.937
12/28/2013  13:11:00       41.425       82.573       78.417       41.647       34.270       32.129     1734.511     1174.429     1032.282        0.931        0.197       92.382       17.272        0.035      335.882        6.812      866.949
12/28/2013  13:12:00       35.046      -16.387       43.895       47.285       82.620       34.440     2235.826     6826.069     1186.081        0.683        0.512       38.688       41.891        1.172      336.018        7.038      866.950
12/28/2013  13:13:00       79.685     -120.774      -15.491       50.981       62.750       40.655     2599.108     3937.561     1652.831        1.468        0.409      144.692       36.120        0.062      335.808        6.687      866.946
12/28/2013  13:14:00       99.225     -120.841      -16.746       51.118       69.072       39.316     2613.013     4770.955     1545.737        1.683        0.446      156.359       32.082        0.042      335.748        6.587      866.927
12/28/2013  13:15:00       36.572      -24.912       38.317       65.155       78.152       40.503     4245.154     6107.659     1640.462        0.771        0.600       44.251       53.321        1.452      335.859        6.772      866.914
12/28/2013  13:16:00       25.824      -24.622       29.678       33.595       58.094       35.976     1128.604     3374.879     1294.249        0.397        0.290       35.681       41.350        1.343      336.022        7.045      866.896
12/28/2013  13:17:00      117.537      -63.083        6.644       60.071       81.345       65.554     3608.491     6617.000     4297.296        1.618        0.726      133.396       58.727        0.194      335.780        6.639      866.859
12/28/2013  13:18:00       34.010       -8.743       40.236       60.773       78.933       53.825     3693.385     6230.450     2897.079        0.783        0.641       35.116       60.310        2.950      335.983        6.979      866.831
12/28/2013  13:19:00       39.350       35.451       54.710       48.197       64.705       34.458     2322.929     4186.800     1187.332        0.675        0.385       52.964       34.513        0.425      336.183        7.314      866.815
12/28/2013  13:20:00       36.764        2.050       23.641       44.495       83.582       41.869     1979.796     6986.022     1753.021        0.631        0.536       36.821       41.802        1.289      336.067        7.120      866.829
12/28/2013  13:21:00       32.319      -70.934       20.028       60.876       77.069       37.603     3705.864     5939.600     1413.959        0.877        0.553       77.950       37.484        0.231      336.326        7.554      866.849
12/28/2013  13:22:00       81.120      -70.740        7.582       43.092       81.539       45.486     1856.962     6648.531     2068.959        1.111        0.529      107.632       46.502        0.187      336.076        7.135      866.870
12/28/2013  13:23:00       25.994        7.219       51.981       34.663       71.735       33.808     1201.513     5145.849     1143.010        0.546        0.375       26.978       31.249        1.342      336.193        7.330      866.870
12/28/2013  13:24:00       10.146       26.484       56.308       41.362       49.931       48.839     1710.837     2493.085     2385.252        0.528        0.329       28.361       38.417        1.835      336.360        7.610      866.884
12/28/2013  13:25:00       22.821       24.929       17.057       39.874       42.405       51.435     1589.900     1798.215     2645.579        0.373        0.302       33.797       36.324        1.155      336.229        7.391      866.906
12/28/2013  13:26:00       41.473      -10.846       26.218       36.258       50.114       35.574     1314.649     2511.451     1265.535        0.381        0.255       42.868       32.409        0.572      336.155        7.267      866.926
12/28/2013  13:27:00       34.237       47.298       43.122       47.184       26.936       33.114     2226.329      725.550     1096.548        0.466        0.202       58.389       28.735        0.242      336.299        7.507      866.928
12/28/2013  13:28:00       34.266      -28.250       -2.378       42.831       77.145       24.874     1834.454     5951.358      618.701        0.519        0.420       44.409       35.765        0.649      336.043        7.080      866.925
12/28/2013  13:29:00       88.634      -80.289      -23.510       33.555       43.803       20.271     1125.905     1918.709      410.913        0.915        0.173      119.592       23.160        0.038      335.866        6.785      866.922
12/28/2013  13:30:00       89.646     -116.596      -11.609       70.764       43.671       35.092     5007.555     1907.169     1231.444        1.495        0.407      147.075       30.966        0.044      336.054        7.098      866.917
12/28/2013  13:31:00       -5.196        3.930       54.073       23.622       57.824       25.226      557.998     3343.612      636.345        0.375        0.227        6.515       32.782       25.322      336.512        7.864      866.928
12/28/2013  13:32:00       28.830       37.423       51.752       37.237       49.389       36.652     1386.571     2439.270     1343.346        0.504        0.258       47.240       35.325        0.559      336.310        7.526      866.912
12/28/2013  13:33:00       22.434       15.927       43.030       37.636       34.980       22.680     1416.465     1223.584      514.380        0.288        0.158       27.513       21.577        0.615      336.567        7.954      866.892
12/28/2013  13:34:00       65.074       36.667       34.657       53.645       37.017       36.567     2877.811     1370.229     1337.161        0.618        0.279       74.693       25.025        0.112      336.301        7.510      866.860
12/28/2013  13:35:00       -3.072      -59.322      -12.865       48.748       51.493       27.053     2376.360     2651.506      731.865        0.473        0.288       59.401       28.544        0.231      336.410        7.693      866.832
12/28/2013  13:36:00       78.832      -90.100      -19.296       39.283       41.282       30.889     1543.177     1704.185      954.158        0.945        0.210      119.718       27.349        0.052      336.160        7.275      866.805
12/28/2013  13:37:00       40.585       17.983       32.556       31.228       58.470       36.297      975.161     3418.743     1317.475        0.437        0.286       44.391       40.221        0.821      336.252        7.429      866.767
12/28/2013  13:38:00       43.208       32.973       45.666       62.545       56.828       47.506     3911.824     3229.393     2256.847        0.722        0.470       54.352       45.835        0.711      336.343        7.581      866.756
12/28/2013  13:39:00       26.918     -131.619        2.890       36.674       78.497       35.757     1345.006     6161.797     1278.539        1.342        0.439      134.344       42.284        0.099      336.376        7.636      866.749
12/28/2013  13:40:00       68.062     -151.686      -15.300       29.652       31.311       23.021      879.213      980.400      529.946        1.513        0.119      166.257        9.958        0.004      336.199        7.340      866.742
12/28/2013  13:41:00       71.384      -81.638       -9.351       49.347       50.641       30.523     2435.135     2564.526      931.649        0.889        0.297      108.445       28.090        0.067      336.264        7.449      866.721
12/28/2013  13:42:00       34.316      -74.580       -6.991       49.256       47.086       35.938     2426.108     2217.128     1291.575        0.636        0.297       82.095       18.416        0.050      336.335        7.567      866.693
12/28/2013  13:43:00      -35.939       -2.671       -3.540       25.569       34.653       19.030      653.786     1200.840      362.155        0.176        0.111       36.038       17.088        0.225      336.549        7.926      866.662
12/28/2013  13:44:00      -37.519       -6.334       -3.043       19.370       24.551       17.822      375.199      602.749      317.625        0.138        0.065       38.050       13.501        0.126      336.517        7.872      866.640
12/28/2013  13:45:00      -61.262      -46.539       -5.183       35.491       35.551       18.936     1259.588     1263.876      358.566        0.441        0.144       76.935        5.406        0.005      336.379        7.643      866.612
12/28/2013  13:46:00      -36.544      -43.574       10.627       58.996       47.082       26.666     3480.474     2216.692      711.091        0.488        0.320       56.870       28.241        0.247      336.567        7.958      866.582
12/28/2013  13:47:00      -15.265      -52.766        7.030       32.152       34.895       24.130     1033.761     1217.652      582.270        0.295        0.142       54.930       15.557        0.080      336.654        8.101      866.556
12/28/2013  13:48:00       -3.911       -6.627        1.943       53.077       36.520       24.838     2817.207     1333.718      616.949        0.241        0.238        7.695       12.727        2.736      336.585        7.987      866.537
12/28/2013  13:49:00       35.518      -87.746       -1.645       49.109       90.303       27.052     2411.724     8154.688      731.801        1.013        0.565       94.662       43.246        0.209      336.644        8.084      866.540
12/28/2013  13:50:00       48.716     -106.951       -3.665       41.466       64.337       28.166     1719.463     4139.270      793.341        1.024        0.333      117.524       32.763        0.078      336.364        7.614      866.538
12/28/2013  13:51:00      -10.917       -0.304       25.956       39.916       34.078       23.895     1593.299     1161.313      570.959        0.206        0.166       10.921       20.275        3.447      336.804        8.351      866.542
12/28/2013  13:52:00       35.415       49.556       87.018       48.670       61.861       47.054     2368.805     3826.724     2214.108        0.984        0.420       60.910       39.727        0.425      336.507        7.854      866.542
12/28/2013  13:53:00       24.735       26.488       66.079       46.085       59.011       44.586     2123.863     3482.336     1987.889        0.664        0.380       36.242       35.789        0.975      336.558        7.941      866.535
12/28/2013  13:54:00       74.170      -65.918        9.640       71.865       87.739       51.261     5164.512     7698.078     2627.716        1.271        0.775       99.229       61.294        0.382      336.562        7.944      866.532
12/28/2013  13:55:00       99.938     -159.117      -20.370       33.867       44.342       20.640     1146.996     1966.224      426.004        1.963        0.177      187.899       16.664        0.008      336.203        7.346      866.536
12/28/2013  13:56:00      115.792     -151.852      -28.476       37.554       48.657       27.710     1410.339     2367.552      767.825        2.091        0.227      190.962       22.715        0.014      336.315        7.533      866.530
12/28/2013  13:57:00       84.717     -107.821        7.547       37.644       53.333       36.335     1417.060     2844.456     1320.217        1.222        0.279      137.121       38.239        0.078      336.382        7.646      866.521
12/28/2013  13:58:00       28.454       51.078       81.816       47.586       76.861       45.709     2264.430     5907.637     2089.291        1.019        0.513       58.469       52.614        0.810      336.443        7.747      866.505
12/28/2013  13:59:00       20.855        4.858       35.693       40.305       56.213       35.587     1624.520     3159.957     1266.412        0.389        0.303       21.413       40.359        3.553      336.577        7.973      866.485
12/28/2013  14:00:00       48.935      -65.250      -15.014       31.884       35.269       22.678     1016.587     1243.929      514.289        0.483        0.139       81.561       14.283        0.031      336.527        7.888      866.467
12/28/2013  14:01:00       48.802      -64.935        9.184       66.532       44.441       35.646     4426.463     1975.032     1270.656        0.718        0.384       81.229       33.622        0.171      336.666        8.121      866.447
12/28/2013  14:02:00       47.808       38.477       74.002       51.582       59.940       45.090     2660.753     3592.789     2033.144        0.876        0.414       61.368       42.457        0.479      336.500        7.844      866.445
12/28/2013  14:03:00       27.614       -7.725        9.065       25.634       40.756       16.669      657.112     1661.084      277.869        0.175        0.130       28.674       15.250        0.283      336.539        7.910      866.453
12/28/2013  14:04:00       11.880       -6.242       10.137       25.744       35.345       19.408      662.777     1249.273      376.670        0.129        0.114       13.419       22.716        2.865      336.797        8.342      866.452
12/28/2013  14:05:00       26.133        1.100       36.819       47.345       75.547       34.694     2241.545     5707.393     1203.655        0.559        0.458       26.156       41.514        2.519      336.654        8.101      866.446
12/28/2013  14:06:00       20.277       24.877       25.083       20.497       24.419       17.791      420.119      596.271      316.523        0.150        0.067       32.093       13.575        0.179      336.738        8.244      866.417
12/28/2013  14:07:00       13.689        1.058       13.282       47.612       35.576       21.987     2266.864     1265.643      483.421        0.219        0.201       13.730       10.927        0.633      336.789        8.326      866.394
12/28/2013  14:08:00       46.831       35.950       12.062       33.570       28.144       25.681     1126.931      792.059      659.504        0.310        0.129       59.038       17.614        0.089      336.569        7.958      866.393
12/28/2013  14:09:00       40.398       39.233       45.174       49.648       37.850       37.117     2464.875     1432.651     1377.646        0.524        0.264       56.314       32.538        0.334      336.891        8.499      866.395
12/28/2013  14:10:00        1.353      -58.068       15.207       41.282       52.394       25.400     1704.195     2745.091      645.177        0.435        0.255       58.084       22.813        0.154      337.037        8.741      866.406
12/28/2013  14:11:00      102.588     -149.077      -19.398       52.801       41.512       30.075     2787.945     1723.285      904.489        1.927        0.271      180.965       27.329        0.023      336.524        7.883      866.409
12/28/2013  14:12:00      111.308     -145.028      -22.699       40.216       41.095       27.425     1617.326     1688.833      752.110        1.900        0.203      182.819       27.516        0.023      336.514        7.864      866.423
12/28/2013  14:13:00        8.971      -45.613        1.105       31.595       54.350       27.760      998.268     2953.870      770.626        0.344        0.236       46.487       30.147        0.421      336.599        8.008      866.434
12/28/2013  14:14:00       86.396     -111.627      -20.455       59.538       63.677       33.099     3544.722     4054.764     1095.551        1.452        0.435      141.156       37.625        0.071      336.657        8.105      866.425
12/28/2013  14:15:00       99.516     -131.268      -26.647       52.507       79.779       35.039     2757.000     6364.753     1227.729        1.910        0.517      164.726       36.951        0.050      336.655        8.101      866.423
12/28/2013  14:16:00       97.923     -128.606      -13.532       48.079       82.014       41.790     2311.591     6726.357     1746.428        1.855        0.539      161.643       51.885        0.103      336.642        8.079      866.435
12/28/2013  14:17:00       35.234      -35.580       18.172       30.247       47.329       23.856      914.866     2240.000      569.123        0.328        0.186       50.073       25.675        0.263      336.793        8.334      866.453
12/28/2013  14:18:00       -0.208      -20.081        2.632        7.741       15.032       15.617       59.917      225.968      243.884        0.047        0.026       20.082        6.946        0.120      336.761        8.281      866.442
12/28/2013  14:19:00       -3.802       25.459       -1.682        8.534       14.198       11.913       72.825      201.573      141.919        0.054        0.021       25.741        7.676        0.089      336.696        8.172      866.425
12/28/2013  14:20:00       11.551       17.507       17.145       14.515        9.911       17.131      210.686       98.234      293.469        0.067        0.030       20.974       12.219        0.339      336.883        8.484      866.420
12/28/2013  14:21:00       86.510       59.272       37.795       38.051       26.545       22.677     1447.884      704.619      514.242        0.755        0.133      104.867       17.072        0.027      336.703        8.185      866.415
12/28/2013  14:22:00       77.248       54.164       37.710       30.780       29.204       30.349      947.429      852.865      921.092        0.652        0.136       94.345       22.845        0.059      336.690        8.163      866.416
12/28/2013  14:23:00       21.093       27.610       50.758       37.312       54.632       24.759     1392.178     2984.670      612.994        0.439        0.249       34.745       27.742        0.637      336.871        8.464      866.412
12/28/2013  14:24:00       41.460       -6.818       27.284       18.694       44.078       21.725      349.473     1942.901      471.989        0.264        0.138       42.017       23.132        0.303      336.700        8.178      866.424
12/28/2013  14:25:00      107.798       47.737       27.303       55.933       27.238       33.554     3128.545      741.931     1125.848        0.982        0.250      117.895       29.238        0.062      336.725        8.220      866.436
12/28/2013  14:26:00       45.834       30.432        4.002       33.694       38.268       30.613     1135.308     1464.442      937.142        0.329        0.177       55.017       25.060        0.207      336.794        8.335      866.456
12/28/2013  14:27:00       86.834       85.500        0.273       50.261       42.668       38.316     2526.136     1820.579     1468.116        1.033        0.291      121.863       25.291        0.043      336.757        8.272      866.460
12/28/2013  14:28:00      136.682       82.689        0.626       48.782       35.849       36.836     2379.723     1285.166     1356.908        1.527        0.251      159.749       19.126        0.014      336.793        8.333      866.455
12/28/2013  14:29:00      105.128       88.293       15.865       60.688       55.334       45.816     3682.999     3061.886     2099.094        1.397        0.442      137.287       35.916        0.068      336.761        8.280      866.468
12/28/2013  14:30:00      143.572       97.151        4.390       77.446       58.819       39.468     5997.912     3459.709     1557.749        2.054        0.551      173.353       29.352        0.029      336.737        8.238      866.470
12/28/2013  14:31:00       67.918      121.409       -0.613       54.913       57.308       42.068     3015.412     3284.172     1769.729        1.371        0.403      139.115       39.462        0.080      336.728        8.225      866.475
12/28/2013  14:32:00       91.294       44.763       -0.945       46.688       42.336       26.294     2179.785     1792.317      691.385        0.750        0.233      101.678       10.479        0.011      336.669        8.128      866.471
12/28/2013  14:33:00       22.968       61.831        8.501       26.292       29.789       23.214      691.244      887.395      538.891        0.327        0.106       65.960       18.183        0.076      336.869        8.461      866.462
12/28/2013  14:34:00       17.384       89.349      -11.564       18.332       37.706       19.638      336.044     1421.758      385.634        0.528        0.107       91.024       19.412        0.045      336.984        8.652      866.472
12/28/2013  14:35:00       62.272       42.509       16.989       50.263       35.085       32.795     2526.331     1230.926     1075.520        0.540        0.242       75.398       23.144        0.094      336.976        8.637      866.483
12/28/2013  14:36:00      -24.591       69.725       -9.603       33.881       40.079       25.899     1147.918     1606.344      670.743        0.449        0.171       73.934       18.379        0.062      336.996        8.671      866.485
12/28/2013  14:37:00      -18.756       70.901        4.489       33.661       54.519       25.473     1133.045     2972.341      648.853        0.508        0.238       73.340       25.517        0.121      337.075        8.804      866.467
12/28/2013  14:38:00       11.351      149.357      -24.469       36.495       75.642       35.026     1331.877     5721.681     1226.839        1.566        0.414      149.788       39.106        0.068      336.890        8.493      866.470
12/28/2013  14:39:00       16.860      106.615      -16.562       46.958       49.559       30.959     2205.022     2456.063      958.463        0.877        0.281      107.940       29.304        0.074      337.096        8.838      866.484
12/28/2013  14:40:00       68.005      132.039      -10.613       48.974       86.009       43.062     2398.466     7397.547     1854.374        1.691        0.583      148.523       47.778        0.103      336.822        8.380      866.494
12/28/2013  14:41:00       34.622      100.280       -9.518       32.087       41.816       33.528     1029.574     1748.585     1124.129        0.762        0.195      106.088       29.713        0.078      336.723        8.217      866.489
12/28/2013  14:42:00       89.804       81.307       10.265       81.057       36.838       42.117     6570.231     1357.006     1773.870        1.224        0.485      121.143       34.348        0.080      336.869        8.460      866.477
12/28/2013  14:43:00      124.601       78.305       65.310       49.010       46.938       44.085     2401.979     2203.173     1943.484        1.623        0.327      147.164       26.160        0.032      336.818        8.376      866.465
12/28/2013  14:44:00       75.606       71.310       47.621       34.690       26.567       30.073     1203.387      705.820      904.407        0.794        0.141      103.930       20.232        0.038      336.736        8.239      866.473
12/28/2013  14:45:00      107.224       85.525       33.284       52.226       25.253       25.083     2727.607      637.710      629.177        1.196        0.200      137.155       20.617        0.023      336.811        8.363      866.475
12/28/2013  14:46:00       76.418       45.109       23.305       43.907       29.190       26.924     1927.829      852.069      724.889        0.596        0.175       88.739       17.601        0.039      336.934        8.567      866.479
12/28/2013  14:47:00       82.070       62.131       16.738       60.716       33.757       29.879     3686.403     1139.552      892.773        0.830        0.286      102.936       21.739        0.045      336.970        8.629      866.484
12/28/2013  14:48:00       72.840       81.108       10.867       51.911       57.672       41.339     2694.785     3326.037     1708.909        0.986        0.386      109.015       40.482        0.138      336.874        8.468      866.499
12/28/2013  14:49:00       87.065       97.677       -1.089       50.207       67.107       47.320     2520.750     4503.364     2239.176        1.319        0.463      130.847       43.972        0.113      336.938        8.574      866.510
12/28/2013  14:50:00       38.467      150.906        1.440       75.338      116.931       57.421     5675.847    13672.922     3297.120        2.345        1.132      155.731       67.769        0.189      336.915        8.536      866.523
12/28/2013  14:51:00       73.650      104.511        3.365       80.688       61.833       41.561     6510.506     3823.313     1727.342        1.421        0.603      127.855       35.227        0.076      336.798        8.342      866.521
12/28/2013  14:52:00       20.400      105.612      -11.384       44.982       83.076       35.109     2023.342     6901.568     1232.625        1.093        0.508      107.565       44.611        0.172      336.901        8.512      866.520
12/28/2013  14:53:00       30.085      136.859      -12.380       62.234       86.096       38.866     3873.087     7412.497     1510.553        1.629        0.640      140.127       40.377        0.083      336.846        8.421      866.525
12/28/2013  14:54:00       48.918       72.385        1.487       65.404       72.799       47.703     4277.712     5299.738     2275.591        0.974        0.593       87.364       34.162        0.153      336.806        8.353      866.533
12/28/2013  14:55:00       18.136      105.769      -23.910       63.515       67.442       43.638     4034.146     4548.425     1904.298        1.129        0.524      107.313       35.926        0.112      336.778        8.308      866.540
12/28/2013  14:56:00       61.830      113.108        6.299       96.485       82.406       64.813     9309.333     6790.745     4200.717        1.848        1.015      128.905       59.889        0.216      336.813        8.366      866.539
12/28/2013  14:57:00      244.075      158.637       35.845      114.408       88.537       54.988    13089.101     7838.882     3023.666        5.498        1.198      291.098       48.970        0.028      336.656        8.102      866.530
12/28/2013  14:58:00      171.170      154.238       14.033       94.132       73.390       50.523     8860.923     5386.056     2552.535        3.504        0.840      230.410       28.452        0.015      336.671        8.127      866.542
12/28/2013  14:59:00      137.305      114.048       12.706       83.169       53.974       47.068     6917.053     2913.153     2215.425        2.203        0.602      178.492       41.555        0.054      336.673        8.133      866.547
12/28/2013  15:00:00      127.723      105.806        7.477       78.028       55.256       46.053     6088.420     3053.266     2120.855        1.941        0.563      165.856       35.214        0.045      336.764        8.282      866.557
12/28/2013  15:01:00       65.298      219.646      -18.410       68.597      116.771       68.376     4705.556    13635.407     4675.296        3.793        1.151      229.146       72.266        0.099      336.651        8.093      866.565
12/28/2013  15:02:00       43.698      171.616      -14.031       68.894       75.601       57.240     4746.394     5715.585     3276.378        2.265        0.687      177.092       47.892        0.073      336.631        8.062      866.568
12/28/2013  15:03:00       46.231      177.008      -21.403       59.871       79.173       51.393     3584.540     6268.336     2641.216        2.321        0.625      182.946       46.296        0.064      336.594        8.000      866.569
12/28/2013  15:04:00       54.165      110.171        3.607       49.471       87.631       55.706     2447.381     7679.273     3103.125        1.415        0.661      122.766       54.635        0.198      336.684        8.152      866.578
12/28/2013  15:05:00       43.459      138.306       -9.866       57.546       80.342       41.215     3311.566     6454.757     1698.694        1.629        0.573      144.973       40.173        0.077      336.730        8.229      866.583
12/28/2013  15:06:00      151.657      108.575       12.644       76.404       50.076       47.981     5837.627     2507.605     2302.132        2.280        0.532      186.516       39.740        0.045      336.668        8.122      866.587
12/28/2013  15:07:00       75.899       98.122       -5.979       66.714       70.259       53.660     4450.714     4936.367     2879.364        1.384        0.613      124.051       50.848        0.168      336.620        8.046      866.582
12/28/2013  15:08:00       63.788      180.049      -18.892       59.739       67.060       49.931     3568.734     4496.998     2493.079        2.370        0.528      191.015       45.263        0.056      336.638        8.073      866.570
12/28/2013  15:09:00       30.626       76.595        5.023       60.089       61.804       43.259     3610.671     3819.775     1871.369        0.806        0.465       82.491       35.515        0.185      336.724        8.218      866.566
12/28/2013  15:10:00       60.567      102.405       -1.810       79.905       53.914       40.430     6384.750     2906.718     1634.587        1.254        0.546      118.975       33.284        0.078      336.728        8.225      866.544
12/28/2013  15:11:00       47.889      101.354      -10.785       51.788       57.118       30.691     2682.039     3262.469      941.949        0.978        0.344      112.098       32.398        0.084      336.739        8.244      866.526
12/28/2013  15:12:00       67.763      118.672       -3.335       67.497       72.196       42.823     4555.854     5212.253     1833.790        1.514        0.580      136.656       45.113        0.109      336.758        8.275      866.523
12/28/2013  15:13:00       61.690       61.212       -0.007       60.230       52.785       33.320     3627.602     2786.204     1110.207        0.754        0.376       86.905       32.222        0.137      336.696        8.172      866.532
12/28/2013  15:14:00       48.374       80.389        9.504       52.744       77.686       49.734     2781.882     6035.186     2473.494        1.009        0.565       93.821       45.201        0.232      336.717        8.206      866.547
12/28/2013  15:15:00       56.770       54.094        6.103       49.662       48.989       46.854     2466.322     2399.920     2195.314        0.662        0.353       78.415       31.097        0.157      336.705        8.188      866.560
12/28/2013  15:16:00       41.738       46.744        5.878       51.988       57.069       28.356     2702.755     3256.913      804.082        0.536        0.338       62.667       28.171        0.202      336.732        8.233      866.552
12/28/2013  15:17:00       46.032       66.793        6.819       44.582       39.002       29.873     1987.560     1521.177      892.416        0.551        0.220       81.119       24.396        0.090      336.764        8.287      866.534
12/28/2013  15:18:00       20.617       63.550        8.919       35.609       63.249       30.243     1267.971     4000.390      914.628        0.536        0.309       66.810       35.569        0.283      336.834        8.402      866.531
12/28/2013  15:19:00       54.255       36.671       -2.814       52.527       44.422       31.222     2759.074     1973.325      974.794        0.500        0.285       65.486       22.555        0.119      336.710        8.196      866.526
12/28/2013  15:20:00       80.030       25.096       10.316       42.050       44.339       24.548     1768.213     1965.912      602.582        0.574        0.217       83.873       14.036        0.028      336.687        8.157      866.528
12/28/2013  15:21:00        0.496      121.203      -16.047       59.433       74.553       33.576     3532.267     5558.108     1127.380        1.258        0.511      121.204       35.903        0.088      336.729        8.226      866.549
12/28/2013  15:22:00      -24.258      201.565      -26.965       31.032       59.813       23.275      962.986     3577.542      541.725        2.351        0.254      203.019       24.429        0.014      336.579        7.972      866.563
12/28/2013  15:23:00       19.337       99.265      -11.117       32.734       60.073       23.808     1071.523     3608.732      566.838        0.780        0.262      101.131       26.807        0.070      336.627        8.057      866.558
12/28/2013  15:24:00      -13.666      128.075       -4.914       65.260       50.707       41.107     4258.857     2571.156     1689.752        1.257        0.426      128.802       33.294        0.067      336.627        8.057      866.548
12/28/2013  15:25:00      -47.289      194.647      -27.936       36.233       52.166       27.575     1312.862     2721.312      760.369        2.285        0.240      200.309       24.390        0.015      336.679        8.141      866.563
12/28/2013  15:26:00        2.996      207.149      -26.366       53.125       64.037       30.468     2822.311     4100.755      928.319        2.573        0.393      207.170       35.138        0.029      336.662        8.113      866.580
12/28/2013  15:27:00        3.462      218.168      -33.475       30.546       68.321       24.752      933.039     4667.699      612.674        2.747        0.311      218.195       33.053        0.023      336.632        8.062      866.591
12/28/2013  15:28:00      -11.425      211.788      -32.640       39.259       46.556       19.334     1541.235     2167.457      373.816        2.507        0.204      212.095       15.064        0.005      336.596        8.002      866.606
12/28/2013  15:29:00       57.453      131.510      -10.560       51.902       67.277       45.384     2693.826     4526.136     2059.732        1.499        0.464      143.512       43.471        0.092      336.606        8.022      866.618
12/28/2013  15:30:00       54.945      122.051      -14.332       49.271       71.050       41.758     2427.630     5048.098     1743.692        1.367        0.461      133.849       35.915        0.072      336.624        8.052      866.620
12/28/2013  15:31:00       -6.583      245.420      -35.397       47.493       74.868       36.766     2255.599     5605.289     1351.742        3.537        0.461      245.509       36.647        0.022      336.604        8.015      866.624
12/28/2013  15:32:00        3.313      257.227      -35.900       42.696       55.493       31.653     1822.984     3079.458     1001.897        3.668        0.295      257.248       27.758        0.012      336.530        7.891      866.631
12/28/2013  15:33:00      -27.083      259.640      -33.713       36.479       35.858       21.493     1330.746     1285.778      461.940        3.618        0.154      261.049       12.739        0.002      336.517        7.867      866.647
12/28/2013  15:34:00       -3.305      212.607      -32.214       47.512       56.070       26.398     2257.381     3143.836      696.847        2.617        0.305      212.633       24.661        0.013      336.556        7.934      866.659
12/28/2013  15:35:00        0.576      259.729      -36.816       45.638       47.586       28.409     2082.796     2264.412      807.094        3.698        0.258      259.730       25.148        0.009      336.525        7.882      866.677
12/28/2013  15:36:00       30.197      230.086      -29.559       41.955       48.797       31.384     1760.200     2381.147      984.953        2.992        0.256      232.059       25.538        0.012      336.537        7.903      866.705
12/28/2013  15:37:00       -3.391      137.777      -13.963       47.200       54.948       33.414     2227.878     3019.319     1116.478        1.278        0.318      137.819       33.879        0.060      336.597        8.006      866.717
12/28/2013  15:38:00       51.337       92.854      -19.945       51.207       54.254       30.120     2622.158     2943.473      907.218        0.906        0.324      106.100       28.538        0.072      336.558        7.943      866.725
12/28/2013  15:39:00       28.206       86.939       -5.883       41.774       52.863       33.915     1745.073     2794.520     1150.250        0.704        0.284       91.400       30.521        0.112      336.552        7.930      866.720
12/28/2013  15:40:00       35.764       79.705        8.558       52.090       44.766       34.030     2713.358     2004.028     1158.059        0.679        0.294       87.361       28.146        0.104      336.563        7.948      866.712
12/28/2013  15:41:00        3.579       83.634      -11.291       33.715       49.257       25.336     1136.726     2426.260      641.906        0.567        0.210       83.710       22.508        0.072      336.623        8.050      866.711
12/28/2013  15:42:00       44.382      142.841      -14.599       52.662       99.524       46.755     2773.291     9905.000     2186.039        1.872        0.743      149.577       50.329        0.113      336.571        7.962      866.718
12/28/2013  15:43:00       51.166       73.324       20.360       55.878       50.445       41.295     3122.338     2544.744     1705.299        0.789        0.369       89.411       29.705        0.110      336.535        7.904      866.737
12/28/2013  15:44:00       82.341       54.481       18.820       70.013       51.450       35.564     4901.868     2647.136     1264.827        0.946        0.441       98.733       23.099        0.055      336.551        7.929      866.751
12/28/2013  15:45:00       27.812      116.374      -13.502       42.265       47.594       30.528     1786.363     2265.216      931.961        0.974        0.249      119.652       26.328        0.048      336.586        7.989      866.778
12/28/2013  15:46:00       31.423      202.811      -19.450       51.143       91.685       54.364     2615.599     8406.173     2955.433        2.824        0.699      205.231       52.811        0.066      336.504        7.847      866.808
12/28/2013  15:47:00       30.489      120.530      -13.305       54.247       90.639       47.714     2942.783     8215.430     2276.580        1.453        0.672      124.326       40.170        0.104      336.530        7.894      866.822
12/28/2013  15:48:00      -36.730      170.922      -22.171       58.497       43.394       28.699     3421.934     1883.041      823.617        1.859        0.306      174.824       20.600        0.014      336.603        8.015      866.844
12/28/2013  15:49:00      -44.086      147.718       -0.165       48.171       68.714       42.348     2320.479     4721.546     1793.343        1.630        0.442      154.157       45.540        0.087      336.634        8.067      866.870
12/28/2013  15:50:00      -38.189      294.126      -38.804       54.161       51.045       25.708     2933.451     2605.621      660.906        4.784        0.310      296.595       23.200        0.006      336.456        7.764      866.889
12/28/2013  15:51:00       -5.387      319.881      -49.656       30.515       54.301       18.208      931.159     2948.588      331.534        5.451        0.211      319.926       20.476        0.004      336.487        7.816      866.898
12/28/2013  15:52:00      -27.479      160.566      -22.177       41.611       38.896       20.806     1731.511     1512.896      432.879        1.535        0.184      162.900       15.054        0.009      336.583        7.982      866.907
12/28/2013  15:53:00      -40.376      131.210      -24.947       49.701       46.218       26.481     2470.204     2136.143      701.225        1.239        0.265      137.282       20.686        0.023      336.633        8.067      866.915
12/28/2013  15:54:00      -27.858      173.712      -21.393       55.845       56.978       31.189     3118.640     3246.497      972.763        1.937        0.367      175.931       29.462        0.028      336.539        7.910      866.915
12/28/2013  15:55:00       21.089       97.474      -11.134       25.724       39.733       25.536      661.746     1578.706      652.070        0.648        0.145       99.729       23.756        0.057      336.488        7.823      866.913
12/28/2013  15:56:00       34.205       76.695       -0.849       41.267       38.011       23.250     1702.999     1444.818      540.579        0.537        0.184       83.977       20.927        0.062      336.495        7.835      866.915
12/28/2013  15:57:00       36.051      134.011       -4.378       67.971       74.018       37.761     4620.078     5478.666     1425.880        1.540        0.576      138.776       41.478        0.089      336.436        7.734      866.909
12/28/2013  15:58:00       37.776       93.233       -3.607       57.767       70.603       48.317     3337.014     4984.799     2334.540        1.039        0.533      100.595       43.244        0.185      336.454        7.766      866.906
12/28/2013  15:59:00      -15.009       78.430      -18.913       23.949       33.206       12.123      573.546     1102.668      146.977        0.428        0.091       79.853        9.864        0.015      336.521        7.879      866.897
12/28/2013  16:00:00      -37.349       72.883      -13.131       32.212       30.633       19.700     1037.588      938.378      388.088        0.462        0.118       81.896       15.899        0.038      336.681        8.147      866.882
12/28/2013  16:01:00      -23.511      110.789       -7.961       37.895       45.915       27.540     1436.028     2108.199      758.466        0.860        0.215      113.256       25.067        0.049      336.579        7.974      866.875
12/28/2013  16:02:00        3.182      165.070      -20.564       44.784       69.958       33.035     2005.584     4894.180     1091.307        1.783        0.400      165.101       37.682        0.052      336.468        7.788      866.875
12/28/2013  16:03:00      -50.792       41.082      -10.385       31.026       60.651       18.859      962.627     3678.504      355.669        0.469        0.250       65.326       19.940        0.093      336.536        7.904      866.886
12/28/2013  16:04:00      -64.107       68.553      -17.975       33.627       37.381       22.321     1130.806     1397.342      498.223        0.608        0.151       93.857       10.021        0.011      336.512        7.864      866.887
12/28/2013  16:05:00      -13.983       86.819      -10.684       23.850       35.924       20.653      568.828     1290.533      426.530        0.507        0.114       87.937       10.053        0.013      336.512        7.864      866.880
12/28/2013  16:06:00      -32.083       50.676       -6.469       33.691       31.588       17.110     1135.093      997.829      292.737        0.303        0.121       59.978       12.412        0.043      336.572        7.964      866.886
12/28/2013  16:07:00      -33.245      168.808      -15.340       33.907       50.243       23.450     1149.692     2524.338      549.900        1.703        0.211      172.051       24.121        0.020      336.380        7.643      866.913
12/28/2013  16:08:00      -64.360      147.654      -17.836       50.427       83.799       35.592     2542.900     7022.354     1266.790        1.855        0.542      161.071       42.626        0.070      336.291        7.493      866.948
12/28/2013  16:09:00     -135.424      203.656      -45.755      104.890       95.446       49.703    11001.891     9109.906     2470.345        4.224        1.129      244.572       52.524        0.046      336.215        7.364      866.968
12/28/2013  16:10:00      -77.694      232.376      -32.302       60.680       64.620       32.806     3682.103     4175.701     1076.224        3.500        0.447      245.020       28.126        0.013      336.120        7.206      866.992
12/28/2013  16:11:00      -51.493      187.921      -27.406       44.993       67.518       39.043     2024.415     4558.691     1524.318        2.341        0.405      194.848       36.882        0.036      336.119        7.204      866.992
12/28/2013  16:12:00      -94.933      211.511      -21.163       68.010       76.320       42.263     4625.375     5824.766     1786.132        3.321        0.612      231.838       38.788        0.028      336.149        7.253      866.989
12/28/2013  16:13:00      -96.025      221.500      -37.070       72.398       66.635       37.891     5241.417     4440.176     1435.709        3.539        0.556      241.419       35.982        0.022      336.038        7.069      866.985
12/28/2013  16:14:00      -77.978      200.080      -23.893       60.257       70.686       37.542     3630.924     4996.550     1409.417        2.836        0.502      214.738       32.382        0.023      336.034        7.061      866.970
12/28/2013  16:15:00      -72.398      123.782      -22.803       38.096       55.771       27.325     1451.307     3110.454      746.680        1.320        0.265      143.400       30.241        0.044      336.053        7.096      866.969
12/28/2013  16:16:00     -163.386       73.535      -14.910       82.757       37.484       36.667     6848.684     1405.059     1344.434        2.096        0.480      179.171       33.220        0.034      336.079        7.138      866.964
12/28/2013  16:17:00     -144.906      170.485      -34.595       56.922       69.093       37.304     3240.134     4773.821     1391.583        3.033        0.470      223.747       27.182        0.015      335.943        6.911      866.958
12/28/2013  16:18:00     -116.627      221.960      -24.480       48.477       60.679       39.090     2350.052     3681.923     1528.057        3.551        0.378      250.735       32.583        0.017      335.905        6.846      866.961
12/28/2013  16:19:00      -86.595      175.209      -20.088       41.911       52.435       33.478     1756.550     2749.444     1120.804        2.211        0.281      195.440       27.581        0.020      335.962        6.942      866.979
12/28/2013  16:20:00     -141.242      111.599      -28.253       49.853       63.444       27.964     2485.345     4025.163      782.004        2.025        0.365      180.010       20.463        0.013      335.927        6.885      866.991
12/28/2013  16:21:00     -109.204      164.503      -28.133       39.506       58.998       34.204     1560.730     3480.758     1169.943        2.299        0.311      197.450       28.333        0.021      335.890        6.822      867.014
12/28/2013  16:22:00     -116.853      193.155      -28.649       56.934       62.886       36.441     3241.480     3954.658     1327.957        3.015        0.426      225.751       37.540        0.028      335.840        6.738      867.017
12/28/2013  16:23:00      -90.954      130.022      -23.287       37.456       81.941       34.406     1402.921     6714.320     1183.764        1.751        0.465      158.676       34.267        0.047      335.879        6.806      867.020
12/28/2013  16:24:00      -66.277       59.046       -5.913       29.853       35.686       20.543      891.212     1273.468      422.016        0.525        0.129       88.764       16.184        0.033      335.886        6.818      867.017
12/28/2013  16:25:00      -73.217      145.901      -26.558       42.168       34.462       28.527     1778.182     1187.616      813.775        1.557        0.189      163.242       25.287        0.024      335.779        6.641      867.031
12/28/2013  16:26:00      -63.168      100.764      -17.796       39.552       48.666       19.612     1564.383     2368.396      384.632        0.939        0.216      118.927       18.837        0.025      335.797        6.670      867.042
12/28/2013  16:27:00      -54.538      109.297      -16.254       31.211       47.617       27.622      974.100     2267.383      762.978        0.959        0.200      122.148       21.894        0.032      335.764        6.614      867.055
12/28/2013  16:28:00      -54.237      123.189      -13.693       34.660       77.494       26.637     1201.294     6005.265      709.527        1.311        0.396      134.600       26.206        0.038      335.690        6.493      867.067
12/28/2013  16:29:00      -52.034      175.281      -18.792       49.075       57.589       37.801     2408.354     3316.512     1428.942        2.047        0.358      182.842       33.547        0.034      335.626        6.385      867.082
12/28/2013  16:30:00      -50.718       82.485       -4.412       46.217       65.000       30.496     2136.056     4225.044      930.030        0.834        0.365       96.830       30.271        0.098      335.656        6.436      867.103
12/28/2013  16:31:00      -96.254      114.194      -23.648       52.901       62.641       33.816     2798.479     3923.886     1143.501        1.536        0.393      149.349       27.118        0.033      335.576        6.301      867.124
12/28/2013  16:32:00      -48.265      152.375      -14.414       35.943       44.248       28.117     1291.891     1957.886      790.546        1.490        0.202      159.836       25.719        0.026      335.637        6.405      867.136
12/28/2013  16:33:00      -53.440      163.582      -22.175       68.552       69.186       37.996     4699.346     4786.723     1443.733        2.052        0.546      172.089       39.121        0.052      335.591        6.327      867.153
12/28/2013  16:34:00      -34.506      180.933      -23.507       36.120       38.874       25.702     1304.645     1511.200      660.600        1.898        0.174      184.194       18.930        0.011      335.463        6.113      867.165
12/28/2013  16:35:00       12.418      201.860      -33.448       30.508       38.182       24.933      930.718     1457.842      621.666        2.251        0.151      202.241       17.106        0.007      335.380        5.974      867.183
12/28/2013  16:36:00      -32.643      161.383      -28.335       35.711       31.759       20.839     1275.244     1008.605      434.284        1.532        0.136      164.651       16.954        0.011      335.419        6.040      867.202
12/28/2013  16:37:00      -94.924      116.428      -12.160       57.071       51.660       32.463     3257.087     2668.783     1053.871        1.485        0.349      150.220       25.673        0.029      335.490        6.158      867.214
12/28/2013  16:38:00     -105.937      150.723      -23.507       61.840       58.731       38.801     3824.143     3449.299     1505.488        2.163        0.439      184.229       40.651        0.049      335.409        6.022      867.218
12/28/2013  16:39:00     -116.590      132.362      -26.040       59.781       90.100       41.213     3573.709     8118.069     1698.542        2.259        0.670      176.389       52.811        0.090      335.401        6.008      867.223
12/28/2013  16:40:00     -142.346      138.720      -27.824       51.209       64.347       29.254     2622.381     4140.577      855.805        2.395        0.381      198.760       28.400        0.020      335.348        5.919      867.220
12/28/2013  16:41:00     -119.047      120.076      -18.645       49.346      112.261       40.851     2434.995    12602.449     1668.776        2.282        0.835      169.087       46.021        0.074      335.333        5.893      867.227
12/28/2013  16:42:00      -79.870       38.952        0.762       71.421       85.488       41.461     5100.889     7308.275     1719.020        1.101        0.706       88.863       46.410        0.273      335.285        5.815      867.231
12/28/2013  16:43:00      -75.179       89.796      -11.535       62.176       69.863       28.582     3865.907     4880.804      816.952        1.170        0.478      117.112       27.467        0.055      335.332        5.895      867.225
12/28/2013  16:44:00     -130.195       77.905      -19.008       56.924       49.398       38.484     3240.398     2440.204     1480.996        1.527        0.358      151.724       26.675        0.031      335.211        5.693      867.227
12/28/2013  16:45:00      -75.551       81.676      -14.103       41.450       46.188       26.816     1718.076     2133.352      719.099        0.857        0.229      111.260       14.394        0.017      335.257        5.770      867.218
12/28/2013  16:46:00     -132.593       79.357      -13.011       51.963       54.675       37.002     2700.187     2989.393     1369.112        1.555        0.353      154.526       33.139        0.046      335.197        5.671      867.203
12/28/2013  16:47:00      -94.335       38.231      -11.033       52.369       52.288       34.802     2742.538     2734.004     1211.162        0.858        0.334      101.788       24.354        0.057      335.168        5.622      867.206
12/28/2013  16:48:00     -147.249       51.749      -12.127       49.451       44.605       28.667     2445.410     1989.621      821.788        1.488        0.263      156.078        9.950        0.004      335.114        5.534      867.212
12/28/2013  16:49:00     -130.298      126.852      -28.095       50.766       58.768       34.163     2577.152     3453.661     1167.116        2.053        0.360      181.849       31.465        0.030      335.073        5.465      867.223
12/28/2013  16:50:00     -110.769       47.353      -24.917       49.252       51.583       29.276     2425.779     2660.835      857.077        1.054        0.297      120.466       37.071        0.095      335.121        5.545      867.221
12/28/2013  16:51:00     -141.054       49.108      -26.426       49.452       65.761       28.943     2445.545     4324.470      837.692        1.531        0.380      149.358       27.052        0.033      335.012        5.364      867.223
12/28/2013  16:52:00     -158.499      139.434      -33.505       55.661       71.032       38.394     3098.135     5045.559     1474.086        2.765        0.481      211.101       36.804        0.030      335.128        5.554      867.218
12/28/2013  16:53:00     -110.709       68.577      -12.458       48.594       64.554       35.522     2361.385     4167.193     1261.828        1.245        0.390      130.228       35.502        0.074      335.124        5.550      867.228
12/28/2013  16:54:00     -121.621       45.641       -9.331       42.184       74.157       28.833     1779.459     5499.249      831.324        1.253        0.406      129.902       23.666        0.033      335.101        5.512      867.249
12/28/2013  16:55:00     -104.584       93.566      -11.388       59.784       57.146       33.541     3574.115     3265.620     1124.986        1.389        0.398      140.330       26.100        0.035      335.124        5.549      867.285
12/28/2013  16:56:00      -78.338      110.436      -15.884       31.487       46.532       22.822      991.401     2165.257      520.864        1.113        0.184      135.399       20.927        0.024      335.154        5.600      867.327
12/28/2013  16:57:00     -112.103       82.021      -28.001       27.959       38.193       16.037      781.694     1458.724      257.184        1.129        0.125      138.905       12.006        0.007      335.056        5.438      867.357
12/28/2013  16:58:00      -95.511       47.527      -16.137       42.850       38.186       23.565     1836.142     1458.136      555.304        0.774        0.192      106.683       23.538        0.049      335.058        5.442      867.373
12/28/2013  16:59:00     -125.374       71.672      -21.995       49.476       40.059       27.805     2447.874     1604.755      773.133        1.308        0.241      144.414       27.771        0.037      335.086        5.487      867.375
12/28/2013  17:00:00      -91.484      117.877      -16.774       78.292       56.218       42.920     6129.692     3160.502     1842.140        1.684        0.557      149.213       49.642        0.111      335.022        5.381      867.388
12/28/2013  17:01:00      -98.372       84.702      -31.473       47.249       38.885       23.143     2232.452     1512.075      535.595        1.106        0.214      129.813       22.240        0.029      335.022        5.381      867.401
12/28/2013  17:02:00      -47.552       82.673       -1.903       39.463       53.376       29.342     1557.297     2849.048      860.979        0.718        0.263       95.373       24.500        0.066      335.020        5.377      867.412
12/28/2013  17:03:00     -121.050       90.008      -26.604       59.459       51.859       31.246     3535.425     2689.400      976.289        1.533        0.360      150.846       35.930        0.057      335.012        5.363      867.413
12/28/2013  17:04:00      -93.333       83.848      -25.936       45.316       40.792       30.383     2053.528     1663.953      923.101        1.053        0.232      125.465       29.072        0.054      334.935        5.235      867.400
12/28/2013  17:05:00     -123.078       60.016      -21.393       42.313       44.549       29.245     1790.352     1984.588      855.295        1.192        0.232      136.931       21.213        0.024      334.945        5.252      867.395
12/28/2013  17:06:00     -113.703       88.319      -24.718       53.378       55.028       27.436     2849.185     3028.098      752.715        1.398        0.331      143.974       20.910        0.021      334.917        5.206      867.390
12/28/2013  17:07:00     -133.520       52.734      -12.179       85.145       46.021       30.447     7249.709     2117.920      927.043        1.552        0.515      143.556       30.142        0.044      334.852        5.097      867.405
12/28/2013  17:08:00      -85.095       66.433      -17.424       33.209       32.675       25.302     1102.847     1067.628      640.197        0.738        0.141      107.956       14.496        0.018      334.829        5.060      867.416
12/28/2013  17:09:00      -57.714       36.163       -3.125       42.131       33.383       26.033     1774.996     1114.448      677.702        0.411        0.178       68.108       22.548        0.110      334.874        5.134      867.426
12/28/2013  17:10:00      -75.839       79.374      -13.550       47.065       50.217       23.580     2215.122     2521.723      555.997        0.876        0.265      109.781       17.851        0.026      334.883        5.150      867.445
12/28/2013  17:11:00      -80.947      104.601      -17.852       27.729       68.239       27.448      768.906     4656.510      753.399        1.199        0.309      132.265       29.862        0.051      334.823        5.049      867.465
12/28/2013  17:12:00      -94.351       63.559      -16.438       38.622       37.344       24.449     1491.640     1394.577      597.731        0.835        0.174      113.762       17.822        0.025      334.856        5.105      867.477
12/28/2013  17:13:00      -53.372       86.222      -16.345       50.356       43.952       32.163     2535.689     1931.753     1034.451        0.802        0.275      101.404       22.520        0.049      334.856        5.105      867.493
12/28/2013  17:14:00      -41.210       91.312      -17.399       30.874       30.176       19.893      953.214      910.578      395.724        0.630        0.113      100.180       10.931        0.012      334.920        5.211      867.505
12/28/2013  17:15:00      -41.195       41.360       -7.159       26.671       18.839       20.045      711.328      354.905      401.785        0.246        0.073       58.375       12.990        0.050      334.904        5.183      867.512
12/28/2013  17:16:00       10.236       22.201        4.656       19.856       24.657       12.724      394.248      607.983      161.897        0.089        0.058       24.447       11.353        0.216      334.804        5.017      867.518
12/28/2013  17:17:00      -32.267      109.231      -22.194       54.568       36.606       21.936     2977.635     1340.006      481.201        0.913        0.240      113.897       16.163        0.020      334.836        5.072      867.532
12/28/2013  17:18:00        8.531       98.128      -21.833       51.345       25.251       16.868     2636.349      637.611      284.533        0.687        0.178       98.498       15.109        0.024      334.835        5.070      867.520
12/28/2013  17:19:00      -31.662      149.011      -26.606       29.323       31.671       15.382      859.857     1003.051      236.609        1.301        0.105      152.338        5.310        0.001      334.872        5.130      867.514
12/28/2013  17:20:00      -73.362       76.506      -19.748       19.930       28.100       14.009      397.217      789.585      196.261        0.650        0.069      105.996        9.863        0.009      334.863        5.117      867.522
12/28/2013  17:21:00      -72.547       77.211      -18.869       32.366       32.309       18.712     1047.586     1043.865      350.127        0.701        0.122      105.946       20.437        0.037      334.754        4.935      867.541
12/28/2013  17:22:00      -79.629       62.366      -16.983       20.280       32.898       16.282      411.261     1082.276      265.107        0.614        0.088      101.145       14.052        0.019      334.757        4.941      867.559
12/28/2013  17:23:00      -84.928      105.044      -23.523       31.933       40.536       23.899     1019.726     1643.139      571.183        1.102        0.162      135.082       22.983        0.029      334.736        4.906      867.582
12/28/2013  17:24:00      -98.090       52.121      -20.724       26.037       35.753       14.122      677.944     1278.285      199.439        0.746        0.108      111.078       11.928        0.012      334.682        4.815      867.581
12/28/2013  17:25:00      -85.323       26.883      -12.810       21.515       24.477       13.299      462.914      599.144      176.865        0.470        0.062       89.458        8.597        0.009      334.746        4.922      867.584
12/28/2013  17:26:00      -73.859       37.339       -9.600       29.209       28.554       17.901      853.152      815.359      320.450        0.446        0.099       82.761       13.662        0.027      334.764        4.953      867.600
12/28/2013  17:27:00      -84.138       51.764      -10.304       40.708       26.461       24.749     1657.103      700.201      612.489        0.642        0.148       98.786       15.048        0.023      334.793        5.000      867.604
12/28/2013  17:28:00      -73.212       43.629       -9.045       29.019       29.900       20.860      842.118      894.005      435.129        0.476        0.109       85.226       16.564        0.038      334.791        4.996      867.608
12/28/2013  17:29:00      -87.099       92.630      -22.471       24.378       37.108       16.286      594.298     1377.012      265.239        0.945        0.112      127.147       12.169        0.009      334.723        4.884      867.625
12/28/2013  17:30:00      -82.106       92.859      -24.609       32.726       39.947       22.027     1071.011     1595.748      485.168        0.956        0.158      123.952       22.694        0.034      334.804        5.019      867.643
12/28/2013  17:31:00      -33.918      151.542      -10.728       29.623       64.832       23.572      877.526     4203.221      555.646        1.493        0.282      155.291       25.246        0.026      334.785        4.984      867.656
12/28/2013  17:32:00      -53.200       73.900      -13.415       30.632       33.171       21.271      938.314     1100.312      452.463        0.548        0.125       91.057       18.115        0.040      334.832        5.065      867.659
12/28/2013  17:33:00      -42.676       83.945      -10.008       29.125       41.468       21.562      848.267     1719.588      464.941        0.600        0.152       94.170       14.022        0.022      334.827        5.057      867.671
12/28/2013  17:34:00      -43.585       86.708      -13.030       49.694       55.410       31.173     2469.499     3070.305      971.729        0.805        0.326       97.046       28.699        0.087      334.767        4.956      867.670
12/28/2013  17:35:00      -18.779      130.316      -15.773       21.363       31.835       12.197      456.370     1013.459      148.776        0.960        0.081      131.662        9.730        0.005      334.778        4.975      867.680
12/28/2013  17:36:00      -21.647      121.190      -19.010       16.591       29.581       10.310      275.273      875.061      106.294        0.839        0.063      123.108        8.693        0.005      334.740        4.912      867.684
12/28/2013  17:37:00      -13.515      118.685      -13.292       18.107       21.279       10.582      327.856      452.788      111.976        0.767        0.045      119.452        7.826        0.004      334.742        4.915      867.680
12/28/2013  17:38:00      -26.072      112.389      -12.589       23.401       49.098       15.681      547.622     2410.610      245.882        0.834        0.160      115.374       17.068        0.022      334.783        4.984      867.691
12/28/2013  17:39:00      -31.440       24.208        1.383       23.917       21.064       14.277      572.024      443.709      203.839        0.140        0.061       39.680        8.003        0.041      334.751        4.931      867.708
12/28/2013  17:40:00       10.514       81.860       -5.907       23.719       35.087       15.293      562.597     1231.107      233.874        0.444        0.101       82.532       17.396        0.044      334.739        4.910      867.730
12/28/2013  17:41:00      -64.670       91.113      -19.395       41.564       43.663       22.978     1727.580     1906.479      527.998        0.851        0.208      111.731       15.702        0.020      334.774        4.968      867.739
12/28/2013  17:42:00      -61.498       71.444       -2.872       32.573       56.186       24.550     1060.988     3156.860      602.689        0.686        0.241       94.267       15.536        0.027      334.714        4.868      867.730
12/28/2013  17:43:00      -79.439       26.893       -8.436       48.223       27.381       15.923     2325.448      749.703      253.530        0.522        0.166       83.868       19.837        0.056      334.670        4.795      867.733
12/28/2013  17:44:00      -92.758        0.595       -9.046       48.286       35.302       18.599     2331.577     1246.251      345.922        0.630        0.196       92.760       22.500        0.059      334.679        4.811      867.726
12/28/2013  17:45:00     -124.905       33.665      -19.844       30.429       38.050       25.545      925.945     1447.801      652.550        1.008        0.151      129.363       18.323        0.020      334.643        4.749      867.726
12/28/2013  17:46:00      -90.070       37.060      -21.163       41.501       46.474       24.212     1722.349     2159.858      586.205        0.720        0.223       97.396       30.520        0.098      334.645        4.754      867.716
12/28/2013  17:47:00     -115.023      131.552      -21.201       54.690       43.900       33.888     2990.977     1927.186     1148.427        1.853        0.303      174.747       25.194        0.021      334.733        4.899      867.738
12/28/2013  17:48:00      -96.652      122.051      -24.927       45.868       43.614       32.312     2103.828     1902.142     1044.067        1.495        0.253      155.686       25.768        0.027      334.727        4.889      867.749
12/28/2013  17:49:00     -102.028       94.772      -19.745       43.159       46.715       29.349     1862.677     2182.256      861.359        1.234        0.245      139.253       29.974        0.046      334.675        4.803      867.763
12/28/2013  17:50:00     -107.982      134.121      -32.312       44.328       51.246       28.196     1965.000     2626.200      795.041        1.804        0.269      172.187       33.191        0.037      334.715        4.868      867.789
12/28/2013  17:51:00      -92.968      129.780      -27.115       29.112       42.568       24.038      847.488     1812.051      577.843        1.473        0.162      159.643       14.620        0.008      334.699        4.844      867.801
12/28/2013  17:52:00      -99.187      112.646      -20.732       46.522       58.622       27.537     2164.329     3436.596      758.264        1.466        0.318      150.091       24.350        0.026      334.691        4.829      867.831
12/28/2013  17:53:00      -95.477      136.219      -28.104       35.878       43.600       26.168     1287.232     1900.993      684.748        1.617        0.194      166.348       18.423        0.012      334.719        4.876      867.843
12/28/2013  17:54:00      -99.256      115.862      -24.254       47.128       51.432       29.565     2221.083     2645.259      874.064        1.480        0.287      152.564       26.399        0.030      334.716        4.872      867.856
12/28/2013  17:55:00      -80.289       71.698      -11.093       35.010       47.460       25.111     1225.684     2252.482      630.545        0.791        0.205      107.643       27.449        0.065      334.687        4.823      867.857
12/28/2013  17:56:00      -75.755       41.319      -13.335       17.265       26.963       14.370      298.089      727.008      206.483        0.443        0.062       86.291        9.638        0.012      334.669        4.795      867.855
12/28/2013  17:57:00      -55.063       -1.257       -4.718       11.510       31.001        9.829      132.491      961.075       96.603        0.212        0.060       55.077        7.010        0.016      334.650        4.762      867.859
12/28/2013  17:58:00      -57.208       -5.968      -20.911       28.974       32.637       17.834      839.487     1065.170      318.048        0.298        0.111       57.519       16.999        0.087      334.599        4.679      867.855
12/28/2013  17:59:00      -30.751       -5.536       -8.865       23.882       28.381       14.905      570.328      805.474      222.158        0.133        0.080       31.245       15.166        0.236      334.564        4.618      867.872
12/28/2013  18:00:00      -46.008       31.650      -15.289       32.290       31.005       20.219     1042.653      961.292      408.813        0.288        0.121       55.843       16.015        0.082      334.666        4.789      867.880
12/28/2013  18:01:00      -32.958        2.720        3.948       21.808       19.181       13.455      475.570      367.893      181.048        0.107        0.051       33.070        9.416        0.081      334.545        4.588      867.902
12/28/2013  18:02:00      -58.737      -17.572       -8.172       20.239       13.159        9.758      409.621      173.162       95.214        0.225        0.034       61.309        7.772        0.016      334.497        4.509      867.923
12/28/2013  18:03:00      -88.801      -10.808       -9.379       33.928       23.724       14.286     1151.081      562.826      204.089        0.500        0.096       89.456       14.156        0.025      334.492        4.500      867.933
12/28/2013  18:04:00     -131.044        4.087      -16.252       22.549       17.705       11.348      508.456      313.468      128.771        0.920        0.048      131.108        4.003        0.001      334.563        4.618      867.957
12/28/2013  18:05:00     -148.838       -2.103      -14.036       30.347       23.953       21.979      920.940      573.739      483.071        1.217        0.099      148.852       20.136        0.018      334.476        4.474      867.973
12/28/2013  18:06:00     -103.009       56.063      -23.061       25.647       45.866       17.688      657.789     2103.680      312.857        0.868        0.154      117.277       18.440        0.025      334.599        4.677      867.997
12/28/2013  18:07:00      -80.046       62.394      -17.268       15.763       39.507       15.786      248.469     1560.795      249.196        0.633        0.103      101.491       13.990        0.019      334.605        4.687      868.018
12/28/2013  18:08:00      -63.473       35.109      -17.664       22.980       21.014       10.435      528.088      441.585      108.880        0.333        0.054       72.536        9.376        0.017      334.691        4.832      868.019
12/28/2013  18:09:00      -66.989       11.012      -13.377       12.663       28.957       10.888      160.361      838.481      118.539        0.295        0.056       67.888        9.553        0.020      334.653        4.768      868.018
12/28/2013  18:10:00      -76.733       46.015      -15.229       36.076       46.068       18.316     1301.509     2122.224      335.464        0.600        0.188       89.472       16.043        0.032      334.688        4.827      868.032
12/28/2013  18:11:00      -82.533       62.934      -23.989       27.698       30.601       19.436      767.195      936.419      377.757        0.671        0.104      103.790       19.485        0.035      334.646        4.756      868.035
12/28/2013  18:12:00      -73.675       34.426      -10.787       21.450       23.037       15.782      460.089      530.684      249.080        0.398        0.062       81.321       14.736        0.033      334.533        4.570      868.025
12/28/2013  18:13:00      -92.574       65.443      -21.860       19.648       31.217       12.458      386.059      974.472      155.189        0.742        0.076      113.370       12.959        0.013      334.634        4.734      868.033
12/28/2013  18:14:00      -65.494       28.001       -6.703       23.841       19.043       16.062      568.408      362.641      257.980        0.315        0.059       71.229       12.949        0.033      334.596        4.673      868.032
12/28/2013  18:15:00      -37.992       -2.006       -5.913       16.577       17.691       16.657      274.782      312.959      277.446        0.117        0.043       38.045       12.173        0.102      334.449        4.431      868.033
12/28/2013  18:16:00      -70.786       19.463      -14.641       31.831       34.817       25.553     1013.238     1212.203      652.933        0.424        0.144       73.413       25.420        0.120      334.547        4.590      868.038
12/28/2013  18:17:00      -91.049       87.373      -20.396       38.032       49.139       26.265     1446.410     2414.623      689.868        1.044        0.228      126.190       27.770        0.048      334.604        4.685      868.046
12/28/2013  18:18:00     -115.611      106.288      -19.167       31.869       68.959       28.420     1015.630     4755.324      807.688        1.580        0.329      157.045       27.567        0.031      334.740        4.910      868.043
12/28/2013  18:19:00      -68.925      102.929      -22.216       30.632       44.345       23.559      938.296     1966.456      555.004        0.965        0.173      123.875       21.312        0.030      334.588        4.661      868.049
12/28/2013  18:20:00      -76.625       43.699      -12.372       29.919       27.962       21.051      895.137      781.882      443.127        0.503        0.106       88.210       13.518        0.023      334.540        4.580      868.060
12/28/2013  18:21:00      -73.929       64.382      -23.095       48.864       47.783       23.607     2387.734     2283.187      557.304        0.769        0.261       98.034       22.095        0.051      334.603        4.683      868.064
12/28/2013  18:22:00      -36.237       56.199       -5.800       31.386       37.342       17.157      985.109     1394.405      294.349        0.359        0.134       66.869       16.483        0.061      334.589        4.662      868.066
12/28/2013  18:23:00      -74.837       74.572      -23.169       30.124       30.528       14.598      907.436      931.933      213.107        0.688        0.103      105.648       15.286        0.021      334.589        4.662      868.066
12/28/2013  18:24:00      -76.714       40.166       -4.894       24.377       25.613       19.780      594.253      656.027      391.231        0.458        0.082       86.593       13.819        0.025      334.640        4.747      868.081
12/28/2013  18:25:00      -85.280       94.009      -25.243       35.336       42.175       22.196     1248.642     1778.717      492.674        1.013        0.176      126.927       19.545        0.024      334.546        4.590      868.086
12/28/2013  18:26:00      -73.524      108.518      -21.844       41.560       40.353       25.908     1727.194     1628.380      671.218        1.084        0.201      131.080       22.985        0.031      334.486        4.490      868.081
12/28/2013  18:27:00     -103.358       74.002      -22.898       38.994       38.178       24.931     1520.508     1457.580      621.566        1.014        0.180      127.118       25.345        0.040      334.340        4.248      868.087
12/28/2013  18:28:00     -106.014       28.527      -16.639       18.340       33.493       16.024      336.368     1121.771      256.774        0.702        0.086      109.785        7.226        0.004      334.225        4.057      868.084
12/28/2013  18:29:00      -80.582       33.075      -17.142       36.897       44.657       22.613     1361.376     1994.205      511.364        0.587        0.193       87.106       22.133        0.065      334.300        4.181      868.082
12/28/2013  18:30:00      -76.656       35.084       -9.852       37.923       37.202       28.009     1438.180     1384.012      784.531        0.540        0.180       84.303       18.155        0.046      334.304        4.188      868.087
12/28/2013  18:31:00      -65.030      153.318      -27.306       34.021       37.964       25.847     1157.398     1441.233      668.046        1.587        0.163      166.539       16.727        0.010      334.356        4.275      868.094
12/28/2013  18:32:00      -83.342       90.278      -22.896       31.776       31.219       21.706     1009.706      974.652      471.147        0.904        0.123      122.865       17.938        0.021      334.318        4.212      868.095
12/28/2013  18:33:00      -40.115       60.736      -11.176       31.392       26.967       22.583      985.476      727.211      509.974        0.382        0.111       72.788       19.791        0.074      334.363        4.287      868.090
12/28/2013  18:34:00      -39.756       31.785       -2.326       29.528       23.565       19.969      871.914      555.291      398.756        0.221        0.091       50.900       13.383        0.069      334.350        4.264      868.113
12/28/2013  18:35:00      -52.854       72.987      -20.692       27.638       34.038       17.655      763.873     1158.552      311.684        0.539        0.112       90.115       18.360        0.042      334.301        4.183      868.123
12/28/2013  18:36:00      -46.105       85.555      -16.956       25.534       39.571       15.692      651.978     1565.839      246.233        0.610        0.123       97.187       12.477        0.016      334.262        4.121      868.118
12/28/2013  18:37:00      -67.642       51.609      -14.427       19.960       24.417       10.863      398.407      596.195      118.005        0.428        0.056       85.082       11.113        0.017      334.263        4.122      868.122
12/28/2013  18:38:00      -60.861       62.133      -10.630       31.236       34.217       23.324      975.671     1170.774      544.001        0.518        0.135       86.975       13.979        0.026      334.275        4.139      868.127
12/28/2013  18:39:00      -70.506       51.079       -6.866       28.137       22.958       20.566      791.664      527.081      422.973        0.468        0.087       87.064       16.432        0.036      334.252        4.102      868.120
12/28/2013  18:40:00      -91.066       32.696       -9.839       27.178       26.254       18.682      738.617      689.292      349.023        0.562        0.089       96.758       12.077        0.016      334.308        4.195      868.116
12/28/2013  18:41:00     -103.913       50.314      -12.553       33.566       25.350       19.024     1126.680      642.636      361.903        0.781        0.107      115.453       15.347        0.018      334.261        4.117      868.120
12/28/2013  18:42:00     -109.303       24.486      -15.608       28.508       28.406       17.448      812.726      806.924      304.431        0.736        0.096      112.012       12.600        0.013      334.214        4.038      868.110
12/28/2013  18:43:00      -78.933       22.092       -9.395       25.424       21.526       16.595      646.359      463.374      275.386        0.410        0.069       81.967       14.207        0.030      334.188        3.997      868.112
12/28/2013  18:44:00      -98.852       22.271      -15.176       35.651       39.583       21.914     1271.023     1566.789      480.207        0.691        0.166      101.330       14.130        0.019      334.151        3.933      868.114
12/28/2013  18:45:00      -92.407       67.425      -13.296       31.712       70.306       23.932     1005.665     4942.870      572.733        0.989        0.326      114.390       21.291        0.035      334.119        3.880      868.123
12/28/2013  18:46:00     -104.364      104.460      -19.141       36.200       52.032       27.481     1310.463     2707.323      755.220        1.347        0.239      147.661       28.801        0.038      334.164        3.956      868.125
12/28/2013  18:47:00      -88.527       96.244      -18.235       44.297       42.546       28.237     1962.239     1810.172      797.350        1.100        0.228      130.767       26.857        0.042      334.123        3.887      868.122
12/28/2013  18:48:00      -69.700       59.467       -8.711       39.937       48.558       27.210     1594.957     2357.898      740.383        0.658        0.235       91.621       20.682        0.051      334.176        3.977      868.131
12/28/2013  18:49:00      -95.503       53.914      -12.679       33.940       51.071       24.722     1151.922     2608.212      611.171        0.828        0.219      109.670       23.927        0.048      334.136        3.911      868.129
12/28/2013  18:50:00     -105.195       77.587      -20.324       45.620       66.822       31.131     2081.166     4465.145      969.122        1.251        0.376      130.712       36.895        0.080      334.285        4.158      868.126
12/28/2013  18:51:00      -99.204      103.071      -17.319       49.979       56.269       32.064     2497.938     3166.156     1028.116        1.373        0.335      143.056       29.839        0.044      334.179        3.980      868.136
12/28/2013  18:52:00     -121.423      140.591      -25.413       44.059       68.877       32.332     1941.199     4744.055     1045.337        2.144        0.387      185.767       34.142        0.034      334.236        4.072      868.138
12/28/2013  18:53:00     -141.508      176.486      -38.347       48.609       45.466       29.349     2362.838     2067.176      861.385        2.897        0.265      226.212       27.396        0.015      334.250        4.095      868.139
12/28/2013  18:54:00     -103.358      119.211      -28.476       39.310       34.809       26.510     1545.240     1211.690      702.759        1.458        0.173      157.779       20.674        0.017      334.250        4.099      868.152
12/28/2013  18:55:00     -106.850      103.574      -26.212       38.704       36.652       27.843     1498.019     1343.368      775.258        1.322        0.181      148.810       21.981        0.022      334.250        4.099      868.181
12/28/2013  18:56:00      -82.732       83.560      -23.433       23.608       40.287       18.336      557.317     1623.071      336.223        0.845        0.126      117.588       18.490        0.025      334.218        4.045      868.202
12/28/2013  18:57:00      -80.912       67.318      -19.350       27.542       32.776       17.235      758.585     1074.262      297.046        0.679        0.106      105.254       12.804        0.015      334.236        4.075      868.214
12/28/2013  18:58:00      -73.770       62.871      -11.032       35.266       46.901       18.393     1243.698     2199.679      338.315        0.665        0.189       96.927       17.149        0.031      334.182        3.985      868.234
12/28/2013  18:59:00      -59.328       60.201      -17.219       24.163       23.318       13.393      583.850      543.749      179.384        0.437        0.065       84.522       11.050        0.017      334.249        4.098      868.232
12/28/2013  19:00:00      -91.743       46.496      -21.581       41.571       38.744       23.955     1728.136     1501.104      573.842        0.742        0.190      102.852       24.679        0.058      334.247        4.094      868.221
12/28/2013  19:01:00      -95.920       74.733      -23.225       42.402       50.709       33.385     1797.958     2571.374     1114.527        1.040        0.274      121.597       31.279        0.066      334.268        4.128      868.208
12/28/2013  19:02:00      -94.664       86.103      -20.083       32.186       44.192       29.769     1035.907     1952.920      886.218        1.033        0.194      127.964       22.428        0.031      334.289        4.163      868.224
12/28/2013  19:03:00      -70.127       90.654      -15.101       43.105       50.351       26.094     1858.006     2535.183      680.906        0.922        0.254      114.613       21.855        0.036      334.282        4.153      868.235
12/28/2013  19:04:00      -53.295       47.624       -8.014       40.996       22.387       17.340     1680.675      501.183      300.678        0.383        0.124       71.473       12.505        0.031      334.201        4.018      868.248
12/28/2013  19:05:00      -35.982       58.677       -8.082       31.641       34.119       19.710     1001.127     1164.126      388.467        0.368        0.128       68.830       22.164        0.104      334.238        4.080      868.270
12/28/2013  19:06:00      -26.004       88.190      -10.636       38.742       59.112       25.357     1500.980     3494.273      642.996        0.710        0.282       91.944       32.119        0.122      334.304        4.189      868.282
12/28/2013  19:07:00       -6.404       91.921      -14.825       25.748       36.250       19.248      662.961     1314.027      370.504        0.553        0.117       92.144        4.938        0.003      334.219        4.048      868.275
12/28/2013  19:08:00      -27.176       36.516       -0.174       37.480       60.131       20.282     1404.714     3615.742      411.367        0.375        0.272       45.519       20.470        0.202      334.133        3.904      868.269
12/28/2013  19:09:00      -76.000       16.682       -1.180       42.209       28.972       24.993     1781.565      839.388      624.638        0.465        0.162       77.809       26.483        0.116      334.187        3.996      868.268
12/28/2013  19:10:00      -96.171       37.797      -20.153       39.976       29.753       21.148     1598.100      885.234      447.224        0.701        0.147      103.332       10.421        0.010      334.255        4.108      868.264
12/28/2013  19:11:00      -61.754       65.638      -16.780       31.921       47.130       19.327     1018.947     2221.263      373.545        0.601        0.181       90.121       23.003        0.065      334.252        4.103      868.239
12/28/2013  19:12:00     -116.285       55.226      -28.838       60.096       86.339       31.560     3611.530     7454.509      996.019        1.473        0.603      128.733       44.540        0.120      334.280        4.147      868.218
12/28/2013  19:13:00     -129.385      124.429      -34.515       59.272       56.209       38.343     3513.221     3159.503     1470.216        2.078        0.407      179.508       33.881        0.036      334.297        4.175      868.219
12/28/2013  19:14:00     -127.944      103.488      -33.504       42.832       43.931       25.898     1834.598     1929.951      670.703        1.632        0.222      164.559       25.663        0.024      334.333        4.236      868.230
12/28/2013  19:15:00      -52.799       53.901       -6.807       34.883       35.466       22.678     1216.797     1257.871      514.276        0.436        0.149       75.452       16.556        0.048      334.286        4.159      868.257
12/28/2013  19:16:00      -44.887      121.892      -15.468       53.381       53.242       32.036     2849.521     2834.717     1026.287        1.191        0.336      129.894       36.999        0.081      334.266        4.124      868.294
12/28/2013  19:17:00      -14.428      131.240      -12.717       36.624       59.354       27.499     1341.328     3522.933      756.186        1.161        0.281      132.031       27.263        0.043      334.321        4.215      868.349
12/28/2013  19:18:00      -57.265       41.255       -5.617       29.237       39.969       22.702      854.817     1597.550      515.362        0.399        0.148       70.578       16.748        0.056      334.266        4.126      868.393
12/28/2013  19:19:00      -93.527      100.349      -22.893       50.119       45.923       28.417     2511.923     2108.878      807.502        1.238        0.271      137.176       24.920        0.033      334.303        4.186      868.427
12/28/2013  19:20:00      -48.152      102.230      -14.129       40.974       29.326       24.161     1678.873      859.994      583.764        0.805        0.156      113.002       13.167        0.014      334.331        4.233      868.440
12/28/2013  19:21:00      -10.943       54.930       -7.402       25.047       29.445       15.469      627.331      866.987      239.285        0.246        0.087       56.009       14.022        0.063      334.233        4.070      868.449
12/28/2013  19:22:00      -40.580       33.602       -0.296       28.530       53.819       16.443      813.979     2896.455      270.375        0.338        0.199       52.686       12.813        0.059      334.103        3.854      868.458
12/28/2013  19:23:00      -84.853       16.518      -15.234       18.773       25.829       17.317      352.414      667.123      299.874        0.451        0.066       86.446        7.944        0.008      334.190        4.000      868.466
12/28/2013  19:24:00      -43.098       33.845       -8.238       23.359       34.496       20.018      545.651     1189.987      400.733        0.260        0.107       54.799       21.867        0.159      334.185        3.991      868.480
12/28/2013  19:25:00      -66.739       36.383      -12.843       36.751       39.308       22.733     1350.625     1545.124      516.793        0.468        0.171       76.012       27.025        0.126      334.220        4.048      868.503
12/28/2013  19:26:00      -24.861       51.134      -12.202       37.615       42.705       17.729     1414.899     1823.696      314.325        0.347        0.178       56.858       20.894        0.135      334.199        4.015      868.526
12/28/2013  19:27:00      -39.295        5.787       -6.836       25.556       21.469       11.021      653.102      460.904      121.471        0.143        0.062       39.719       10.878        0.075      334.209        4.031      868.541
12/28/2013  19:28:00      -54.445       14.093      -12.347       28.511       17.535       14.929      812.856      307.489      222.868        0.233        0.067       56.239       13.240        0.055      334.186        3.993      868.542
12/28/2013  19:29:00       -1.676      -11.865       -2.091       12.195       16.685       13.708      148.725      278.379      187.913        0.038        0.031       11.983       10.752        0.805      334.151        3.935      868.551
12/28/2013  19:30:00      -11.326       -9.478       -8.251       15.137       31.789       12.683      229.119     1010.522      160.854        0.084        0.070       14.769       12.969        0.771      334.164        3.957      868.553
12/28/2013  19:31:00      -29.185       15.666       -3.616       24.367       18.470       17.137      593.747      341.141      293.668        0.117        0.061       33.124       14.185        0.183      334.144        3.924      868.558
12/28/2013  19:32:00      -55.390       18.372        2.414       32.099       25.238       19.148     1030.344      636.955      366.663        0.272        0.102       58.357       14.415        0.061      334.125        3.891      868.566
12/28/2013  19:33:00      -33.822       29.406        1.486       20.235       21.865       25.033      409.435      478.078      626.653        0.176        0.076       44.817       19.102        0.182      334.058        3.780      868.581
12/28/2013  19:34:00      -42.696       20.044       -7.209       21.196       24.384       16.552      449.291      594.595      273.954        0.180        0.066       47.167       15.338        0.106      334.115        3.875      868.598
12/28/2013  19:35:00      -78.597       38.233      -15.830       24.365       27.331       16.825      593.642      746.972      283.070        0.476        0.081       87.403       16.359        0.035      334.095        3.842      868.619
12/28/2013  19:36:00      -87.079       59.653      -17.619       25.958       38.073       20.780      673.811     1449.563      431.800        0.700        0.128      105.552       19.824        0.035      334.124        3.891      868.634
12/28/2013  19:37:00      -81.130      110.021      -22.925       31.837       40.098       23.247     1013.621     1607.852      540.435        1.119        0.158      136.700       16.845        0.015      334.159        3.948      868.659
12/28/2013  19:38:00      -56.770       72.149       -7.860       44.486       39.225       31.288     1978.973     1538.579      978.969        0.649        0.225       91.806       27.447        0.089      334.126        3.894      868.683
12/28/2013  19:39:00      -42.677       60.485       -4.386       49.209       37.011       23.002     2421.549     1369.781      529.113        0.491        0.216       74.025       27.072        0.134      334.073        3.805      868.708
12/28/2013  19:40:00      -23.564       28.087        6.080       31.659       22.408       17.666     1002.314      502.106      312.073        0.160        0.091       36.662       10.362        0.080      334.056        3.777      868.726
12/28/2013  19:41:00      -34.559       38.686       -0.688       44.067       22.488       23.237     1941.874      505.709      539.950        0.284        0.149       51.874       15.025        0.084      334.045        3.758      868.737
12/28/2013  19:42:00      -46.472       62.494      -19.517       28.569       78.307       19.266      816.190     6131.968      371.164        0.688        0.366       77.879       30.291        0.151      334.134        3.907      868.746
12/28/2013  19:43:00      -37.343       66.093       -3.232       33.030       33.541       24.390     1090.968     1124.993      594.862        0.429        0.141       75.913       17.176        0.051      334.013        3.707      868.763
12/28/2013  19:44:00      -32.237       38.450       -1.781       31.185       37.492       16.219      972.515     1405.660      263.045        0.258        0.132       50.176        9.846        0.039      334.047        3.763      868.773
12/28/2013  19:45:00      -43.248       63.365      -13.062       28.558       31.066       20.721      815.581      965.103      429.349        0.413        0.111       76.717       10.179        0.018      334.052        3.772      868.776
12/28/2013  19:46:00      -42.641       22.754       -6.441       29.122       22.437       21.679      848.103      503.397      469.985        0.210        0.091       48.332       21.412        0.196      333.983        3.657      868.786
12/28/2013  19:47:00      -64.173        6.940       -7.511       16.780       19.364       13.250      281.557      374.966      175.566        0.253        0.042       64.548       12.035        0.035      333.963        3.623      868.777
12/28/2013  19:48:00      -48.879        9.973       -8.440       19.421       39.234       10.655      377.183     1539.317      113.520        0.229        0.102       49.886       11.867        0.057      333.985        3.660      868.766
12/28/2013  19:49:00      -43.128        0.108       -0.898       24.459       33.207       16.468      598.225     1102.706      271.183        0.192        0.099       43.128       18.156        0.177      333.915        3.543      868.759
12/28/2013  19:50:00      -47.357       41.698       -6.720       26.526       41.935       25.879      703.629     1758.575      669.732        0.358        0.157       63.098       10.123        0.026      333.916        3.545      868.741
12/28/2013  19:51:00      -14.377      -11.825       -3.691       18.708        8.703        8.870      350.006       75.741       78.678        0.043        0.025       18.615        7.858        0.178      333.778        3.317      868.738
12/28/2013  19:52:00       23.254        5.388        6.871       13.124       14.592       13.899      172.231      212.927      193.186        0.060        0.029       23.870       10.174        0.182      333.872        3.473      868.731
12/28/2013  19:53:00       12.069       32.234       -1.849       11.580       12.956        7.242      134.087      167.871       52.453        0.077        0.018       34.419        4.804        0.019      333.871        3.471      868.723
12/28/2013  19:54:00       29.994       19.975        0.088       11.938        8.874        7.096      142.513       78.752       50.350        0.079        0.014       36.037        2.305        0.004      333.788        3.333      868.720
12/28/2013  19:55:00       28.013       18.816       -4.859        9.161       14.298        8.119       83.928      204.437       65.913        0.076        0.018       33.746        8.837        0.069      333.715        3.210      868.735
12/28/2013  19:56:00       41.299       14.522        3.860        7.517       12.701       11.500       56.513      161.325      132.254        0.114        0.018       43.777        6.915        0.025      333.708        3.200      868.754
12/28/2013  19:57:00       49.571       29.418        0.289        6.825       10.311        7.094       46.581      106.321       50.320        0.176        0.010       57.643        6.080        0.011      333.662        3.123      868.760
12/28/2013  19:58:00       50.365       33.382        0.988        8.905        8.702        5.998       79.304       75.723       35.971        0.192        0.010       60.424        3.200        0.003      333.622        3.054      868.766
12/28/2013  19:59:00       48.017       28.426       -2.138        7.480        7.815        6.689       55.952       61.080       44.738        0.164        0.008       55.800        3.611        0.004      333.626        3.064      868.778
12/28/2013  20:00:00       56.394       23.740       -0.772       10.809       12.249        7.313      116.842      150.030       53.486        0.203        0.016       61.188        3.916        0.004      333.585        2.996      868.784
12/28/2013  20:01:00       23.699       45.322       -7.675       14.473       19.261        8.829      209.457      370.996       77.953        0.167        0.033       51.144        5.332        0.011      333.608        3.035      868.786
12/28/2013  20:02:00        2.758      100.568      -15.938       14.797       13.366        8.001      218.951      178.645       64.013        0.542        0.023      100.606        3.814        0.001      333.771        3.305      868.782
12/28/2013  20:03:00       -8.855      126.720      -19.104       11.382       12.630        7.641      129.545      159.513       58.380        0.842        0.017      127.029        3.049        0.001      333.808        3.367      868.796
12/28/2013  20:04:00       -7.883      123.394      -15.284       13.702       15.328       14.062      187.753      234.935      197.727        0.807        0.031      123.646        5.815        0.002      333.917        3.546      868.820
12/28/2013  20:05:00       -3.098      127.220      -17.740        8.756       15.311        7.180       76.661      234.429       51.547        0.844        0.018      127.258        4.574        0.001      333.831        3.402      868.851
12/28/2013  20:06:00        2.841      118.755      -17.451       19.021       13.229       10.406      361.787      175.015      108.290        0.753        0.032      118.789        8.762        0.005      333.879        3.482      868.858
12/28/2013  20:07:00        0.396      117.360      -18.642       18.631       22.688        7.574      347.096      514.755       57.366        0.752        0.046      117.361        5.746        0.002      333.914        3.540      868.851
12/28/2013  20:08:00        5.879       66.993      -14.002       13.956       10.523        7.331      194.768      110.732       53.743        0.254        0.018       67.250        4.364        0.004      333.880        3.485      868.827
12/28/2013  20:09:00       16.067       48.950       -5.679       15.637       22.140       13.090      244.502      490.197      171.350        0.180        0.045       51.520        6.639        0.017      333.739        3.251      868.810
12/28/2013  20:10:00        5.164       65.924       -9.976        9.586        8.837        6.002       91.888       78.094       36.029        0.234        0.010       66.126        3.554        0.003      333.826        3.394      868.792
12/28/2013  20:11:00       11.789       48.481       -7.616        7.418        8.523        6.170       55.028       72.639       38.066        0.136        0.008       49.894        2.604        0.003      333.816        3.376      868.779
12/28/2013  20:12:00       18.113       40.826       -4.582        6.752       13.817        5.454       45.584      190.911       29.750        0.114        0.013       44.663        5.078        0.013      333.716        3.213      868.782
12/28/2013  20:13:00       28.095       10.792       -5.141       10.298        8.207        6.634      106.057       67.361       44.016        0.057        0.011       30.096        3.013        0.010      333.643        3.092      868.787
12/28/2013  20:14:00       19.613       14.203        1.373        4.862        5.156        3.419       23.641       26.588       11.690        0.033        0.003       24.216        1.521        0.004      333.658        3.120      868.798
12/28/2013  20:15:00       12.494       26.836        4.073        6.390        8.757        5.459       40.835       76.684       29.798        0.052        0.007       29.602        4.875        0.027      333.686        3.162      868.815
12/28/2013  20:16:00        4.229       17.125        0.702        4.616        8.964        4.354       21.303       80.353       18.956        0.022        0.006       17.639        2.298        0.017      333.729        3.234      868.832
12/28/2013  20:17:00      -31.413      -11.081       -5.892       11.782        9.861        5.697      138.804       97.231       32.456        0.071        0.013       33.310        7.073        0.045      333.423        2.728      868.833
12/28/2013  20:18:00      -44.679      -18.724       -5.005        6.873        5.655        4.474       47.244       31.984       20.021        0.124        0.005       48.444        2.293        0.002      333.224        2.397      868.826
12/28/2013  20:19:00      -40.600      -11.672       -5.497        7.371        7.054        6.809       54.333       49.760       46.369        0.098        0.008       42.245        3.774        0.008      333.198        2.355      868.840
12/28/2013  20:20:00      -49.079      -13.383       -7.369        5.009        6.127        4.665       25.087       37.534       21.765        0.136        0.004       50.871        2.112        0.002      333.399        2.690      868.842
12/28/2013  20:21:00      -52.536       -2.451       -9.987        8.410        6.045        6.363       70.721       36.536       40.489        0.151        0.007       52.593        3.064        0.003      333.266        2.468      868.844
12/28/2013  20:22:00      -55.328        3.176       -9.412        6.053        4.577        5.910       36.636       20.947       34.928        0.163        0.005       55.419        3.092        0.003      333.145        2.267      868.846
12/28/2013  20:23:00      -58.066      -10.462       -6.896        5.795        6.835        5.554       33.582       46.713       30.849        0.182        0.006       59.001        2.850        0.002      333.148        2.269      868.862
12/28/2013  20:24:00      -50.716      -19.856       -8.652        7.352        6.800        5.173       54.055       46.238       26.763        0.158        0.006       54.464        3.433        0.004      333.176        2.317      868.870
12/28/2013  20:25:00      -51.199      -18.846      -11.041        7.611        6.072        5.512       57.931       36.865       30.378        0.161        0.006       54.558        3.674        0.005      333.200        2.358      868.862
12/28/2013  20:26:00      -62.844      -13.458      -13.278        7.251        7.950        6.136       52.580       63.196       37.653        0.223        0.008       64.269        2.320        0.001      333.108        2.207      868.843
12/28/2013  20:27:00      -74.019      -16.126       -9.680       11.045       11.758        5.834      121.992      138.249       34.030        0.306        0.015       75.756        4.541        0.004      333.032        2.081      868.825
12/28/2013  20:28:00      -93.774      -24.132      -11.236       10.121        9.066        6.833      102.443       82.201       46.694        0.487        0.012       96.829        3.534        0.001      332.978        1.992      868.809
12/28/2013  20:29:00      -96.216      -33.639       -7.089        8.562        8.033        5.780       73.303       64.523       33.410        0.531        0.009      101.927        4.699        0.002      332.912        1.883      868.810
12/28/2013  20:30:00      -93.895      -23.899      -12.099       14.376       14.210       10.592      206.670      201.921      112.198        0.503        0.026       96.889        5.953        0.004      332.889        1.845      868.824
12/28/2013  20:31:00      -91.933      -30.878       -6.933       20.064       13.751       10.044      402.564      189.096      100.879        0.507        0.035       96.980       10.698        0.012      332.837        1.760      868.833
12/28/2013  20:32:00     -105.201      -26.689       -7.821       11.822       12.020        7.790      139.761      144.491       60.685        0.609        0.017      108.533        6.272        0.003      332.845        1.774      868.845
12/28/2013  20:33:00     -108.009      -23.510       -8.882       13.266       14.098       13.019      175.992      198.755      169.502        0.642        0.027      110.538        8.734        0.006      332.837        1.759      868.859
12/28/2013  20:34:00     -106.019      -19.700      -13.115       11.808        9.793        7.841      139.424       95.900       61.483        0.605        0.015      107.834        4.342        0.002      332.813        1.720      868.890
12/28/2013  20:35:00      -90.446      -27.601      -14.706       13.225        9.377        8.932      174.912       87.926       79.778        0.475        0.017       94.563        3.555        0.001      332.782        1.668      868.911
12/28/2013  20:36:00      -78.280      -31.263      -10.845       11.832       11.426        7.794      139.994      130.561       60.743        0.378        0.017       84.292        7.812        0.009      332.683        1.506      868.935
12/28/2013  20:37:00      -54.559      -29.974       -7.727       22.707       17.370       11.995      515.610      301.714      143.890        0.245        0.048       62.251        8.748        0.020      332.672        1.488      868.960
12/28/2013  20:38:00      -35.429      -24.409        0.229       19.363       13.298       12.826      374.919      176.836      164.504        0.128        0.036       43.023       10.075        0.055      332.689        1.514      868.982
12/28/2013  20:39:00      -69.189      -13.178      -12.175       23.152       24.314       13.046      535.995      591.168      170.190        0.320        0.065       70.433       11.042        0.025      332.666        1.475      869.011
12/28/2013  20:40:00      -88.936       -5.000      -13.732       13.694       11.926       10.112      187.514      142.229      102.251        0.428        0.022       89.076        5.254        0.003      332.635        1.427      869.028
12/28/2013  20:41:00      -59.353      -23.320      -10.758       12.018       14.557       11.401      144.430      211.918      129.973        0.233        0.024       63.770        6.950        0.012      332.573        1.324      869.032
12/28/2013  20:42:00      -66.920      -25.350      -11.228       11.423       15.263        9.248      130.482      232.951       85.531        0.285        0.022       71.560        6.200        0.008      332.605        1.375      869.029
12/28/2013  20:43:00      -67.815      -28.027      -18.949       10.405       15.894        7.593      108.265      252.606       57.653        0.308        0.021       73.378        4.808        0.004      332.567        1.314      869.021
12/28/2013  20:44:00      -73.261      -21.127      -16.623       15.063       13.448        7.049      226.891      180.857       49.681        0.327        0.023       76.246        4.827        0.004      332.545        1.277      869.034
12/28/2013  20:45:00      -61.899      -33.013      -18.189       11.861       14.403        8.400      140.683      207.442       70.566        0.284        0.021       70.153        3.977        0.003      332.569        1.315      869.046
12/28/2013  20:46:00      -57.483      -13.376      -14.253        7.176        7.467        5.529       51.500       55.760       30.573        0.191        0.007       59.019        3.574        0.004      332.736        1.594      869.052
12/28/2013  20:47:00      -47.140      -35.756      -10.515       15.886       15.526       10.542      252.379      241.069      111.129        0.211        0.030       59.166        8.201        0.019      332.697        1.528      869.065
12/28/2013  20:48:00      -45.226      -34.055        2.587       19.878       11.850       13.940      395.125      140.419      194.315        0.197        0.036       56.614       10.137        0.032      332.561        1.303      869.080
12/28/2013  20:49:00      -59.991      -19.018      -12.815        7.745       12.385        6.916       59.984      153.392       47.835        0.219        0.013       62.933        1.999        0.001      332.549        1.285      869.101
12/28/2013  20:50:00      -71.339       -8.032       -9.474        7.426        8.280        6.508       55.141       68.564       42.354        0.270        0.008       71.790        5.424        0.006      332.661        1.468      869.133
12/28/2013  20:51:00      -62.987      -12.033      -10.620        9.218       11.806        5.453       84.977      139.391       29.737        0.224        0.013       64.126        4.849        0.006      332.722        1.571      869.150
12/28/2013  20:52:00      -50.821      -12.418      -10.062        6.669       10.589        6.075       44.480      112.128       36.902        0.152        0.010       52.316        5.704        0.012      332.775        1.658      869.170
12/28/2013  20:53:00      -36.240       -4.504      -11.317       10.887        5.400        5.951      118.520       29.157       35.420        0.082        0.009       36.519        3.572        0.010      332.937        1.925      869.201
12/28/2013  20:54:00      -34.506        0.384       -5.456       11.000       12.631        9.957      121.009      159.537       99.143        0.080        0.019       34.508        5.417        0.025      332.967        1.976      869.232
12/28/2013  20:55:00      -49.147        5.630       -6.550        9.547        8.758        9.364       91.146       76.707       87.690        0.137        0.013       49.469        5.108        0.011      332.883        1.834      869.264
12/28/2013  20:56:00      -48.848       10.909      -12.631       14.998       13.565       11.019      224.929      184.004      121.429        0.160        0.027       50.051        5.689        0.013      332.840        1.766      869.287
12/28/2013  20:57:00      -51.742       -3.884      -10.203        7.425        8.393        7.886       55.135       70.440       62.191        0.149        0.009       51.887        5.053        0.009      332.606        1.379      869.307
12/28/2013  20:58:00      -52.711       -8.516      -13.187       10.816        9.808        6.446      116.987       96.201       41.557        0.164        0.013       53.395        4.147        0.006      332.670        1.483      869.328
12/28/2013  20:59:00      -57.730      -19.232      -14.171       20.972       12.334        9.842      439.814      152.136       96.855        0.230        0.034       60.849        9.897        0.026      332.628        1.413      869.328
12/28/2013  21:00:00      -73.371      -17.419      -13.725       11.799       11.520        8.625      139.224      132.710       74.385        0.311        0.017       75.410        3.218        0.002      332.538        1.264      869.321
12/28/2013  21:01:00      -38.946      -22.595      -13.912       16.274       13.445       10.487      264.840      180.759      109.986        0.139        0.028       45.025        5.529        0.015      332.556        1.293      869.335
12/28/2013  21:02:00      -30.487      -18.086       -1.221       20.612       13.331       12.854      424.837      177.725      165.238        0.101        0.038       35.448        9.530        0.072      332.539        1.269      869.372
12/28/2013  21:03:00      -51.854      -23.345       -7.743       17.701       15.361        8.044      313.342      235.963       64.704        0.195        0.031       56.867        5.558        0.010      332.442        1.106      869.404
12/28/2013  21:04:00      -18.796      -11.093       -7.645       12.342        9.844        6.792      152.329       96.912       46.135        0.042        0.015       21.825        4.963        0.052      332.562        1.305      869.431
12/28/2013  21:05:00      -23.992       -0.870       -2.373        8.113        6.680        6.466       65.816       44.623       41.810        0.037        0.008       24.008        4.653        0.038      332.864        1.804      869.449
12/28/2013  21:06:00      -32.662       -5.960       -3.937       11.901       12.486        5.941      141.644      155.901       35.301        0.073        0.017       33.201        4.645        0.020      332.902        1.867      869.463
12/28/2013  21:07:00      -43.793       -7.129       -9.813        9.528        6.825        5.800       90.789       46.578       33.637        0.112        0.009       44.370        4.048        0.008      332.680        1.500      869.470
12/28/2013  21:08:00      -31.382      -13.434       -5.238        9.600        8.317        6.493       92.160       69.169       42.155        0.070        0.010       34.137        2.958        0.008      332.884        1.837      869.467
12/28/2013  21:09:00      -24.044       -7.331       -4.086       13.371        9.147        8.931      178.776       83.671       79.759        0.050        0.017       25.137        6.615        0.069      332.977        1.990      869.461
12/28/2013  21:10:00        4.588       12.615        0.913       10.468       13.693       10.430      109.583      187.504      108.775        0.029        0.020       13.423        9.268        0.477      333.205        2.367      869.466
12/28/2013  21:11:00        5.927       47.832       -3.842       17.224       18.853       11.546      296.676      355.434      133.310        0.156        0.039       48.198       10.708        0.049      333.430        2.739      869.459
12/28/2013  21:12:00      -29.702      -21.382        1.883       12.530       13.394       12.223      156.992      179.412      149.394        0.091        0.024       36.598        6.870        0.035      332.958        1.959      869.450
12/28/2013  21:13:00      -46.482      -24.054      -10.436       14.618       10.545        8.474      213.694      111.195       71.810        0.162        0.020       52.337        7.964        0.023      332.809        1.714      869.435
12/28/2013  21:14:00      -84.633       -4.058      -18.905       12.101        9.642        7.874      146.423       92.962       62.007        0.392        0.015       84.731        5.134        0.004      332.533        1.258      869.425
12/28/2013  21:15:00      -67.155       -0.126      -11.640       10.372        5.647        8.792      107.584       31.890       77.307        0.243        0.011       67.156        6.635        0.010      332.486        1.179      869.435
12/28/2013  21:16:00      -40.671        3.426       -3.927       26.364        9.752        8.344      695.036       95.102       69.622        0.127        0.043       40.815        4.561        0.012      332.743        1.605      869.451
12/28/2013  21:17:00      -52.243        0.639      -11.654       16.306        6.156        6.873      265.875       37.894       47.243        0.161        0.018       52.247        3.468        0.004      332.735        1.592      869.458
12/28/2013  21:18:00      -60.225        0.402      -11.955        8.720        7.352        7.316       76.046       54.045       53.529        0.198        0.009       60.227        5.177        0.007      332.595        1.360      869.461
12/28/2013  21:19:00      -36.309        8.265        0.324       14.333        8.684        8.956      205.433       75.414       80.207        0.087        0.018       37.237        3.999        0.012      332.799        1.697      869.461
12/28/2013  21:20:00       -4.873        3.564        2.057       13.874       11.799       11.127      192.486      139.222      123.817        0.025        0.023        6.037       10.518        3.035      332.893        1.853      869.483
12/28/2013  21:21:00       23.915        7.447        4.184       13.382        8.002        7.809      179.084       64.027       60.987        0.047        0.015       25.047        5.376        0.046      332.785        1.674      869.506
12/28/2013  21:22:00       24.999        3.586        3.525       14.873        6.403        6.842      221.193       40.994       46.817        0.048        0.015       25.255        4.930        0.038      332.798        1.696      869.509
12/28/2013  21:23:00       13.028        6.262        2.085        7.589        6.594        6.067       57.594       43.478       36.814        0.018        0.007       14.455        4.382        0.092      332.763        1.640      869.500
12/28/2013  21:24:00       10.337        7.389        3.127        8.921        4.386        6.094       79.582       19.234       37.134        0.015        0.007       12.706        3.412        0.072      332.734        1.590      869.487
12/28/2013  21:25:00        0.714       20.727        2.936        3.822       12.647        3.056       14.607      159.942        9.341        0.031        0.009       20.739        1.686        0.007      332.988        2.007      869.470
12/28/2013  21:26:00       -3.550       28.839        5.106        6.430        7.462        5.777       41.348       55.674       33.373        0.050        0.007       29.056        3.525        0.015      333.148        2.272      869.458
12/28/2013  21:27:00      -21.971        8.459        3.241       14.614       13.949        6.628      213.576      194.588       43.936        0.051        0.023       23.543        4.628        0.039      332.806        1.709      869.448
12/28/2013  21:28:00      -43.662      -15.775       -6.669        7.876        9.789        6.983       62.035       95.826       48.757        0.120        0.010       46.424        4.860        0.011      332.455        1.128      869.441
12/28/2013  21:29:00      -26.681       -6.374       -5.436       11.908       13.975        7.868      141.796      195.311       61.906        0.059        0.020       27.432        9.382        0.117      332.483        1.175      869.439
12/28/2013  21:30:00      -34.900       -0.043       -8.946       13.368       10.709        6.650      178.695      114.690       44.220        0.082        0.017       34.900        5.305        0.023      332.714        1.558      869.439
12/28/2013  21:31:00      -44.569      -18.476      -11.583        8.136       12.540        8.167       66.202      157.251       66.704        0.138        0.015       48.247        2.055        0.002      332.321        0.906      869.431
12/28/2013  21:32:00      -66.227      -20.199      -14.585       10.515       11.195        7.695      110.571      125.320       59.205        0.265        0.015       69.239        4.172        0.004      332.293        0.863      869.432
12/28/2013  21:33:00      -70.998       -0.467      -16.672       11.310       11.709       12.036      127.917      137.094      144.866        0.286        0.020       70.999        7.033        0.010      332.085        0.518      869.448
12/28/2013  21:34:00      -66.623       -1.544      -13.850       18.099       10.792        8.889      327.559      116.462       79.013        0.258        0.026       66.641        6.589        0.010      332.203        0.714      869.457
12/28/2013  21:35:00      -51.273      -18.286      -10.226       15.474       12.417       10.983      239.438      154.184      120.634        0.179        0.026       54.436        8.779        0.026      332.095        0.536      869.453
12/28/2013  21:36:00      -69.046      -22.715      -15.361       14.570       14.232       13.822      212.272      202.552      191.039        0.306        0.030       72.686       11.145        0.024      332.049        0.460      869.458
12/28/2013  21:37:00      -52.785      -16.552      -21.826       13.960       13.960       11.823      194.883      194.893      139.782        0.203        0.026       55.319        6.839        0.015      332.094        0.534      869.468
12/28/2013  21:38:00      -81.147       -4.542      -15.617       12.850       15.744        9.826      165.126      247.872       96.554        0.368        0.025       81.274        2.486        0.001      332.032        0.431      869.478
12/28/2013  21:39:00      -58.404      -17.398       -6.534        9.577       12.659       11.562       91.713      160.249      133.691        0.207        0.019       60.940        3.156        0.003      332.261        0.809      869.484
12/28/2013  21:40:00      -38.921      -24.795       -3.466       13.843       10.737       11.113      191.635      115.275      123.507        0.129        0.022       46.148        5.062        0.012      332.310        0.890      869.497
12/28/2013  21:41:00      -27.493        5.882       -3.754       24.475       15.631       12.431      599.026      244.343      154.534        0.090        0.050       28.115        4.713        0.028      332.485        1.176      869.489
12/28/2013  21:42:00      -38.720       -0.141       -6.234       25.175       16.143       13.498      633.778      260.611      182.198        0.131        0.054       38.720       11.860        0.094      332.229        0.757      869.498
12/28/2013  21:43:00      -26.040      -20.338       -9.758        8.882       14.318        6.955       78.899      205.008       48.367        0.076        0.017       33.041        5.296        0.026      332.290        0.856      869.511
12/28/2013  21:44:00      -24.737      -21.868       -6.173        8.881        7.500        6.576       78.871       56.254       43.250        0.065        0.009       33.017        5.267        0.025      332.192        0.695      869.524
12/28/2013  21:45:00      -32.342      -12.862       -2.382       20.221       10.505       12.032      408.892      110.356      144.758        0.094        0.033       34.805       12.436        0.128      332.122        0.580      869.530
12/28/2013  21:46:00      -63.750      -17.217       -7.951        9.474        8.337        8.357       89.765       69.504       69.836        0.233        0.011       66.034        6.611        0.010      332.015        0.406      869.531
12/28/2013  21:47:00      -63.182      -23.100      -12.723        6.721        8.810        6.122       45.171       77.622       37.480        0.242        0.008       67.272        5.347        0.006      331.972        0.331      869.546
12/28/2013  21:48:00      -75.146      -11.423      -10.548       20.325       15.128        9.915      413.089      228.863       98.299        0.331        0.037       76.009        8.315        0.012      331.982        0.348      869.549
12/28/2013  21:49:00      -77.799      -10.821       -4.869       12.029       10.284        8.231      144.686      105.770       67.742        0.326        0.016       78.548        3.987        0.003      331.888        0.194      869.542
12/28/2013  21:50:00      -70.201        3.169       -9.138       10.457        7.775        8.891      109.352       60.447       79.059        0.264        0.012       70.272        1.673        0.001      331.954        0.304      869.539
12/28/2013  21:51:00      -60.490      -11.443      -10.925       22.728       11.994       10.568      516.572      143.844      111.693        0.234        0.039       61.563       10.548        0.029      331.880        0.180      869.536
12/28/2013  21:52:00      -90.392       -8.868      -12.855       21.936       14.833        8.285      481.200      220.028       68.634        0.459        0.038       90.826        6.906        0.006      331.766       -0.007      869.536
12/28/2013  21:53:00      -82.531      -10.096      -12.283       16.244       18.510       11.020      263.860      342.614      121.439        0.390        0.036       83.146        5.138        0.004      331.741       -0.048      869.530
12/28/2013  21:54:00      -90.445      -11.559      -11.505       31.974       20.198       11.899     1022.360      407.960      141.578        0.501        0.079       91.181        7.279        0.006      331.691       -0.131      869.530
12/28/2013  21:55:00      -64.221      -14.264       -7.484       20.232       27.802       16.336      409.322      772.956      266.870        0.292        0.072       65.786       14.005        0.045      331.678       -0.151      869.533
12/28/2013  21:56:00      -74.409      -26.078      -13.220       18.669       19.183       14.433      348.523      367.975      208.307        0.366        0.046       78.846       10.381        0.017      331.731       -0.066      869.552
12/28/2013  21:57:00      -99.063      -14.186      -10.570       24.889       18.030       13.164      619.451      325.079      173.303        0.562        0.056      100.073       10.014        0.010      331.684       -0.140      869.562
12/28/2013  21:58:00     -102.606      -17.962      -15.587       19.560       18.889       12.101      382.579      356.802      146.442        0.599        0.044      104.166        6.776        0.004      331.674       -0.158      869.569
12/28/2013  21:59:00      -80.267      -26.941      -22.687       19.254       23.577       15.713      370.727      555.852      246.910        0.443        0.059       84.668        8.241        0.009      331.720       -0.082      869.561
12/28/2013  22:00:00      -85.822      -37.361       -8.163       25.020       36.139       20.391      625.976     1306.041      415.777        0.559        0.117       93.602       15.096        0.026      331.658       -0.185      869.567
12/28/2013  22:01:00      -81.946      -24.499        2.190       29.477       26.289       20.072      868.921      691.136      402.871        0.464        0.098       85.530       16.522        0.037      331.664       -0.174      869.588
12/28/2013  22:02:00      -41.915      -30.470       -3.869       42.244       18.842       22.396     1784.520      355.023      501.600        0.267        0.132       51.820       24.068        0.216      331.691       -0.129      869.599
12/28/2013  22:03:00      -58.201      -41.509       -1.183       39.604       24.362       19.535     1568.516      593.530      381.615        0.383        0.127       71.487       21.798        0.093      331.667       -0.169      869.586
12/28/2013  22:04:00      -33.936      -44.176       -9.204       40.830       19.700       18.433     1667.058      388.078      339.764        0.279        0.120       55.706       18.990        0.116      331.779        0.014      869.585
12/28/2013  22:05:00      -15.430      -33.543       -8.365       19.369       30.725       18.741      375.177      944.056      351.217        0.155        0.084       36.922       10.233        0.077      331.792        0.034      869.592
12/28/2013  22:06:00      -66.370      -28.903      -11.744       39.941       20.921       22.870     1595.315      437.682      523.027        0.397        0.128       72.390       26.000        0.129      331.723       -0.078      869.583
12/28/2013  22:07:00      -90.912      -35.107      -13.123       19.884       23.535       12.723      395.379      553.876      161.880        0.539        0.056       97.455        6.553        0.005      331.678       -0.151      869.579
12/28/2013  22:08:00     -111.213      -38.517      -10.096       22.928       24.340       14.065      525.683      592.436      197.833        0.763        0.066      117.694       12.765        0.012      331.660       -0.182      869.593
12/28/2013  22:09:00     -103.550      -19.570      -10.612       29.723       37.975       17.469      883.465     1442.126      305.165        0.692        0.132      105.383       12.048        0.013      331.636       -0.220      869.604
12/28/2013  22:10:00      -76.259        4.477       -2.972       41.478       35.480       28.958     1720.464     1258.831      838.556        0.483        0.191       76.390       22.709        0.088      331.644       -0.207      869.611
12/28/2013  22:11:00      -51.603      -12.708       -5.559       32.928       31.658       20.268     1084.279     1002.240      410.804        0.268        0.125       53.145       15.502        0.085      331.648       -0.200      869.622
12/28/2013  22:12:00      -45.868      -16.293      -11.715       25.688       28.824       17.207      659.851      830.842      296.087        0.215        0.089       48.675       11.728        0.058      331.661       -0.180      869.638
12/28/2013  22:13:00      -69.052      -18.666      -17.949       12.799       19.337       11.002      163.811      373.912      121.041        0.305        0.033       71.530        6.692        0.009      331.671       -0.164      869.644
12/28/2013  22:14:00      -65.561      -14.566      -18.933       10.454       11.445        9.664      109.294      130.990       93.384        0.260        0.017       67.160        5.641        0.007      331.726       -0.073      869.638
12/28/2013  22:15:00      -49.580       -7.550      -10.162       13.228       13.426       11.501      174.969      180.248      132.266        0.155        0.024       50.152        8.126        0.026      332.201        0.710      869.632
12/28/2013  22:16:00      -49.819      -35.683       -5.568       14.306       10.734       11.756      204.663      115.229      138.202        0.212        0.023       61.280        5.999        0.010      332.115        0.568      869.635
12/28/2013  22:17:00      -47.318      -34.000      -10.520       11.703       12.898        8.199      136.955      166.362       67.216        0.194        0.019       58.266        3.700        0.004      331.930        0.264      869.635
12/28/2013  22:18:00      -49.310      -43.624       -6.645       12.204       11.365       10.167      148.928      129.166      103.367        0.238        0.019       65.837        4.969        0.006      331.945        0.288      869.624
12/28/2013  22:19:00      -57.535      -40.236      -15.295       14.158       17.076       10.662      200.445      291.591      113.686        0.288        0.030       70.208        7.891        0.013      331.873        0.168      869.619
12/28/2013  22:20:00      -60.691      -30.712      -14.393        9.657       13.922        9.918       93.251      193.814       98.376        0.261        0.019       68.019        5.894        0.008      331.990        0.361      869.617
12/28/2013  22:21:00      -63.956      -20.091      -12.989       11.016       14.655        8.804      121.350      214.766       77.515        0.254        0.021       67.038        4.003        0.004      331.998        0.374      869.615
12/28/2013  22:22:00      -64.513        3.165      -16.910       11.027       10.430        9.908      121.599      108.786       98.175        0.239        0.016       64.591        5.488        0.007      332.270        0.824      869.595
12/28/2013  22:23:00      -49.277      -16.127       -7.750       16.222       11.817        8.706      263.161      139.650       75.797        0.161        0.024       51.849        6.582        0.016      332.006        0.389      869.566
12/28/2013  22:24:00      -43.811      -26.574      -11.274       12.581       10.385        7.415      158.278      107.842       54.978        0.154        0.016       51.241        4.630        0.008      331.975        0.337      869.539
12/28/2013  22:25:00      -45.165      -31.228      -13.814       10.035        9.289        9.013      100.703       86.284       81.239        0.174        0.013       54.910        3.718        0.005      331.810        0.067      869.526
12/28/2013  22:26:00      -69.400      -34.465      -13.599       16.039       13.970        8.894      257.245      195.172       79.101        0.336        0.027       77.487        5.503        0.005      331.717       -0.087      869.521
12/28/2013  22:27:00      -61.818      -18.725      -13.659        9.003        6.683        4.852       81.057       44.658       23.546        0.225        0.007       64.591        3.287        0.003      331.898        0.210      869.520
12/28/2013  22:28:00      -43.733      -24.516      -14.860       11.687       17.133        8.953      136.576      293.535       80.160        0.162        0.026       50.136        5.242        0.011      331.852        0.134      869.526
12/28/2013  22:29:00      -46.929       -9.459        1.553       12.361       12.053        7.022      152.799      145.286       49.307        0.132        0.017       47.873        4.823        0.010      331.956        0.307      869.532
12/28/2013  22:30:00      -36.589      -11.050       -3.654       16.814       10.306        8.199      282.697      106.210       67.229        0.097        0.023       38.221        3.886        0.010      331.987        0.357      869.547
12/28/2013  22:31:00      -55.146      -26.538      -12.853       17.199       12.768        9.167      295.799      163.034       84.039        0.223        0.027       61.200        6.166        0.010      331.587       -0.302      869.556
12/28/2013  22:32:00      -60.565       -6.563       -6.305        8.875       10.604        7.464       78.758      112.444       55.717        0.200        0.012       60.920        4.013        0.004      331.632       -0.229      869.539
12/28/2013  22:33:00      -32.776      -15.981       -3.031       21.218       11.504        9.806      450.207      132.347       96.159        0.101        0.034       36.464       11.996        0.108      331.730       -0.067      869.532
12/28/2013  22:34:00        4.359       31.346        3.779       20.453       38.679       17.492      418.328     1496.094      305.981        0.162        0.111       31.648        7.203        0.052      332.309        0.887      869.533
12/28/2013  22:35:00       -5.166       62.151        0.906       22.726       46.489       17.373      516.467     2161.271      301.831        0.343        0.149       62.366       20.846        0.112      332.459        1.135      869.522
12/28/2013  22:36:00      -22.115       87.944      -10.024       26.364       33.572       23.473      695.082     1127.076      550.966        0.535        0.119       90.682       22.944        0.064      332.478        1.167      869.513
12/28/2013  22:37:00       -4.069      150.365      -18.223       17.724       15.397        8.553      314.137      237.070       73.156        1.179        0.031      150.420        6.273        0.002      332.759        1.630      869.503
12/28/2013  22:38:00      -14.828      138.010      -16.623       16.990       24.472       13.241      288.670      598.879      175.328        1.030        0.053      138.804       11.565        0.007      332.667        1.479      869.493
12/28/2013  22:39:00      -15.880       58.948       -1.868       19.467       66.420       23.472      378.964     4411.614      550.927        0.454        0.267       61.050       31.310        0.263      332.429        1.087      869.473
12/28/2013  22:40:00      -25.915       -9.322       -5.159       25.395       26.195       13.535      644.899      686.177      183.195        0.115        0.076       27.541        9.852        0.128      331.908        0.225      869.469
12/28/2013  22:41:00      -31.713      -23.282        3.562       15.000       14.044       12.162      224.988      197.226      147.913        0.107        0.029       39.342        8.833        0.050      331.801        0.051      869.483
12/28/2013  22:42:00      -50.426      -20.060       -8.207        9.031       11.561        8.445       81.565      133.666       71.317        0.165        0.014       54.269        5.142        0.009      331.541       -0.377      869.494
12/28/2013  22:43:00      -80.146       -4.792      -16.037       13.944       12.176       10.655      194.449      148.266      113.525        0.358        0.023       80.289        7.272        0.008      331.496       -0.454      869.490
12/28/2013  22:44:00      -59.049       -9.842      -15.292       16.832       10.167        8.736      283.313      103.378       76.318        0.214        0.023       59.864        7.100        0.014      331.751       -0.032      869.485
12/28/2013  22:45:00      -18.454       -7.804        0.762       17.922        7.112        7.075      321.188       50.583       50.055        0.041        0.021       20.036        6.228        0.097      331.610       -0.264      869.496
12/28/2013  22:46:00        1.460      -28.081        1.847       10.427       14.486        7.725      108.732      209.840       59.676        0.059        0.019       28.119        6.145        0.048      331.840        0.113      869.505
12/28/2013  22:47:00       19.621        7.622        2.922        9.672        8.661        7.166       93.539       75.011       51.356        0.034        0.011       21.050        6.190        0.086      331.958        0.310      869.508
12/28/2013  22:48:00      -33.885       -1.514       -2.565       24.650        8.474        7.432      607.633       71.816       55.231        0.095        0.037       33.919        9.314        0.075      331.769       -0.002      869.502
12/28/2013  22:49:00      -65.693      -15.355      -12.593        9.351        9.203        5.849       87.438       84.704       34.212        0.246        0.010       67.464        3.449        0.003      331.481       -0.476      869.479
12/28/2013  22:50:00      -53.262      -25.638       -9.582       15.023       17.930        7.207      225.704      321.493       51.936        0.209        0.030       59.111        3.491        0.003      331.418       -0.580      869.479
12/28/2013  22:51:00      -78.368       -9.184       -6.427       20.050       16.349       11.071      401.989      267.296      122.567        0.353        0.040       78.904        6.309        0.006      331.397       -0.616      869.495
12/28/2013  22:52:00      -74.300       -9.410      -11.144       20.804       19.073       12.932      432.823      363.776      167.245        0.335        0.048       74.894       11.560        0.024      331.379       -0.644      869.516
12/28/2013  22:53:00      -78.757      -30.093       -8.011        9.722        9.595        6.917       94.519       92.064       47.839        0.370        0.012       84.310        5.652        0.004      331.469       -0.497      869.539
12/28/2013  22:54:00      -31.441      -28.652        1.228       24.677       14.775       14.680      608.933      218.295      215.488        0.143        0.052       42.538       12.826        0.091      331.511       -0.427      869.562
12/28/2013  22:55:00      -39.069      -20.338       -3.779       11.080        8.533        6.999      122.769       72.808       48.990        0.110        0.012       44.045        5.143        0.014      331.597       -0.287      869.579
12/28/2013  22:56:00      -42.166      -10.080       -7.516        6.395        8.197        5.380       40.892       67.188       28.945        0.104        0.007       43.354        2.651        0.004      331.573       -0.326      869.592
12/28/2013  22:57:00      -54.199       -9.872      -11.606        9.001        9.726        7.860       81.025       94.596       61.778        0.170        0.012       55.091        6.782        0.015      331.608       -0.267      869.602
12/28/2013  22:58:00      -32.874      -10.941       -3.814       19.251       11.406       11.214      370.598      130.086      125.757        0.092        0.031       34.647       14.082        0.165      331.600       -0.281      869.613
12/28/2013  22:59:00      -30.246       10.740       -5.511       11.404        6.130        6.983      130.054       37.576       48.758        0.064        0.011       32.097        6.750        0.044      331.594       -0.289      869.641
12/28/2013  23:00:00      -13.173        4.873       -2.759        7.545        6.159        6.082       56.927       37.934       36.992        0.017        0.007       14.045        5.402        0.148      331.652       -0.196      869.662
12/28/2013  23:01:00       -0.526        7.502        3.417        8.216        8.835        8.365       67.504       78.058       69.970        0.014        0.011        7.520        4.018        0.285      331.640       -0.213      869.685
12/28/2013  23:02:00      -22.916       15.300       10.408       17.423        9.864        6.128      303.576       97.307       37.556        0.065        0.022       27.554        2.542        0.009      331.671       -0.165      869.685
12/28/2013  23:03:00      -47.249      -15.351       -4.841       12.521       17.786        6.696      156.768      316.359       44.842        0.150        0.026       49.680        5.301        0.011      331.620       -0.249      869.672
12/28/2013  23:04:00      -68.944      -39.114      -10.741       12.755       11.785        9.048      162.695      138.885       81.857        0.339        0.019       79.266        5.357        0.005      331.477       -0.483      869.654
12/28/2013  23:05:00      -82.298      -45.965       -8.468       16.265       17.566       14.198      264.555      308.571      201.584        0.487        0.039       94.264       11.718        0.015      331.355       -0.684      869.642
12/28/2013  23:06:00      -91.674      -50.740       -6.818       20.981       13.575       12.430      440.221      184.283      154.502        0.590        0.039      104.779       11.267        0.012      331.347       -0.697      869.635
12/28/2013  23:07:00      -89.971      -36.047      -16.474       13.827       19.519        9.789      191.176      381.000       95.826        0.517        0.033       96.923        5.656        0.003      331.340       -0.708      869.640
12/28/2013  23:08:00     -107.139      -11.902      -16.021       12.217       11.933        9.276      149.246      142.400       86.049        0.613        0.019      107.798        4.620        0.002      331.377       -0.647      869.655
12/28/2013  23:09:00     -107.808      -12.837      -14.617        9.852        9.761        8.901       97.058       95.275       79.223        0.614        0.014      108.569        2.928        0.001      331.387       -0.631      869.665
12/28/2013  23:10:00      -94.888      -12.051      -15.675        9.863       11.069        9.408       97.281      122.513       88.517        0.485        0.015       95.650        5.503        0.003      331.332       -0.720      869.678
12/28/2013  23:11:00      -83.120      -18.553      -12.887       22.958       18.446       12.739      527.063      340.239      162.270        0.422        0.051       85.166       10.493        0.015      331.304       -0.768      869.683
12/28/2013  23:12:00      -86.546      -12.836       -9.535       24.055       16.709       12.975      578.625      279.206      168.343        0.439        0.051       87.493       11.895        0.018      331.365       -0.667      869.705
12/28/2013  23:13:00     -107.574       -9.853      -13.771       18.639       16.419       12.394      347.413      269.568      153.609        0.631        0.039      108.024       10.938        0.010      331.314       -0.751      869.707
12/28/2013  23:14:00     -101.334      -12.179      -18.297       25.962       14.373       15.655      674.006      206.584      245.089        0.594        0.056      102.063       16.023        0.025      331.189       -0.957      869.705
12/28/2013  23:15:00      -95.913      -20.797      -12.415       16.032       15.049        9.858      257.024      226.482       97.190        0.518        0.029       98.142        6.185        0.004      331.252       -0.852      869.708
12/28/2013  23:16:00     -122.700      -17.556      -15.587       21.415       15.821       17.298      458.601      250.296      299.205        0.831        0.050      123.949       12.011        0.009      331.289       -0.790      869.701
12/28/2013  23:17:00     -105.116      -47.665      -26.422       22.432       16.381       12.101      503.197      268.352      146.437        0.747        0.046      115.418        9.307        0.007      331.263       -0.834      869.694
12/28/2013  23:18:00      -73.876      -22.543       -0.603       38.670       33.064       20.291     1495.346     1093.229      411.735        0.448        0.150       77.239       18.110        0.055      331.237       -0.877      869.712
12/28/2013  23:19:00      -74.839      -23.739       -1.069       33.227       27.060       23.441     1104.062      732.265      549.501        0.428        0.119       78.514       16.565        0.045      331.234       -0.881      869.727
12/28/2013  23:20:00     -105.550        9.355      -17.554       35.565       18.337       15.755     1264.902      336.244      248.234        0.669        0.092      105.964       11.799        0.012      331.319       -0.743      869.739
12/28/2013  23:21:00      -56.123      -20.656      -15.124       16.221       16.268       12.699      263.133      264.642      161.255        0.225        0.034       59.804       11.436        0.037      331.259       -0.839      869.728
12/28/2013  23:22:00      -50.562      -19.638      -12.882       12.792       13.818       10.732      163.628      190.941      115.171        0.179        0.023       54.242        9.047        0.028      331.278       -0.809      869.725
12/28/2013  23:23:00      -49.165      -20.402      -11.958       12.842       13.228        9.899      164.914      174.988       98.000        0.171        0.022       53.230        5.145        0.009      331.561       -0.344      869.726
12/28/2013  23:24:00      -54.442      -27.733      -21.493       13.937       17.364       11.135      194.245      301.493      123.979        0.241        0.031       61.098        8.162        0.018      331.611       -0.263      869.720
12/28/2013  23:25:00      -49.264      -34.817      -15.053       17.866       13.194       13.511      319.210      174.092      182.534        0.227        0.034       60.326        9.773        0.026      331.356       -0.682      869.717
12/28/2013  23:26:00      -78.177      -29.880      -14.858       27.579       19.177       14.865      760.610      367.774      220.972        0.429        0.067       83.693       13.939        0.028      331.323       -0.736      869.726
12/28/2013  23:27:00      -85.234      -42.853      -11.662       15.836       19.525       12.734      250.785      381.212      162.148        0.502        0.040       95.400        7.789        0.007      331.240       -0.871      869.759
12/28/2013  23:28:00      -95.718      -33.495      -12.907       15.599       15.734       12.653      243.322      247.559      160.094        0.555        0.033      101.410        7.062        0.005      331.363       -0.670      869.774
12/28/2013  23:29:00      -95.488      -29.819       -7.168       17.717       15.298       12.522      313.907      234.043      156.789        0.538        0.035      100.035        5.056        0.003      331.315       -0.748      869.782
12/28/2013  23:30:00      -17.512      -23.582        2.202       25.725       11.619       11.322      661.767      134.998      128.176        0.090        0.046       29.373       13.861        0.223      331.392       -0.623      869.778
12/28/2013  23:31:00      -48.688      -19.343       -8.854       25.653       14.577       12.946      658.084      212.484      167.590        0.193        0.052       52.389       12.766        0.059      331.448       -0.532      869.766
12/28/2013  23:32:00      -52.934       -6.766       -9.051        8.364        9.822        5.703       69.948       96.479       32.529        0.156        0.010       53.365        5.354        0.010      331.650       -0.197      869.749
12/28/2013  23:33:00      -39.715      -15.332       -7.103        9.502        6.732        5.871       90.284       45.317       34.466        0.102        0.009       42.571        3.449        0.007      331.791        0.034      869.741
12/28/2013  23:34:00      -20.012       -6.972        2.726        8.435        7.922        4.978       71.149       62.753       24.785        0.031        0.008       21.192        5.845        0.076      331.793        0.037      869.744
12/28/2013  23:35:00      -12.432        2.455        1.699        6.730        4.826        4.004       45.292       23.287       16.030        0.012        0.004       12.672        4.120        0.106      331.694       -0.128      869.752
12/28/2013  23:36:00        4.538       11.855       -1.838        5.375        8.151        5.676       28.893       66.433       32.216        0.015        0.006       12.694        3.685        0.084      331.864        0.154      869.756
12/28/2013  23:37:00       11.237       11.840        4.765        6.771        5.877        6.619       45.846       34.539       43.809        0.021        0.006       16.323        4.468        0.075      331.954        0.303      869.752
12/28/2013  23:38:00       -2.175       13.726        4.976        9.441        8.244        8.746       89.133       67.968       76.493        0.023        0.012       13.897        6.722        0.234      331.964        0.320      869.763
12/28/2013  23:39:00      -21.431      -10.878        1.124       11.597       14.209        7.926      134.498      201.907       62.823        0.049        0.020       24.034       10.241        0.182      331.741       -0.048      869.770
12/28/2013  23:40:00      -12.758      -37.224       -4.765       11.762       12.163        8.747      138.342      147.933       76.517        0.097        0.018       39.350        6.870        0.030      331.627       -0.236      869.789
12/28/2013  23:41:00      -23.823      -35.066       -0.611       12.543       12.829       14.734      157.317      164.586      217.094        0.117        0.027       42.393        9.340        0.049      331.507       -0.434      869.791
12/28/2013  23:42:00      -14.539      -25.138        7.288       15.878       11.702       11.466      252.114      136.944      131.460        0.071        0.026       29.040       10.376        0.128      331.512       -0.425      869.794
12/28/2013  23:43:00      -72.972      -13.288      -11.614       19.314        7.866        6.280      373.027       61.879       39.437        0.306        0.024       74.171        5.475        0.005      331.457       -0.516      869.788
12/28/2013  23:44:00      -99.362      -17.264      -18.072       11.144        8.545        9.225      124.189       73.015       85.105        0.539        0.014      100.850        6.264        0.004      331.404       -0.604      869.775
12/28/2013  23:45:00     -103.654      -33.258      -10.436       13.949       18.763       13.238      194.582      352.049      175.237        0.634        0.036      108.858        7.269        0.004      331.306       -0.764      869.781
12/28/2013  23:46:00     -108.245      -44.873      -12.653       17.541       12.770       11.024      307.672      163.073      121.529        0.724        0.030      117.177        4.493        0.001      331.334       -0.717      869.787
12/28/2013  23:47:00     -105.786      -37.406      -18.345       10.920        9.700        8.841      119.253       94.089       78.170        0.661        0.015      112.205        3.762        0.001      331.329       -0.726      869.799
12/28/2013  23:48:00      -84.406      -19.823      -13.585       13.586       12.419        8.417      184.586      154.242       70.841        0.406        0.020       86.703        2.929        0.001      331.306       -0.762      869.807
12/28/2013  23:49:00      -64.454       -7.011       -9.810        9.479       10.902       10.539       89.850      118.862      111.072        0.231        0.016       64.834        5.332        0.007      331.284       -0.798      869.815
12/28/2013  23:50:00      -65.487        0.924      -21.816       10.658        6.013        5.587      113.601       36.157       31.212        0.247        0.009       65.493        4.004        0.004      331.315       -0.748      869.819
12/28/2013  23:51:00      -41.944      -11.668      -10.510       11.603        6.564        5.441      134.632       43.088       29.600        0.111        0.010       43.536        1.463        0.001      331.653       -0.194      869.822
12/28/2013  23:52:00      -23.261      -16.956        1.276        9.394       19.911        8.755       88.251      396.442       76.652        0.070        0.028       28.785        5.842        0.041      331.952        0.299      869.818
12/28/2013  23:53:00      -15.748      -31.031        1.253       13.494       12.863       14.327      182.085      165.461      205.272        0.088        0.028       34.798       12.262        0.124      331.388       -0.629      869.821
12/28/2013  23:54:00      -60.394      -36.165      -16.436       24.915       11.914        9.061      620.754      141.952       82.098        0.303        0.042       70.394        7.293        0.011      331.276       -0.812      869.824
12/28/2013  23:55:00      -65.331      -41.551       -6.028       14.897       11.957       11.783      221.916      142.958      138.844        0.327        0.025       77.425        9.499        0.015      331.198       -0.941      869.837
12/28/2013  23:56:00      -94.303      -24.020      -13.710       14.472        9.278        9.570      209.452       86.087       91.580        0.502        0.019       97.314        9.570        0.010      331.249       -0.858      869.825
12/28/2013  23:57:00      -77.199      -21.695       -7.465       15.679       10.379       10.989      245.830      107.726      120.753        0.348        0.024       80.189        9.319        0.014      331.184       -0.966      869.810
12/28/2013  23:58:00      -59.390      -30.588       -5.960       12.370        9.477        8.315      153.007       89.805       69.142        0.241        0.016       66.804        3.788        0.003      331.151       -1.019      869.825
12/28/2013  23:59:00      -70.254      -41.981       -5.205       14.641       11.944        7.297      214.345      142.658       53.243        0.357        0.021       81.842        4.982        0.004      331.214       -0.913      869.842
